[[{"header":{"parameterUnit":"m.s-1","parameterCategory":1,"la1":30.6,"la2":29.2853,"lo1":-89.7004,"lo2":-87.6739,"dy":0.0162,"dx":0.0183,"nx":112,"ny":82,"refTime":"2026-05-06T12:00:00:Z","depth":0,"parameterNumber":2,"parameterNumberName":"U-component_of_WINDS"},"data":[0.0,0.0,0.0,0.0,0.0,0.0,0.0,0.0,0.0,0.0,0.0,0.0,0.0,0.0,0.0,0.0,0.0,0.0,0.0,0.0,0.0,0.0,0.0,0.0,0.0,0.0,0.0,0.0,0.0,0.0,0.0,0.0,0.0,0.0,0.0,0.0,0.0,0.0,0.0,0.0,0.0,0.0,0.0,0.0,0.0,0.0,0.0,0.0,0.0,0.0,0.0,0.0,0.0,0.0,0.0,0.0,0.0,0.0,0.0,0.0,0.0,0.0,0.0,0.0,0.0,0.0,0.0,0.0,0.0,0.0,0.0,0.0,0.0,0.0,0.0,0.0,0.0,0.0,0.0,0.0,0.0,0.0,0.0,0.0,0.0,0.0,0.0,0.0,0.0,0.0,-3.3241,-3.6267,-3.9237,-4.0357,-3.8735,-3.8473,-3.6988,-3.3682,0.0,0.0,0.0,0.0,0.0,0.0,0.0,0.0,0.0,0.0,0.0,0.0,0.0,0.0,0.0,0.0,0.0,0.0,0.0,0.0,0.0,0.0,0.0,0.0,0.0,0.0,0.0,0.0,0.0,0.0,0.0,0.0,0.0,0.0,0.0,0.0,0.0,0.0,0.0,0.0,0.0,0.0,0.0,0.0,0.0,0.0,0.0,0.0,0.0,0.0,0.0,0.0,0.0,0.0,0.0,0.0,0.0,0.0,0.0,0.0,0.0,0.0,0.0,0.0,0.0,0.0,0.0,0.0,0.0,0.0,0.0,0.0,0.0,0.0,0.0,0.0,0.0,0.0,0.0,0.0,0.0,0.0,0.0,0.0,0.0,0.0,0.0,0.0,0.0,0.0,0.0,0.0,0.0,0.0,0.0,0.0,0.0,0.0,0.0,0.0,0.0,0.0,0.0,0.0,-3.3934,-3.871,-4.0286,-4.0584,-3.9588,-3.884,-3.724,-3.4482,0.0,0.0,0.0,0.0,0.0,0.0,0.0,0.0,0.0,0.0,0.0,0.0,0.0,0.0,0.0,0.0,0.0,0.0,0.0,0.0,0.0,0.0,0.0,0.0,0.0,0.0,0.0,0.0,0.0,0.0,0.0,0.0,0.0,0.0,0.0,0.0,0.0,0.0,0.0,0.0,0.0,0.0,0.0,0.0,0.0,0.0,0.0,0.0,0.0,0.0,0.0,0.0,0.0,0.0,0.0,0.0,0.0,0.0,0.0,0.0,0.0,0.0,0.0,0.0,0.0,0.0,0.0,0.0,0.0,0.0,0.0,0.0,0.0,0.0,0.0,0.0,0.0,0.0,0.0,0.0,0.0,0.0,0.0,0.0,0.0,0.0,0.0,0.0,0.0,0.0,0.0,0.0,0.0,0.0,0.0,0.0,0.0,0.0,0.0,0.0,0.0,0.0,0.0,-3.3141,-3.5477,-3.875,-3.9842,-3.9983,-3.9079,-3.8202,-3.6607,-3.4016,-3.1879,0.0,0.0,0.0,0.0,0.0,0.0,0.0,0.0,0.0,0.0,0.0,0.0,0.0,0.0,0.0,0.0,0.0,0.0,0.0,0.0,0.0,0.0,0.0,0.0,0.0,0.0,0.0,0.0,0.0,0.0,0.0,0.0,0.0,0.0,0.0,0.0,0.0,0.0,0.0,0.0,0.0,0.0,0.0,0.0,0.0,0.0,0.0,0.0,0.0,0.0,0.0,0.0,0.0,0.0,0.0,0.0,0.0,0.0,0.0,0.0,0.0,0.0,0.0,0.0,0.0,0.0,0.0,0.0,0.0,0.0,0.0,0.0,0.0,0.0,0.0,0.0,0.0,0.0,0.0,0.0,0.0,0.0,0.0,0.0,0.0,0.0,0.0,0.0,0.0,0.0,0.0,0.0,0.0,0.0,0.0,0.0,0.0,0.0,0.0,0.0,0.0,0.0,-3.4977,-3.6881,-3.8358,-3.9101,-3.9116,-3.8202,-3.7322,-3.5804,-3.3452,-3.1467,0.0,0.0,0.0,0.0,0.0,0.0,0.0,0.0,0.0,0.0,0.0,0.0,0.0,0.0,0.0,0.0,0.0,0.0,0.0,0.0,0.0,0.0,0.0,0.0,0.0,0.0,0.0,0.0,0.0,0.0,0.0,0.0,0.0,0.0,0.0,0.0,0.0,0.0,0.0,0.0,0.0,0.0,0.0,0.0,0.0,0.0,0.0,0.0,0.0,0.0,0.0,0.0,0.0,0.0,0.0,0.0,0.0,0.0,0.0,0.0,0.0,0.0,0.0,0.0,0.0,0.0,0.0,0.0,0.0,0.0,0.0,0.0,0.0,0.0,0.0,0.0,0.0,0.0,0.0,0.0,0.0,0.0,0.0,0.0,0.0,0.0,0.0,0.0,0.0,0.0,0.0,0.0,0.0,0.0,0.0,0.0,0.0,0.0,0.0,0.0,0.0,0.0,-3.5135,-3.7557,-3.8496,-3.8591,-3.824,-3.7363,-3.6486,-3.5223,-3.3413,-3.0904,0.0,0.0,0.0,0.0,0.0,0.0,0.0,0.0,0.0,0.0,0.0,0.0,0.0,0.0,0.0,0.0,0.0,0.0,0.0,0.0,0.0,0.0,0.0,0.0,0.0,0.0,0.0,0.0,0.0,0.0,0.0,0.0,0.0,0.0,0.0,0.0,0.0,0.0,0.0,0.0,0.0,0.0,0.0,0.0,0.0,0.0,0.0,0.0,0.0,0.0,0.0,0.0,0.0,0.0,0.0,0.0,0.0,0.0,0.0,0.0,0.0,0.0,0.0,0.0,0.0,0.0,0.0,0.0,0.0,0.0,0.0,0.0,0.0,0.0,0.0,0.0,0.0,0.0,0.0,0.0,0.0,0.0,0.0,0.0,0.0,0.0,0.0,0.0,0.0,0.0,0.0,0.0,0.0,0.0,0.0,0.0,0.0,0.0,0.0,0.0,0.0,0.0,-3.3866,-3.6228,-3.7633,-3.776,-3.7595,-3.7225,-3.6405,-3.5156,-3.3409,0.0,0.0,0.0,0.0,0.0,0.0,0.0,0.0,0.0,0.0,0.0,0.0,0.0,0.0,0.0,0.0,0.0,0.0,0.0,0.0,0.0,0.0,0.0,0.0,0.0,0.0,0.0,0.0,0.0,0.0,0.0,0.0,0.0,0.0,0.0,0.0,0.0,0.0,0.0,0.0,0.0,0.0,0.0,0.0,0.0,0.0,0.0,0.0,0.0,0.0,0.0,0.0,0.0,0.0,0.0,0.0,0.0,0.0,0.0,0.0,0.0,0.0,0.0,0.0,0.0,0.0,0.0,0.0,0.0,0.0,0.0,0.0,0.0,0.0,0.0,0.0,0.0,0.0,0.0,0.0,0.0,0.0,0.0,0.0,0.0,0.0,0.0,0.0,0.0,0.0,0.0,0.0,0.0,0.0,0.0,0.0,0.0,0.0,0.0,0.0,0.0,0.0,-3.0659,-3.3317,-3.5563,-3.6767,-3.6889,-3.6862,-3.6796,-3.6012,-3.488,-3.3388,0.0,0.0,0.0,0.0,0.0,0.0,0.0,0.0,0.0,0.0,0.0,0.0,0.0,0.0,0.0,0.0,0.0,0.0,0.0,0.0,0.0,0.0,0.0,0.0,0.0,0.0,0.0,0.0,0.0,0.0,0.0,0.0,0.0,0.0,0.0,0.0,0.0,0.0,0.0,0.0,0.0,0.0,0.0,0.0,0.0,0.0,0.0,0.0,0.0,0.0,0.0,0.0,0.0,0.0,0.0,0.0,0.0,0.0,0.0,0.0,0.0,0.0,0.0,0.0,0.0,0.0,0.0,0.0,0.0,0.0,0.0,0.0,0.0,0.0,0.0,0.0,0.0,0.0,0.0,0.0,0.0,0.0,0.0,0.0,0.0,0.0,0.0,0.0,0.0,0.0,0.0,0.0,0.0,0.0,0.0,0.0,0.0,0.0,0.0,0.0,0.0,0.0,-3.0801,-3.3836,-3.6006,-3.6007,-3.6002,-3.5962,-3.5916,-3.5175,-3.4312,0.0,0.0,0.0,0.0,0.0,0.0,0.0,0.0,0.0,0.0,0.0,0.0,0.0,0.0,0.0,0.0,0.0,0.0,0.0,0.0,0.0,0.0,0.0,0.0,0.0,0.0,0.0,0.0,0.0,0.0,0.0,0.0,0.0,0.0,0.0,0.0,0.0,0.0,0.0,0.0,0.0,0.0,0.0,0.0,0.0,0.0,0.0,0.0,0.0,0.0,0.0,0.0,0.0,0.0,0.0,0.0,0.0,0.0,0.0,0.0,0.0,0.0,0.0,0.0,0.0,0.0,0.0,0.0,0.0,0.0,0.0,0.0,0.0,0.0,0.0,0.0,0.0,0.0,0.0,0.0,0.0,0.0,0.0,0.0,0.0,0.0,0.0,0.0,0.0,0.0,0.0,0.0,0.0,0.0,0.0,0.0,0.0,0.0,0.0,0.0,0.0,0.0,0.0,-3.0799,-3.3846,-3.5992,-3.6005,-3.599,-3.5997,-3.5967,-3.5716,-3.4902,-3.34,0.0,0.0,0.0,0.0,0.0,0.0,0.0,0.0,0.0,0.0,0.0,0.0,0.0,0.0,0.0,0.0,0.0,0.0,0.0,0.0,0.0,0.0,0.0,0.0,0.0,0.0,0.0,0.0,0.0,0.0,0.0,0.0,0.0,0.0,0.0,0.0,0.0,0.0,0.0,0.0,0.0,0.0,0.0,0.0,0.0,0.0,0.0,0.0,0.0,0.0,0.0,0.0,0.0,0.0,0.0,0.0,0.0,0.0,0.0,0.0,0.0,0.0,0.0,0.0,0.0,0.0,0.0,0.0,0.0,0.0,0.0,0.0,0.0,0.0,0.0,0.0,0.0,0.0,0.0,0.0,0.0,0.0,0.0,0.0,0.0,0.0,0.0,0.0,0.0,0.0,0.0,0.0,0.0,0.0,0.0,0.0,0.0,0.0,0.0,0.0,0.0,0.0,-3.0792,-3.3838,-3.5981,-3.5953,-3.5984,-3.5988,-3.596,-3.5953,-3.5191,-3.3457,0.0,0.0,0.0,0.0,0.0,0.0,0.0,0.0,0.0,0.0,0.0,0.0,0.0,0.0,0.0,0.0,0.0,0.0,0.0,0.0,0.0,0.0,0.0,0.0,0.0,0.0,0.0,0.0,0.0,0.0,0.0,0.0,0.0,0.0,0.0,0.0,0.0,0.0,0.0,0.0,0.0,0.0,0.0,0.0,0.0,0.0,0.0,0.0,0.0,0.0,0.0,0.0,0.0,0.0,0.0,0.0,0.0,0.0,0.0,0.0,0.0,0.0,0.0,0.0,0.0,0.0,0.0,0.0,0.0,0.0,0.0,0.0,0.0,0.0,0.0,0.0,0.0,0.0,0.0,0.0,0.0,0.0,0.0,0.0,0.0,0.0,0.0,0.0,0.0,0.0,0.0,0.0,0.0,0.0,0.0,0.0,0.0,0.0,0.0,0.0,0.0,0.0,-3.0804,-3.3832,-3.5975,-3.5914,-3.594,-3.597,-3.5912,-3.5966,-3.5285,-3.3625,0.0,0.0,0.0,0.0,0.0,0.0,0.0,0.0,0.0,0.0,0.0,0.0,0.0,0.0,0.0,0.0,0.0,0.0,0.0,0.0,0.0,0.0,0.0,0.0,0.0,0.0,0.0,0.0,0.0,0.0,0.0,0.0,0.0,0.0,0.0,0.0,0.0,0.0,0.0,0.0,0.0,0.0,0.0,0.0,0.0,0.0,0.0,0.0,0.0,0.0,0.0,0.0,0.0,0.0,0.0,0.0,0.0,0.0,0.0,0.0,-3.4161,-3.3145,0.0,0.0,0.0,0.0,0.0,0.0,0.0,0.0,0.0,0.0,0.0,0.0,0.0,0.0,0.0,0.0,0.0,0.0,0.0,0.0,0.0,0.0,0.0,0.0,0.0,0.0,0.0,0.0,0.0,0.0,0.0,0.0,0.0,0.0,0.0,0.0,0.0,0.0,0.0,0.0,-3.0794,-3.3804,-3.5919,-3.5904,-3.5904,-3.5924,-3.5909,-3.5914,-3.5467,-3.4404,-3.2767,0.0,0.0,0.0,0.0,0.0,0.0,0.0,0.0,0.0,0.0,0.0,0.0,0.0,0.0,0.0,0.0,0.0,0.0,0.0,0.0,0.0,0.0,0.0,0.0,0.0,0.0,0.0,0.0,0.0,0.0,0.0,0.0,0.0,0.0,0.0,0.0,0.0,0.0,0.0,0.0,0.0,0.0,0.0,0.0,0.0,0.0,0.0,0.0,0.0,0.0,0.0,0.0,0.0,0.0,0.0,0.0,0.0,0.0,0.0,-3.4948,-3.4542,0.0,0.0,0.0,0.0,0.0,0.0,0.0,0.0,0.0,0.0,0.0,0.0,0.0,0.0,0.0,0.0,0.0,0.0,0.0,0.0,0.0,0.0,0.0,0.0,0.0,0.0,0.0,0.0,0.0,0.0,0.0,0.0,0.0,0.0,0.0,0.0,0.0,0.0,0.0,0.0,-3.081,-3.3797,-3.5892,-3.5899,-3.5899,-3.5899,-3.5899,-3.5904,-3.5529,-3.4651,-3.3025,0.0,0.0,0.0,0.0,0.0,0.0,0.0,0.0,0.0,0.0,0.0,0.0,0.0,0.0,0.0,0.0,0.0,0.0,0.0,0.0,0.0,0.0,0.0,0.0,0.0,0.0,0.0,0.0,0.0,0.0,0.0,0.0,0.0,0.0,0.0,0.0,0.0,0.0,0.0,0.0,0.0,0.0,0.0,0.0,0.0,0.0,0.0,0.0,0.0,0.0,0.0,0.0,0.0,-3.6285,-3.6629,-3.6135,-3.7579,-3.7592,-3.6455,-3.5687,-3.6019,-3.6943,-3.4993,0.0,0.0,0.0,0.0,0.0,0.0,0.0,0.0,0.0,0.0,0.0,0.0,0.0,0.0,0.0,0.0,0.0,0.0,0.0,0.0,0.0,0.0,-3.3624,-3.2734,-3.3748,-3.4316,-3.2165,0.0,0.0,0.0,0.0,0.0,0.0,0.0,0.0,0.0,0.0,0.0,-3.0997,-3.3592,-3.5432,-3.5463,-3.559,-3.5688,-3.5699,-3.5824,-3.559,-3.4861,-3.3393,-3.2144,0.0,0.0,0.0,0.0,0.0,0.0,0.0,0.0,0.0,0.0,0.0,0.0,0.0,0.0,0.0,0.0,0.0,0.0,0.0,0.0,0.0,0.0,0.0,0.0,0.0,0.0,0.0,0.0,0.0,0.0,0.0,0.0,-2.7783,-2.8721,0.0,0.0,0.0,0.0,0.0,0.0,0.0,0.0,0.0,0.0,0.0,0.0,0.0,-3.5399,-3.6028,-3.6254,-3.6755,-3.7501,-3.7733,-3.7751,-3.7625,-3.7844,-3.8283,-3.8846,-3.8769,0.0,-3.7131,-3.7559,0.0,0.0,0.0,0.0,0.0,0.0,0.0,0.0,0.0,0.0,0.0,0.0,0.0,0.0,0.0,0.0,0.0,0.0,0.0,0.0,0.0,0.0,-3.5351,-3.4474,-3.502,-3.5644,-3.5298,-3.2904,-3.0953,-3.1481,-3.0367,-2.902,0.0,0.0,0.0,0.0,0.0,0.0,-3.1724,-3.2884,-3.3599,-3.3721,-3.434,-3.4786,-3.4854,-3.551,-3.5858,-3.5732,-3.4811,-3.3871,-3.3006,-3.1238,0.0,0.0,0.0,0.0,0.0,0.0,0.0,0.0,0.0,0.0,0.0,0.0,0.0,0.0,0.0,0.0,0.0,0.0,0.0,0.0,0.0,0.0,0.0,0.0,0.0,0.0,0.0,0.0,0.0,-2.781,-2.9223,-3.0137,-3.0111,-3.0052,0.0,0.0,0.0,0.0,0.0,0.0,0.0,0.0,0.0,-3.4622,-3.5959,-3.665,-3.6523,-3.7431,-3.8074,-3.8465,-3.8918,-3.9174,-3.9248,-3.9292,-3.9546,-3.9969,-4.012,-3.9782,-3.9054,-3.8073,-3.7007,-3.5824,0.0,0.0,0.0,0.0,-3.2826,-3.2902,-3.3399,-3.3551,-3.3414,-3.2533,0.0,0.0,0.0,0.0,0.0,0.0,0.0,-3.3555,-3.3555,-3.4725,-3.5791,-3.5421,-3.5616,-3.5908,-3.5908,-3.3975,-3.2233,-3.2118,-3.109,-2.981,-2.8433,-2.8177,0.0,0.0,0.0,-3.03,-3.1105,-3.2334,-3.3172,-3.3274,-3.3605,-3.3851,-3.3968,-3.4706,-3.5171,-3.5178,-3.4803,-3.4438,-3.4049,-3.2413,-3.0949,0.0,0.0,0.0,0.0,0.0,0.0,0.0,0.0,0.0,0.0,0.0,0.0,0.0,0.0,0.0,0.0,0.0,0.0,0.0,0.0,0.0,0.0,0.0,0.0,0.0,0.0,0.0,0.0,-2.9264,-3.0775,-3.1725,-3.2057,-3.1984,0.0,0.0,0.0,0.0,0.0,0.0,-3.4478,-3.5725,-3.6392,-3.6375,-3.8051,-3.8642,-3.7994,-3.9175,-3.9764,-3.9783,-4.0401,-4.0624,-4.0539,-4.0621,-4.0554,-4.0416,-4.059,-4.0649,-4.0469,-3.8758,-3.7797,-3.7212,-3.5363,-3.4263,-3.3724,-3.3939,-3.3883,-3.3865,-3.496,-3.5342,-3.5225,-3.4575,-3.4068,-3.347,-3.2185,0.0,0.0,0.0,0.0,-3.4737,-3.4952,-3.5441,-3.5908,-3.5908,-3.5908,-3.583,-3.5616,-3.443,-3.3261,-3.2832,-3.1875,-3.0643,-2.909,-2.8765,0.0,-2.8717,-2.9522,-3.0308,-3.0772,-3.1743,-3.2411,-3.2504,-3.2726,-3.2914,-3.3003,-3.3799,-3.4372,-3.4586,-3.4606,-3.47,-3.4915,-3.3526,-3.2239,-3.1155,0.0,0.0,0.0,0.0,0.0,0.0,0.0,0.0,0.0,0.0,0.0,0.0,0.0,0.0,0.0,0.0,0.0,0.0,0.0,0.0,0.0,0.0,0.0,0.0,0.0,0.0,0.0,0.0,0.0,-3.319,-3.4148,0.0,0.0,0.0,0.0,-3.4419,-3.5428,-3.6112,-3.6278,-3.8613,-3.9909,-3.985,-4.1468,-4.2335,-4.2297,-4.2373,-4.2411,-4.2411,-4.2502,-4.2068,-4.1165,-4.1295,-4.0901,-4.0129,-4.0279,-4.033,-4.034,-4.052,-3.968,-3.8222,-3.8098,-3.6602,-3.4637,-3.5395,-3.5204,-3.4783,-3.6476,-3.7061,-3.7061,-3.7022,-3.5892,-3.4535,-3.4507,-3.3953,0.0,0.0,-3.4614,-3.4803,-3.5619,-3.5872,-3.5908,-3.5908,-3.5908,-3.5675,-3.4837,-3.4002,-3.3612,-3.4333,-3.3144,-3.1707,-3.0652,0.0,-3.0451,-3.0384,-2.9692,-2.9795,-3.1502,-3.0976,-3.0499,-3.0612,-3.1425,-3.198,-3.1964,-3.29,-3.3787,-3.4547,-3.4606,-3.4973,-3.5791,-3.4956,-3.3694,-3.207,-3.0318,0.0,0.0,0.0,0.0,0.0,0.0,0.0,0.0,0.0,0.0,0.0,0.0,0.0,0.0,0.0,0.0,0.0,0.0,0.0,0.0,0.0,0.0,0.0,0.0,0.0,0.0,0.0,0.0,-3.4081,-3.5405,0.0,-3.4415,-3.5235,-3.5676,-3.527,-3.7415,-3.8756,-3.8785,-4.068,-4.1707,-4.1662,-4.2275,-4.258,-4.2536,-4.258,-4.258,-4.2536,-4.2183,-4.202,-4.2099,-4.1695,-4.1583,-4.1656,-4.179,-4.1829,-4.1762,-4.144,-4.041,-3.896,-3.8529,-3.7848,-3.7137,-3.743,-3.7358,-3.7194,-3.7818,-3.8032,-3.8032,-3.8032,-3.7623,-3.7119,-3.7133,-3.6932,-3.6749,-3.7055,-3.6718,-3.6337,-3.6668,-3.6317,-3.5908,-3.5908,-3.5908,-3.5655,-3.4798,-3.3963,-3.3462,-3.3651,-3.2302,-3.1015,-3.0658,-3.0483,-3.0399,-3.0375,-3.0054,-3.0043,-3.0682,-3.0452,-3.0273,-3.0359,-3.0664,-3.0917,-3.1052,-3.1903,-3.2343,-3.2165,-3.32,-3.3729,-3.3456,-3.369,-3.3288,-3.2116,-3.0946,-2.9485,0.0,0.0,0.0,0.0,0.0,0.0,0.0,0.0,0.0,0.0,0.0,0.0,0.0,0.0,0.0,0.0,0.0,0.0,0.0,0.0,0.0,0.0,0.0,0.0,0.0,-3.1827,-3.4099,-3.4899,-3.6417,-3.6886,-3.553,-3.678,-3.7548,-3.7218,-3.9387,-4.08,-4.0893,-4.2259,-4.3009,-4.294,-4.3284,-4.3458,-4.3373,-4.3439,-4.3439,-4.3406,-4.3,-4.2867,-4.2987,-4.2571,-4.2427,-4.2514,-4.2675,-4.2534,-4.2158,-4.1753,-4.0861,-3.9689,-3.9226,-3.9141,-3.9264,-3.8922,-3.8668,-3.8504,-3.8825,-3.8948,-3.8948,-3.8948,-3.8733,-3.85,-3.85,-3.85,-3.85,-3.85,-3.7876,-3.7194,-3.7194,-3.6551,-3.5908,-3.5908,-3.5908,-3.5597,-3.445,-3.3732,-3.3122,-3.2442,-3.1386,-3.0676,-3.0903,-3.0586,-3.029,-3.0266,-3.0227,-3.0211,-3.0211,-3.0211,-3.0226,-3.0254,-3.0297,-3.0367,-3.054,-3.0874,-3.1113,-3.1227,-3.2051,-3.254,-3.254,-3.2815,-3.2698,-3.2111,-3.0959,-2.9654,-2.8205,0.0,0.0,0.0,0.0,0.0,0.0,0.0,0.0,0.0,0.0,0.0,0.0,0.0,0.0,0.0,0.0,0.0,0.0,0.0,0.0,0.0,0.0,0.0,-3.0749,-3.3071,-3.4899,-3.5731,-3.7232,-3.7901,-3.7104,-3.8739,-3.9967,-4.0257,-4.1392,-4.2197,-4.2519,-4.3409,-4.3896,-4.3833,-4.4717,-4.5189,-4.5141,-4.5208,-4.523,-4.523,-4.5211,-4.4717,-4.3844,-4.3918,-4.3439,-4.259,-4.277,-4.2352,-4.1489,-4.1571,-4.1166,-4.0427,-4.0345,-4.0547,-4.0784,-3.9799,-3.9034,-3.8602,-3.9517,-3.9841,-3.9844,-3.9844,-3.9279,-3.8578,-3.8578,-3.8578,-3.8578,-3.8578,-3.7935,-3.7233,-3.7233,-3.6571,-3.5908,-3.5908,-3.5908,-3.5438,-3.3785,-3.333,-3.2734,-3.1033,-3.0683,-3.0862,-3.1465,-3.0879,-3.0317,-3.0206,-3.023,0.0,-3.0211,-3.0211,-3.0192,-3.0192,-3.0254,-3.0359,-3.0496,-2.9846,-3.0179,-3.1914,-3.1252,-3.1561,-3.3242,-3.2511,-3.2062,-3.2055,-3.0355,-2.9057,-2.823,0.0,0.0,0.0,0.0,0.0,0.0,0.0,0.0,0.0,0.0,0.0,0.0,0.0,0.0,0.0,0.0,0.0,0.0,0.0,0.0,0.0,-2.9043,-3.0832,-3.1182,-3.317,-3.5113,-3.6508,-3.7593,-3.8118,-3.7901,-3.9559,-4.0494,-4.0028,-4.2155,-4.3348,-4.3083,-4.3913,-4.4485,-4.4668,-4.5022,-4.5475,-4.6035,-4.6123,-4.6145,-4.6126,-4.5494,-4.5085,-4.4889,-4.4857,-4.4679,-4.4395,-4.4395,-4.3886,-4.302,-4.2482,-4.1867,-4.1222,-4.066,-4.0568,-4.073,-4.0441,-4.0283,-4.0246,-4.0511,-4.0657,-4.0737,-4.0737,-4.0581,-4.039,-4.039,-4.039,-4.039,-4.039,-3.9298,-3.8149,-3.8149,-3.7038,-3.5908,-3.5908,-3.5833,-3.5461,-3.4427,-3.4091,-3.3819,-3.3257,-3.2667,-3.1917,-3.0833,-3.0938,-3.0953,-3.0307,-3.0739,-3.0911,-3.028,-3.0211,-3.0226,-3.0266,-3.0284,-3.0372,-3.0568,-3.0388,-3.0254,-3.0214,-3.0587,-3.1016,-3.1483,-3.1271,-3.1159,-3.1168,-2.9459,-2.8746,0.0,0.0,0.0,0.0,0.0,0.0,0.0,0.0,0.0,0.0,0.0,0.0,0.0,0.0,0.0,0.0,0.0,0.0,0.0,0.0,0.0,0.0,-2.9903,-3.1408,-3.19,-3.3908,-3.586,-3.7341,-3.7919,-3.8336,-3.8663,-3.9974,-4.0815,-4.0848,-4.2659,-4.3723,-4.3634,-4.4079,-4.4511,-4.4821,-4.4936,-4.5437,-4.6397,-4.6469,-4.6663,-4.6984,-4.6153,-4.5753,-4.5748,-4.5371,-4.5178,-4.5148,-4.5136,-4.4436,-4.3281,-4.2756,-4.1958,-4.1001,0.0,0.0,0.0,0.0,-4.0718,-4.0823,-4.0823,-4.0864,-4.0939,-4.0992,-4.098,-4.0939,-4.0996,-4.098,-4.093,-4.093,-3.9984,-3.8855,-3.8431,-3.7384,-3.6331,-3.5915,-3.5753,-3.5484,-3.4664,-3.4347,-3.4088,-3.3673,-3.3171,0.0,-3.1008,-3.1171,-3.1197,-3.0319,-3.0624,-3.0777,-3.0268,-3.0211,-3.0221,-3.029,-3.0302,-3.0383,-3.0582,-3.0282,0.0,0.0,0.0,-3.0258,-3.0263,-3.0964,0.0,0.0,0.0,0.0,0.0,0.0,0.0,0.0,-2.9428,-2.9725,0.0,0.0,0.0,0.0,0.0,0.0,0.0,0.0,0.0,0.0,0.0,0.0,0.0,0.0,0.0,0.0,-3.0049,-3.1316,-3.2821,-3.476,-3.6524,-3.7854,-3.8069,-3.8466,-3.9315,-4.0075,-4.096,-4.2072,-4.2895,-4.3542,-4.3999,-4.3974,0.0,0.0,0.0,-4.5199,-4.6408,-4.6531,-4.6976,-4.7776,-4.7011,-4.6572,-4.6382,-4.5581,-4.5203,-4.5203,-4.5246,-4.4321,-4.2764,-4.2642,-4.1672,-4.0244,-4.0087,-4.0148,-4.0323,-4.0512,-4.0609,-4.0675,-4.0675,0.0,0.0,-4.0839,-4.0807,-4.0718,-4.0844,-4.0782,-4.0694,-4.0694,-4.0151,-3.935,-3.8357,-3.7622,-3.6904,-3.5915,-3.5676,-3.5435,-3.4635,-3.4248,-3.3846,-3.3044,-3.2788,-3.2432,-3.1553,-3.1541,-3.1312,-3.0338,-3.028,-3.03,-3.0211,-3.0211,-3.0227,-3.0314,-3.0325,0.0,-3.0613,-2.9966,-2.991,-3.076,-3.0178,-2.9756,-2.965,-3.1131,-3.0884,-2.8631,-2.9941,-3.0707,-3.0794,-3.0794,-3.0854,-3.0938,-3.0055,-3.0523,0.0,0.0,0.0,0.0,0.0,0.0,0.0,0.0,0.0,0.0,0.0,0.0,0.0,0.0,0.0,-2.9837,-3.1065,-3.2397,-3.3608,-3.4166,-3.5018,-3.6559,-3.7274,-3.8097,-3.9297,-4.0075,-4.0854,-4.1724,-4.2541,-4.3142,-4.3525,-4.3572,-4.3818,-4.4269,-4.4242,-4.5007,-4.6628,-4.6919,-4.7472,-4.8267,-4.7784,0.0,-4.6448,-4.5638,-4.5246,-4.5192,-4.5159,-4.4162,-4.2558,-4.2525,-4.1548,-4.0077,-4.0186,-4.0263,-4.031,-4.0336,-4.0427,-4.0542,-4.0542,-4.0602,-4.07,-4.0724,-4.0718,-4.07,-4.0724,-4.0718,0.0,-4.0694,-4.0093,-3.9228,-3.8334,-3.7486,-3.6662,-3.5818,-3.5529,-3.5226,-3.4352,-3.4087,-3.3765,-3.2916,-3.2714,-3.2432,-3.1618,-3.2031,-3.1954,-3.0433,-3.0796,-3.0987,-3.0287,-3.0211,-3.0267,-3.0447,-3.0467,-3.0546,-3.0737,-3.0611,-3.0616,-3.0779,-3.1291,-3.1274,-3.057,-3.086,-3.0812,-3.0329,-2.9946,-3.0109,-3.0799,-3.0795,-3.1167,-3.1836,-3.0941,-3.1117,0.0,0.0,0.0,0.0,0.0,0.0,0.0,0.0,0.0,0.0,0.0,-2.5845,-2.6556,0.0,-2.9786,-3.0531,-3.1258,-3.195,-3.2525,-3.2923,-3.3874,-3.5861,-3.6595,-3.7488,-3.8924,-3.9932,-4.0836,-4.1632,-4.2448,-4.2995,-4.3232,-4.3267,-4.3475,-4.3886,-4.3896,-4.4802,-4.6625,-4.6853,-4.7368,-4.8181,-4.7613,-4.6961,-4.6168,-4.5406,-4.5091,-4.5148,-4.5148,-4.4184,-4.2533,-4.1736,-4.0879,-4.0108,-4.0206,-4.0234,-4.0215,-4.0282,-4.0327,-4.0396,-4.0396,-4.0436,-4.0504,-4.0586,-4.0557,-4.0504,-4.0586,-4.0557,-4.0412,-3.9969,-3.9894,-3.9545,-3.7752,-3.7379,-3.7112,-3.5803,-3.5451,-3.5283,-3.484,-3.4675,-3.435,-3.3509,-3.3356,-3.2955,-3.1713,-3.1828,-3.1675,-3.0395,-3.0567,-3.0682,-3.0268,-3.0211,-3.028,-3.0477,-3.0501,-3.0575,-3.0772,-3.0801,-3.0801,-3.0801,-3.1622,-3.1702,-3.084,-3.1226,-3.1258,-3.0817,-3.0378,-3.0366,-3.08,-3.0798,-3.1014,-3.1446,-3.1446,-3.2148,0.0,0.0,0.0,0.0,0.0,0.0,0.0,-2.1433,-2.2351,-2.3558,-2.4925,-2.627,-2.7465,-2.8514,-2.9583,-3.0784,-3.1106,-3.119,-3.119,-3.1718,-3.2878,-3.5068,-3.5895,-3.6916,-3.854,-3.9644,-4.0673,-4.1632,-4.2321,-4.2812,-4.3049,-4.3086,-4.3214,-4.3495,-4.3562,-4.441,-4.6134,-4.6293,-4.6766,-4.7607,-4.6941,-4.637,-4.5889,-4.5129,-4.4919,-4.5129,-4.4838,-4.3827,-4.2311,-4.0864,-4.0234,-4.0186,-4.0196,-4.0166,-4.0137,-4.0244,-4.0291,-4.0301,-4.0301,-4.0301,-4.031,-4.043,-4.0398,-4.0319,-4.0438,-4.0398,-4.0148,-3.9451,-3.9719,-3.9668,-3.7345,-3.7264,-3.7379,-3.575,-3.5357,-3.5318,-3.5165,-3.4902,-3.4483,-3.3662,-3.3383,-3.2829,-3.1484,-3.1255,-3.1006,-3.0307,-3.0211,-3.0199,-3.0226,-3.0226,-3.0298,-3.0506,-3.0528,-3.0591,-3.0772,-3.0804,-3.0804,-3.0801,-3.1468,-3.1527,-3.084,-3.1478,-3.1529,-3.0817,-3.0809,-3.0796,-3.08,-3.08,-3.0898,-3.1075,-3.1953,-3.3105,-1.8897,-1.7349,-1.6685,-1.7838,-1.8207,-1.906,0.0,-2.269,-2.3263,-2.4926,-2.6204,-2.707,-2.7236,-2.8734,-3.004,-3.0209,-3.0768,-3.119,-3.119,-3.1258,-3.1907,-3.3485,-3.497,-3.6621,-3.8521,-3.9211,-4.013,-4.1596,-4.1887,-4.2268,-4.2902,-4.303,-4.3123,-4.3142,-4.316,-4.3615,-4.4546,-4.492,-4.5495,-4.6206,-4.5786,-4.5716,-4.5962,-4.5098,-4.4929,-4.5191,-4.366,-4.2406,-4.1392,-4.0488,-4.0127,-4.0127,-4.0176,-4.0196,-4.0186,-4.0206,-4.0253,-4.0301,-4.0301,-4.0301,-4.031,-4.031,-4.0301,-4.031,-4.031,-4.0301,-4.0282,-4.0186,-3.967,-3.8923,-3.7835,-3.7126,-3.6425,-3.5452,-3.5215,-3.5031,-3.4305,-3.3544,-3.2737,-3.1943,-3.114,-3.0574,-3.0383,-3.0338,-3.03,-3.0211,-3.0211,-3.0214,-3.0291,-3.0284,-3.0362,-3.0564,-3.0582,-3.0652,-3.0796,-3.0791,-3.0793,-3.0801,-3.0891,-3.0891,-3.0801,-3.0882,-3.0895,-3.0798,-3.0794,-3.08,-3.08,-3.08,-3.1192,-3.1973,-3.2851,-3.3357,-1.808,-1.77,-1.7992,-1.8161,-1.8822,-2.0034,-2.2372,-2.2905,-2.3449,-2.545,-2.6228,-2.6773,-2.7439,-2.8206,-2.9058,-2.9937,-3.0362,-3.0717,-3.114,-3.119,-3.1749,-3.3237,-3.4441,-3.5819,-3.7487,-3.847,-3.9554,-4.089,-4.1488,-4.2104,-4.2865,-4.3068,-4.3105,-4.2994,-4.3087,-4.3524,-4.4286,-4.451,-4.4801,-4.5168,-4.5046,-4.501,-4.5006,-4.4635,-4.4462,-4.4418,-4.3228,-4.2188,-4.13,-4.0529,-4.0225,-4.0225,-4.0196,-4.0215,-4.0253,-4.0253,-4.0291,-4.0301,-4.0301,-4.0301,-4.0301,-4.0301,-4.0301,-4.0301,-4.0301,-4.0301,-4.0091,-3.9069,-3.8897,-3.8572,-3.6719,-3.6366,-3.6271,-3.5411,-3.5209,-3.5114,-3.477,-3.4407,-3.3922,-3.3108,-3.2657,-3.2103,-3.1121,-3.135,-3.1334,-3.0407,-3.0267,-3.0266,-3.0296,-3.037,-3.0453,-3.0582,-3.0668,-3.0737,-3.0799,-3.0806,-3.0791,-3.0793,-3.0791,-3.0791,-3.0793,-3.0795,-3.0804,-3.0798,-3.0806,-3.0792,-3.08,-3.08,-3.125,-3.213,-3.2988,-3.367,-1.7731,-1.8053,-1.8685,-1.853,-1.9269,-2.045,-2.2088,-2.2456,-2.2986,-2.4821,-2.5297,-2.5704,-2.6822,-2.7281,-2.7993,-2.955,-2.9973,-3.0362,-3.1089,-3.119,-3.1749,-3.3237,-3.4005,-3.5063,-3.6761,-3.7911,-3.9031,-4.0112,-4.0963,-4.1778,-4.2594,-4.2978,-4.3105,-4.2957,-4.3105,-4.3433,-4.3958,-4.4015,-4.409,-4.4181,-4.4236,-4.4183,-4.4095,-4.406,-4.3743,-4.3172,-4.2586,-4.1845,-4.0996,-4.0502,-4.0291,-4.0263,-4.0244,-4.0253,-4.0301,-4.0301,-4.0301,-4.0301,-4.0301,-4.0301,-4.0301,-4.0301,-4.0301,-4.0301,-4.0301,-4.0129,-3.9671,-3.8419,-3.819,-3.7903,-3.6042,-3.5851,-3.5984,-3.5354,-3.5209,-3.5209,-3.5209,-3.4838,-3.4407,-3.4071,-3.3632,-3.2993,-3.2,-3.2144,-3.199,-3.0828,-3.0499,-3.0388,-3.0388,-3.05,-3.0599,-3.0656,-3.0739,-3.0801,-3.0801,-3.0808,-3.0795,-3.08,-3.0795,-3.0795,-3.08,-3.0791,-3.0798,-3.0798,-3.0801,-3.0809,-3.08,-3.08,-3.1368,-3.2461,-3.3103,-3.4001,-1.8023,-1.7731,-1.7592,-1.8916,-1.9302,-1.9672,-2.1044,-2.1353,-2.1647,-2.2695,-2.3216,-2.381,-2.4893,-2.6,-2.7232,-2.879,-2.9634,-3.0362,-3.1089,-3.119,-3.1749,-3.3237,-3.3549,-3.4527,-3.6782,-3.7739,-3.8554,-3.9369,-4.0236,-4.1069,-4.1887,-4.2686,-4.3104,-4.3086,-4.3104,-4.3123,-4.3141,-4.3141,-4.3141,-4.3141,-4.3141,-4.3286,-4.3518,-4.3456,-4.2707,-4.1459,-4.1453,-4.0938,-4.0155,-4.0263,-4.0263,-4.0206,-4.0263,-4.0301,-4.0301,-4.0301,-4.0301,-4.0301,-4.0301,-4.0301,-4.0301,-4.0301,-4.0301,-4.0301,-4.0301,-3.9709,-3.903,-3.8973,-3.7799,-3.6557,-3.6481,-3.5851,-3.5229,-3.5209,-3.5209,-3.5209,-3.5209,-3.3922,-3.3024,-3.3834,-3.2688,-3.1809,-3.2546,-3.2095,-3.1609,-3.1577,-3.1018,-3.0586,-3.0586,-3.0703,-3.0796,-3.0799,-3.0799,-3.0801,-3.0801,-3.0804,-3.0792,-3.0802,-3.0792,-3.0792,-3.0802,-3.08,-3.0806,-3.0798,-3.0807,-3.0795,-3.08,-3.08,-3.1679,-3.3357,-3.3396,-3.4314,-1.7801,-1.8312,-1.9029,-1.9515,-1.9873,-2.0333,-2.1231,-2.1577,-2.1958,-2.2881,-2.299,-2.3211,-2.405,-2.4696,-2.5715,-2.7557,-2.8749,-2.9864,-3.1104,-3.1729,-3.2448,-3.3478,-3.4271,-3.5247,-3.6614,-3.7186,-3.824,-4.0127,-4.0542,-4.1251,-4.2485,-4.2941,-4.3105,-4.2975,-4.3049,-4.3049,-4.2975,-4.3067,-4.3104,-4.3104,-4.3427,-4.3334,-4.2908,-4.317,-4.2486,-4.1135,-4.1171,-4.0809,-4.0176,-4.0253,-4.0291,-4.0263,-4.0301,-4.0301,-4.0301,-4.0301,-4.0301,-4.0301,-4.0301,-4.0301,-4.0301,-4.0301,-4.0301,-4.0301,-4.0301,-3.969,-3.8877,-3.8304,-3.7349,-3.6366,-3.5793,-3.5411,-3.5209,-3.5209,-3.5209,-3.5209,-3.5209,-3.4762,-3.4437,-3.4732,-3.435,-3.3872,-3.3605,-3.3873,-3.3993,-3.3587,-3.1856,-3.063,-3.0712,-3.0769,-3.0801,-3.0801,-3.0801,-3.0801,-3.0801,-3.0798,-3.0808,-3.0792,-3.0796,-3.0799,-3.0803,-3.0798,-3.0798,-3.0807,-3.0791,-3.0795,-3.08,-3.08,-3.1698,-3.3396,-3.3396,-3.4333,-1.8306,-1.9057,-1.9846,-2.0099,-2.0381,-2.0721,-2.1142,-2.1426,-2.1789,-2.2404,-2.2491,-2.2692,-2.3486,-2.4058,-2.5091,-2.7084,-2.8307,-2.9605,-3.1331,-3.2026,-3.2802,-3.399,-3.4788,-3.5662,-3.6733,-3.7073,-3.7895,-3.9534,-4.0071,-4.085,-4.2087,-4.2541,-4.285,-4.2995,-4.3068,-4.3068,-4.3013,-4.3012,-4.3068,-4.3142,-4.3133,-4.2795,-4.2171,-4.2131,-4.1509,-4.0537,-4.0613,-4.046,-4.0176,-4.0253,-4.0291,-4.0263,-4.0301,-4.0301,-4.0301,-4.0301,-4.0301,-4.0301,-4.0301,-4.0301,-4.0301,-4.0301,-4.0301,-4.0301,-4.0301,-3.969,-3.882,-3.7941,-3.712,-3.629,-3.543,-3.5209,-3.5209,-3.5209,-3.5209,-3.5209,-3.5209,-3.498,-3.4866,-3.5152,-3.498,-3.4694,-3.4464,-3.474,-3.4698,-3.3771,-3.2205,-3.1173,-3.1247,-3.0996,-3.0801,-3.0801,-3.0801,-3.0801,-3.0801,-3.0793,-3.0806,-3.0798,-3.0798,-3.0803,-3.0792,-3.0804,-3.0803,-3.0792,-3.0792,-3.0795,-3.08,-3.08,-3.1542,-3.2949,-3.324,-3.4177,-1.9434,-1.9798,-1.9941,-2.0606,-2.0763,-2.0763,-2.0763,-2.0927,-2.115,-2.1293,-2.1658,-2.2212,-2.3074,-2.4026,-2.5327,-2.7279,-2.8355,-2.9705,-3.1898,-3.2218,-3.2916,-3.4694,-3.5059,-3.5708,-3.7103,-3.7322,-3.7487,-3.7756,-3.893,-3.9969,-4.0809,-4.1592,-4.2357,-4.316,-4.3123,-4.3123,-4.3178,-4.3013,-4.3013,-4.3196,-4.2323,-4.1729,-4.1351,-4.048,-3.9933,-3.9693,-3.9739,-3.9919,-4.0174,-4.0263,-4.0301,-4.0263,-4.0291,-4.0301,-4.0301,-4.0301,-4.0301,-4.0301,-4.0301,-4.0301,-4.0301,-4.0301,-4.0301,-4.0301,-4.0301,-3.969,-3.8839,-3.7999,-3.7158,-3.6309,-3.5469,-3.5229,-3.5209,-3.5209,-3.5209,-3.5209,-3.5209,-3.4598,-3.4292,-3.5057,-3.4579,-3.4319,-3.5084,-3.4732,-3.3887,-3.2439,-3.2187,-3.2131,-3.2034,-3.131,-3.0801,-3.0801,-3.0801,-3.0801,-3.0801,-3.0793,-3.0806,-3.0798,-3.0799,-3.0803,-3.0792,-3.0804,-3.0804,-3.0794,-3.0794,-3.0795,-3.08,-3.08,-3.127,-3.2187,-3.3007,-3.3884,-1.9713,-1.966,-1.9523,-2.0249,-2.0318,-2.0209,-2.0209,-2.078,-2.1323,-2.1371,-2.1306,-2.1429,-2.2065,-2.3523,-2.5283,-2.7279,-2.9474,-3.1555,-3.3208,-3.3909,-3.4487,-3.5043,-3.5572,-3.609,-3.6519,-3.6841,-3.7189,-3.7542,-3.8931,-4.0294,-4.1541,-4.1956,-4.2394,-4.2958,-4.3068,-4.3104,-4.3141,-4.3068,-4.3105,-4.3196,-4.2376,-4.1643,-4.1001,-4.0278,-3.9781,-3.9477,-3.9395,-4.0002,-4.1034,-4.0502,-4.0645,-4.1113,-4.053,-4.0301,-4.0301,-4.0301,-4.0301,-4.0301,-4.0301,-4.0301,-4.0301,-4.0301,-4.0301,-4.0301,-4.0301,-3.969,-3.8954,-3.8725,-3.7608,-3.6443,-3.6233,-3.5679,-3.5209,-3.5209,-3.5209,-3.5209,-3.5209,-3.5037,-3.4961,-3.5171,-3.5037,-3.4982,-3.5302,-3.529,-3.4952,-3.402,-3.3423,-3.2599,-3.1308,-3.0938,-3.0801,-3.0801,-3.0801,-3.0801,-3.0801,-3.0793,-3.0802,-3.0806,-3.0801,-3.0791,-3.0792,-3.0795,-3.0796,-3.0799,-3.0799,-3.0799,-3.08,-3.08,-3.1581,-3.3064,-3.3299,-3.4216,-2.0903,-2.0751,-2.0414,-2.0911,-2.0949,-2.0873,-2.0873,-2.138,-2.1796,-2.169,-2.1709,-2.181,-2.2022,-2.3808,-2.5713,-2.7029,-2.9376,-3.1675,-3.3505,-3.412,-3.4717,-3.5573,-3.6017,-3.6339,-3.6536,-3.6779,-3.7075,-3.7469,-3.8468,-3.9771,-4.1374,-4.1604,-4.2117,-4.3014,-4.2759,-4.2596,-4.2577,-4.2868,-4.3068,-4.3196,-4.2029,-4.1279,-4.087,-3.9924,-3.9486,-3.9471,-3.9833,-4.0537,-4.1418,-4.1008,-4.1094,-4.1418,-4.0616,-4.0301,-4.0301,-4.0301,-4.0301,-4.0301,-4.0301,-4.0301,-4.0301,-4.0301,-4.0301,-4.0301,-4.0301,-3.9957,-3.9489,-3.9107,-3.8323,-3.7512,-3.7139,-3.6661,-3.6203,-3.5851,-3.5774,-3.566,-3.5286,-3.5209,-3.5209,-3.5209,-3.5209,-3.527,-3.5451,-3.5543,-3.5369,-3.4644,-3.3839,-3.2842,-3.1542,-3.1035,-3.0801,-3.0801,-3.0801,-3.0801,-3.0801,-3.0808,-3.0795,-3.08,-3.0798,-3.0809,-3.0792,-3.0798,-3.08,-3.08,-3.08,-3.08,-3.08,-3.1172,-3.1875,-3.2851,-3.3612,-3.4491,-2.2239,-2.2053,-2.1518,-2.1788,-2.1795,-2.1745,-2.1845,-2.197,-2.202,-2.1916,-2.2215,-2.2451,-2.232,-2.4379,-2.6293,-2.6908,-2.8934,-3.1219,-3.3489,-3.3796,-3.4394,-3.5969,-3.6146,-3.6274,-3.6641,-3.672,-3.6969,-3.7451,-3.7879,-3.8855,-4.0585,-4.0846,-4.1542,-4.2849,-4.2212,-4.1849,-4.1905,-4.2486,-4.2922,-4.3214,-4.1701,-4.095,-4.0903,-3.9708,-3.9303,-3.9539,-4.0441,-4.1087,-4.1485,-4.138,-4.1399,-4.1418,-4.0616,-4.0301,-4.0301,-4.0301,-4.0301,-4.0301,-4.0301,-4.0301,-4.0301,-4.0301,-4.0301,-4.0301,-4.0301,-4.0301,-4.0129,-3.9393,-3.9088,-3.8839,-3.8075,-3.7712,-3.7368,-3.6672,-3.6405,-3.6118,-3.5354,-3.5209,-3.5209,-3.5209,-3.5209,-3.5258,-3.5501,-3.5554,-3.5345,-3.4656,-3.378,-3.2934,-3.2174,-3.132,-3.0774,-3.0799,-3.0801,-3.0801,-3.0801,-3.0801,-3.0806,-3.0798,-3.0792,-3.0803,-3.0791,-3.0798,-3.08,-3.08,-3.08,-3.08,-3.08,-3.1563,-3.2051,-3.2304,-3.3827,-3.4647,-2.2057,-2.12,-2.0371,-2.1018,-2.0669,-2.0371,-2.1018,-2.0653,-2.0394,-2.1173,-2.1402,-2.1511,-2.1691,-2.4132,-2.6526,-2.7906,-3.004,-3.2311,-3.4602,-3.4929,-3.5053,-3.5352,-3.5387,-3.5428,-3.5492,-3.5793,-3.6406,-3.7415,-3.7879,-3.8501,-3.9443,-3.9889,-4.0476,-4.1257,-4.1047,-4.1267,-4.1976,-4.2032,-4.2505,-4.3358,-4.2302,-4.155,-4.104,-4.0389,-3.9825,-3.9446,-3.9771,-4.0493,-4.1369,-4.0769,-4.0903,-4.1418,-4.0616,-4.0301,-4.0301,-4.0301,-4.0301,-4.0301,-4.0301,-4.0301,-4.0301,-4.0301,-4.0301,-4.0301,-4.0301,-4.0301,-4.0263,-4.011,-3.9565,-3.8973,-3.882,-3.775,-3.6672,-3.6538,-3.5946,-3.5373,-3.5229,-3.5209,-3.5209,-3.5209,-3.5209,-3.5207,-3.5262,-3.535,-3.5193,-3.4458,-3.3695,-3.2885,-3.2032,-3.1177,-3.0671,-3.0796,-3.0801,-3.0801,-3.0801,-3.0801,-3.0801,-3.0804,-3.0806,-3.0799,-3.0801,-3.0795,-3.08,-3.08,-3.08,-3.08,-3.08,-3.0956,-3.1776,-3.3182,-3.3474,-3.4392,-2.2599,-2.1981,-2.1309,-2.1772,-2.1309,-2.0952,-2.1714,-2.1262,-2.0922,-2.1789,-2.1969,-2.2026,-2.2151,-2.4008,-2.5902,-2.7023,-2.9127,-3.1403,-3.368,-3.4352,-3.4766,-3.5145,-3.5197,-3.5042,-3.4645,-3.5156,-3.5799,-3.657,-3.7345,-3.8308,-3.9501,-4.0121,-4.0388,-4.0339,-4.0573,-4.0722,-4.0754,-4.1451,-4.2087,-4.2665,-4.2211,-4.1661,-4.0972,-4.0622,-4.009,-3.9496,-4.0253,-4.0906,-4.1418,-4.1065,-4.1151,-4.1418,-4.0616,-4.0301,-4.0301,-4.0301,-4.0301,-4.0301,-4.0301,-4.0301,-4.0301,-4.0301,-4.0301,-4.0301,-4.0301,-4.0301,-4.0301,-4.0301,-3.9995,-3.9565,-3.9126,-3.84,-3.757,-3.671,-3.5832,-3.5209,-3.5209,-3.5209,-3.5209,-3.5209,-3.5209,-3.5215,-3.5289,-3.5369,-3.5156,-3.4411,-3.3576,-3.2759,-3.1943,-3.1095,-3.0583,-3.0694,-3.07,-3.0712,-3.0799,-3.0801,-3.0804,-3.0791,-3.081,-3.0801,-3.0806,-3.0796,-3.08,-3.08,-3.08,-3.08,-3.08,-3.1718,-3.2576,-3.3416,-3.4333,-3.5192,-2.334,-2.3269,-2.3052,-2.3028,-2.2513,-2.2158,-2.2724,-2.2163,-2.1717,-2.2388,-2.2531,-2.2522,-2.247,-2.3836,-2.5247,-2.5988,-2.7885,-3.0058,-3.2334,-3.3197,-3.3889,-3.4611,-3.4697,-3.4473,-3.3906,-3.4451,-3.5099,-3.5759,-3.695,-3.8218,-3.9575,-4.0113,-4.0119,-3.9568,-3.9972,-3.9994,-3.9621,-4.0689,-4.1415,-4.1754,-4.1755,-4.1405,-4.0681,-4.064,-4.0208,-3.9557,-4.0672,-4.1189,-4.1246,-4.1246,-4.1246,-4.117,-4.0559,-4.0301,-4.0301,-4.0301,-4.0301,-4.0301,-4.0301,-4.0301,-4.0301,-4.0301,-4.0301,-4.0301,-4.0301,-4.0301,-4.0301,-4.0301,-4.0301,-4.0129,-3.947,-3.9011,-3.8304,-3.6615,-3.5698,-3.5209,-3.5209,-3.5209,-3.5209,-3.5209,-3.5209,-3.5231,-3.5348,-3.5369,-3.5167,-3.4615,-3.376,-3.2896,-3.2129,-3.1264,-3.0699,-3.0599,-3.062,-3.0694,-3.0796,-3.0801,-3.0806,-3.0795,-3.079,-3.0803,-3.0809,-3.0796,-3.08,-3.08,-3.08,-3.08,-3.08,-3.2362,-3.3221,-3.3435,-3.4997,-3.5817,-2.4002,-2.4427,-2.4958,-2.4248,-2.3689,-2.3333,-2.3335,-2.2246,-2.1384,-2.1867,-2.1966,-2.1912,-2.1732,-2.3522,-2.5247,-2.5988,-2.7454,-2.9299,-3.1576,-3.1955,-3.2283,-3.3024,-3.311,-3.3076,-3.3024,-3.3398,-3.4249,-3.569,-3.7202,-3.8272,-3.8768,-3.8758,-3.8742,-3.8802,-3.862,-3.8899,-3.9685,-3.9701,-4.0138,-4.0999,-4.0999,-4.0646,-4.0008,-4.0486,-4.0265,-3.9539,-4.0143,-4.0396,-4.0416,-4.0416,-4.0416,-4.0396,-4.032,-4.0301,-4.0301,-4.0301,-4.0301,-4.0301,-4.0301,-4.0301,-4.0301,-4.0301,-4.0301,-4.0301,-4.0301,-4.0301,-4.0301,-4.0301,-4.0301,-4.0282,-4.0205,-3.9011,-3.7406,-3.5725,-3.5267,-3.5209,-3.5209,-3.5209,-3.5209,-3.5209,-3.5209,-3.519,-3.5226,-3.5215,-3.5232,-3.5283,-3.4538,-3.3705,-3.2903,-3.205,-3.1237,-3.0578,-3.0669,-3.0796,-3.0799,-3.0801,-3.0801,-3.0801,-3.0806,-3.0799,-3.0799,-3.0794,-3.08,-3.08,-3.08,-3.08,-3.08,-3.1758,-3.2636,-3.3416,-3.4374,-3.5232,-2.4393,-2.4977,-2.561,-2.5296,-2.3981,-2.3008,-2.398,-2.2604,-2.1465,-2.2567,-2.281,-2.2888,-2.3117,-2.3537,-2.4354,-2.5848,-2.6626,-2.7989,-3.0748,-3.1524,-3.2076,-3.2817,-3.2904,-3.2731,-3.2283,-3.2796,-3.398,-3.6006,-3.6945,-3.781,-3.8655,-3.8658,-3.8609,-3.8575,-3.8481,-3.8579,-3.8905,-3.9351,-3.9752,-4.011,-4.0635,-4.052,-3.9855,-4.0265,-4.0104,-3.9526,-3.9892,-4.0157,-4.0301,-4.0301,-4.0301,-4.0301,-4.0301,-4.0301,-4.0301,-4.0301,-4.0301,-4.0301,-4.0301,-4.0301,-4.0301,-4.0301,-4.0301,-4.0301,-4.0301,-4.0301,-4.0301,-4.0301,-4.0301,-4.0186,-3.9652,-3.8247,-3.668,-3.5477,-3.5209,-3.5209,-3.5209,-3.5209,-3.5209,-3.5209,-3.5209,-3.5209,-3.5209,-3.5209,-3.5043,-3.4615,-3.4251,-3.3734,-3.2898,-3.2084,-3.148,-3.1185,-3.0838,-3.0662,-3.0794,-3.0801,-3.0804,-3.0793,-3.0802,-3.0794,-3.0806,-3.0794,-3.1052,-3.1563,-3.1582,-3.1836,-3.2362,-3.3241,-3.3846,-3.4198,-3.5076,-3.566,-2.4909,-2.5631,-2.6332,-2.6332,-2.4953,-2.3808,-2.4699,-2.3408,-2.2296,-2.33,-2.3522,-2.3622,-2.3906,-2.3847,-2.4209,-2.562,-2.6206,-2.7368,-2.9972,-3.0782,-3.1472,-3.2455,-3.2576,-3.2369,-3.1852,-3.2472,-3.3677,-3.5561,-3.6173,-3.7023,-3.8288,-3.834,-3.8291,-3.8208,-3.8397,-3.835,-3.8084,-3.8855,-3.9256,-3.9272,-3.9887,-3.992,-3.9491,-3.9738,-3.9727,-3.9508,-3.9743,-4.0027,-4.0301,-4.0301,-4.0301,-4.0301,-4.0301,-4.0301,-4.0301,-4.0301,-4.0301,-4.0301,-4.0301,-4.0301,-4.0301,-4.0301,-4.0301,-4.0301,-4.0301,-4.0301,-4.0301,-4.0301,-4.011,-3.9709,-3.8839,-3.7551,-3.6271,-3.5411,-3.5209,-3.5209,-3.5209,-3.5209,-3.5209,-3.5209,-3.5209,-3.5209,-3.5209,-3.5209,-3.5018,-3.4445,-3.435,-3.4044,-3.3196,-3.2623,-3.2129,-3.1654,-3.1138,-3.0804,-3.0748,-3.0772,-3.0804,-3.0795,-3.0802,-3.0911,-3.1178,-3.1184,-3.1598,-3.2461,-3.248,-3.2792,-3.3396,-3.4276,-3.4705,-3.4725,-3.5582,-3.6285,-2.5642,-2.656,-2.7387,-2.7387,-2.6975,-2.6345,-2.5566,-2.4759,-2.4095,-2.3847,-2.3795,-2.3732,-2.3455,-2.4436,-2.5281,-2.5298,-2.6412,-2.7799,-2.9299,-2.9523,-3.0093,-3.1627,-3.18,-3.18,-3.18,-3.2472,-3.3206,-3.3975,-3.4757,-3.5881,-3.7426,-3.7511,-3.7511,-3.7511,-3.8154,-3.8125,-3.7323,-3.8047,-3.8449,-3.851,-3.8449,-3.8533,-3.8707,-3.8781,-3.9059,-3.9495,-3.9648,-3.9929,-4.0301,-4.0301,-4.0301,-4.0301,-4.0301,-4.0301,-4.0301,-4.0301,-4.0301,-4.0301,-4.0301,-4.0301,-4.0301,-4.0301,-4.0301,-4.0301,-4.0301,-4.0301,-4.0301,-4.0301,-3.9671,-3.882,-3.7941,-3.712,-3.6271,-3.5411,-3.5209,-3.5209,-3.5209,-3.5209,-3.5209,-3.5209,-3.5209,-3.5209,-3.5209,-3.5209,-3.5209,-3.519,-3.519,-3.4904,-3.409,-3.3975,-3.3359,-3.1776,-3.1596,-3.1314,-3.066,-3.0712,-3.0801,-3.0801,-3.0806,-3.1188,-3.2046,-3.2082,-3.25,-3.3377,-3.3396,-3.3396,-3.3396,-3.4276,-3.4705,-3.4725,-3.5582,-3.6911,-2.5727,-2.6049,-2.6301,-2.6913,-2.6005,-2.5034,-2.5319,-2.4355,-2.351,-2.3984,-2.4504,-2.4981,-2.5262,-2.5637,-2.621,-2.7068,-2.7425,-2.8111,-2.9631,-3.0328,-3.1027,-3.2022,-3.2144,-3.2055,-3.1837,-3.2228,-3.2897,-3.392,-3.4451,-3.5522,-3.7404,-3.7414,-3.7607,-3.8172,-3.848,-3.8449,-3.8065,-3.8334,-3.843,-3.837,-3.8401,-3.8401,-3.8437,-3.8494,-3.873,-3.909,-3.9339,-3.9648,-4.0038,-4.0215,-4.0301,-4.0301,-4.0301,-4.0301,-4.0301,-4.0301,-4.0301,-4.0301,-4.0301,-4.0301,-4.0301,-4.0301,-4.0301,-4.0301,-4.0301,-4.0301,-4.0186,-3.9584,-3.9221,-3.8667,-3.7245,-3.6691,-3.6271,-3.5411,-3.5209,-3.5209,-3.5209,-3.5209,-3.5209,-3.5209,-3.5209,-3.5209,-3.5209,-3.5209,-3.5209,-3.5209,-3.5209,-3.5114,-3.4846,-3.4331,-3.38,-3.329,-3.2787,-3.1979,-3.0715,-3.0633,-3.0959,-3.1641,-3.169,-3.2071,-3.2943,-3.2989,-3.3407,-3.4276,-3.4295,-3.4588,-3.5172,-3.5446,-3.5896,-3.6482,-3.6755,-3.7809,-2.5891,-2.5858,-2.5917,-2.6756,-2.5893,-2.4968,-2.5468,-2.4524,-2.3768,-2.4561,-2.5093,-2.558,-2.6242,-2.6279,-2.6453,-2.7241,-2.7388,-2.7935,-2.9523,-3.0421,-3.132,-3.2346,-3.2487,-3.2403,-3.2197,-3.2369,-3.2848,-3.3669,-3.3939,-3.492,-3.6945,-3.6974,-3.7293,-3.8099,-3.8413,-3.8238,-3.7505,-3.8107,-3.8223,-3.7853,-3.8176,-3.8338,-3.8338,-3.8338,-3.8538,-3.891,-3.9152,-3.9507,0.0,-4.0186,-4.0301,-4.0301,-4.0301,-4.0301,-4.0301,-4.0301,-4.0301,-4.0301,-4.0301,-4.0301,-4.0301,-4.0301,-4.0072,-3.9804,-3.9804,-4.0034,-4.011,-3.926,-3.8763,-3.8209,-3.6844,-3.6252,-3.587,-3.5335,-3.5209,-3.5209,-3.5209,-3.5209,-3.5209,-3.5209,-3.5209,-3.5209,-3.5209,-3.5209,-3.5209,-3.5209,-3.5209,-3.5209,-3.5209,-3.4751,-3.4331,-3.4033,-3.3592,-3.2814,-3.1579,-3.1542,-3.1854,-3.248,-3.255,-3.2985,-3.3842,-3.3885,-3.4303,-3.5174,-3.5193,-3.5465,-3.5992,-3.6324,-3.6931,-3.7809,-3.8102,-3.8804,0.0,-2.6023,-2.6115,-2.6935,-2.6564,-2.5986,-2.5986,-2.5279,0.0,-2.5569,-2.5642,-2.5817,-2.656,-2.6501,-2.6337,-2.6391,-2.6787,-2.7643,-2.9205,-3.0151,-3.1204,-3.2634,-3.2811,-3.2811,-3.2763,-3.2795,-3.2952,-3.3291,-3.3321,-3.4208,-3.6197,-3.6248,-3.6597,-3.7474,-3.7966,-3.7507,-3.6012,-3.7483,-3.7853,-3.7108,-3.7843,-3.8274,-3.8366,-3.8257,-3.8446,-3.8868,-3.9099,-3.9439,-3.9873,-4.0176,-4.0301,-4.0301,-4.0301,-4.0301,-4.0301,-4.0301,-4.0301,-4.0301,-4.0301,-4.0301,-4.0282,-4.0225,-3.969,-3.9088,-3.903,-3.9565,-4.0034,-3.9145,-3.8323,-3.7502,-3.6634,-3.5812,-3.5209,-3.5209,-3.5209,-3.5209,-3.5209,-3.5209,-3.5209,-3.5209,-3.5209,-3.5209,-3.5209,-3.5209,-3.5209,-3.5209,-3.5209,-3.5209,-3.5209,-3.5209,-3.4904,-3.4167,-3.409,-3.3819,-3.3115,-3.3141,-3.3219,-3.3281,-3.3409,-3.3884,-3.4757,-3.4786,-3.5165,-3.5971,-3.6051,-3.609,-3.609,-3.697,-3.7848,-3.8708,-3.9449,-3.9839,-2.7407,0.0,-2.6391,-2.7208,-2.7149,-2.6881,0.0,-2.6706,-2.6606,-2.6785,-2.7177,-2.7525,-2.77,-2.7569,-2.7624,-2.8235,-2.8735,-2.9386,-3.0377,-3.1744,-3.2679,-3.2791,-3.3032,-3.2986,-3.247,-3.2876,-3.3232,-3.3288,-3.3536,-3.4454,-3.6211,-3.5622,-3.5933,-3.7456,-3.6845,-3.6334,-3.5994,-3.6919,-3.7257,-3.7027,-3.781,-3.8225,-3.8241,-3.8207,-3.829,-3.8462,-3.898,-3.9282,-3.9494,-4.0058,-4.0301,-4.0301,-4.0301,-4.0301,-4.0301,-4.0301,-4.0301,-4.0301,-4.0301,-4.0301,-4.0186,-3.9527,-3.9623,-3.9862,-3.9202,-3.9145,-3.9126,-3.8247,-3.7865,-3.7349,-3.5897,-3.5354,-3.5209,-3.5209,-3.5209,-3.5209,-3.5209,-3.5209,-3.5209,-3.5209,-3.5209,-3.5209,-3.5209,-3.5209,-3.5209,-3.5209,-3.5209,-3.5209,-3.5209,-3.5209,-3.5133,-3.4942,-3.4923,-3.4863,-3.4665,-3.3664,-3.3373,-3.4155,-3.4276,-3.4711,-3.5583,-3.5672,-3.5798,-3.6002,-3.6654,-3.6989,-3.7009,-3.7869,-3.8728,-3.9527,-3.9702,-4.0151,-2.8949,-2.7962,-2.7046,-2.7478,-2.7504,-2.743,-2.743,-2.7358,-2.7398,-2.7768,-2.7969,-2.8207,-2.8579,-2.859,-2.8639,-2.8955,-2.9635,-3.0435,-3.1324,-3.2528,-3.3229,-3.3063,-3.3184,-3.3214,-3.3016,-3.3335,-3.3522,-3.3522,-3.3694,-3.4357,-3.5642,-3.5219,-3.5351,-3.6278,-3.5714,-3.5402,-3.5443,-3.6524,-3.6681,-3.591,-3.7466,-3.8009,-3.7665,-3.8028,-3.8043,-3.7792,-3.835,-3.8651,-3.8796,-3.9448,-3.9938,-4.0301,-4.0301,-4.0301,-4.0301,-4.0301,-4.0301,-4.0244,-3.9843,-3.9451,-3.903,-3.8553,-3.8476,-3.8544,-3.8438,-3.84,-3.8381,-3.8323,-3.8018,-3.7406,-3.6118,-3.5488,-3.5209,-3.5209,-3.5209,-3.5209,-3.5209,-3.5209,-3.5209,-3.5209,-3.5209,-3.5209,-3.5209,-3.5209,-3.5209,-3.5209,-3.5209,-3.5209,-3.5209,-3.5209,-3.5209,-3.5209,-3.5209,-3.5209,-3.5209,-3.4513,-3.4334,-3.4877,-3.5037,-3.5331,-3.5822,-3.5951,-3.6187,-3.6591,-3.7456,-3.8082,-3.8453,-3.8921,-3.9585,-4.0405,-4.0405,-4.0659,-3.0324,-2.9309,-2.823,-2.8128,-2.809,-2.809,-2.809,-2.7946,-2.8013,-2.8704,-2.8583,-2.8583,-2.9433,-2.9438,-2.9371,-2.9421,-3.0265,-3.1246,-3.2229,-3.2944,-3.3364,-3.3306,-3.335,-3.3465,-3.3694,-3.3762,-3.3807,-3.3807,-3.3807,-3.4156,-3.4968,-3.4876,-3.4848,-3.4902,-3.472,-3.4604,-3.4608,-3.595,-3.5946,-3.4643,-3.6798,-3.7538,-3.7013,-3.772,-3.7734,-3.7303,-3.7711,-3.8041,-3.8308,-3.8792,-3.9499,-4.0301,-4.0301,-4.0301,-4.0301,-4.0301,-4.0301,-4.0186,-3.9298,-3.8438,-3.7674,-3.7559,-3.7139,-3.6787,-3.7349,-3.7597,-3.7846,-3.8591,-3.8266,-3.7502,-3.671,-3.5851,-3.5209,-3.5209,-3.5209,-3.5209,-3.5209,-3.5209,-3.5209,-3.5209,-3.5209,-3.5209,-3.5209,-3.5209,-3.5209,-3.5209,-3.5209,-3.5209,-3.5209,-3.5209,-3.5209,-3.5209,-3.5209,-3.5209,-3.5209,-3.5304,-3.5364,-3.5364,-3.5581,-3.5722,-3.5814,-3.6041,-3.6542,-3.73,-3.8277,-3.9118,-3.98,-3.9937,-4.0385,-4.1109,-4.1109,-4.1109,-3.0386,-3.0593,-3.0677,-3.0056,-2.987,-2.9818,-2.9818,-2.9791,-2.9813,-2.9928,-2.9639,-2.9673,-3.072,-2.989,-2.9565,-3.1125,-3.1893,-3.2585,-3.3423,-3.3648,-3.3625,-3.3335,-3.3536,-3.3638,-3.3408,-3.3638,-3.3807,-3.3807,-3.3807,-3.4156,-3.4968,-3.4344,-3.4275,-3.4883,-3.4158,-3.3759,-3.3702,-3.4543,-3.4842,-3.4609,-3.5675,-3.6453,-3.6995,-3.7122,-3.7484,-3.8023,-3.7937,-3.8331,-3.9026,-3.894,-3.9452,-4.0301,-4.0301,-4.0301,-4.0301,-4.0301,-4.0301,-4.0186,-3.9298,-3.8438,-3.7597,-3.6901,-3.7063,-3.7406,-3.6844,-3.7158,-3.7731,-3.7865,-3.7789,-3.7502,-3.671,-3.5851,-3.5209,-3.5209,-3.5209,-3.5209,-3.5209,-3.5209,-3.5209,-3.5209,-3.5209,-3.5209,-3.5209,-3.5209,-3.5209,-3.5209,-3.5209,-3.5209,-3.5209,-3.5209,-3.5209,-3.5209,-3.5209,-3.5209,-3.5209,-3.5215,-3.5231,-3.5231,-3.5532,-3.576,-3.5877,-3.6603,-3.7106,-3.7292,-3.8821,-3.9683,-3.98,-4.0542,-4.0973,-4.1109,-4.1109,-4.1109,-3.0268,-2.9914,-2.9652,-3.0733,-3.1273,-3.1441,-3.1009,-3.1243,-3.1427,-3.0987,-3.0671,-3.0615,-3.1099,-3.0998,-3.1366,-3.301,-3.3361,-3.3484,-3.351,-3.3522,-3.3465,-3.3321,-3.3437,-3.3536,-3.3583,-3.3707,-3.3623,-3.3183,-3.355,-3.377,-3.3702,-3.377,-3.3918,-3.4205,-3.3802,-3.3549,-3.3452,-3.3788,-3.3954,-3.3973,-3.5206,-3.6001,-3.6363,-3.6796,-3.7194,-3.7535,-3.7304,-3.7472,-3.791,-3.8162,-3.8784,-3.9632,-4.011,-4.0301,-4.0244,-3.9766,-3.9298,-3.8839,-3.8438,-3.7445,-3.6375,-3.6462,-3.6424,-3.6375,-3.6462,-3.6748,-3.7139,-3.7578,-3.7387,-3.6967,-3.6596,-3.5851,-3.5209,-3.5209,-3.5209,-3.5209,-3.5209,-3.5209,-3.5209,-3.5209,-3.5209,-3.5209,-3.5209,-3.5209,-3.5209,-3.5209,-3.5209,-3.5209,-3.5209,-3.5209,-3.5209,-3.5209,-3.5209,-3.5209,-3.5209,-3.5209,-3.5231,-3.5304,-3.5516,-3.5717,-3.5833,-3.7167,-3.7931,-3.8,-3.9642,-4.0503,-4.0503,-4.0894,-4.1109,-4.1109,-4.1109,-4.1109,-3.0204,-2.9379,-2.8798,-3.0784,-3.1393,-3.1587,-3.1766,-3.2114,-3.2279,-3.1866,-3.1781,-3.1722,-3.1514,-3.2104,-3.2987,-3.4143,-3.4274,-3.4018,-3.3494,-3.3422,-3.3422,-3.3422,-3.3422,-3.3508,-3.378,-3.3807,-3.3476,-3.2656,-3.3348,-3.3458,-3.2638,-3.3366,-3.3739,-3.3605,-3.3605,-3.3534,-3.3393,-3.3393,-3.3393,-3.3411,-3.4661,-3.5442,-3.5804,-3.6236,-3.6651,-3.6973,-3.6519,-3.6609,-3.7118,-3.7507,-3.8317,-3.9355,-3.9804,-3.9862,-3.9623,-3.8935,-3.8151,-3.7426,-3.7426,-3.6432,-3.5305,-3.5984,-3.5736,-3.5316,-3.5984,-3.6194,-3.6309,-3.6948,-3.668,-3.6233,-3.6443,-3.5851,-3.5209,-3.5209,-3.5209,-3.5209,-3.5209,-3.5209,-3.5209,-3.5209,-3.5209,-3.5209,-3.5209,-3.5209,-3.5209,-3.5209,-3.5209,-3.5209,-3.5209,-3.5209,-3.5209,-3.5209,-3.5373,-3.5488,-3.5488,-3.5488,-3.5457,-3.5355,-3.5506,-3.566,-3.5767,-3.7527,-3.842,-3.8273,-4.0132,-4.0914,-4.0504,-4.0699,-4.0797,-4.0797,-4.0797,-4.0894,-3.0287,-3.0304,-3.0138,-3.0265,-2.9168,-2.8881,-3.1993,-3.2079,-3.1706,-3.247,-3.3113,-3.3258,-3.2462,-3.2817,-3.3358,-3.3786,-3.4049,-3.4099,-3.382,-3.3762,-3.3762,-3.3762,-3.3762,-3.3762,-3.3807,-3.3807,-3.3476,-3.2656,-3.3348,-3.3458,-3.2638,-3.3366,-3.3739,-3.3605,-3.3605,-3.3534,-3.3393,-3.3393,-3.3393,-3.3393,-3.352,-3.4353,-3.5768,-3.508,-3.5584,-3.6937,-3.5924,-3.641,-3.7897,-3.7694,-3.8632,-4.0129,-3.9374,-3.861,-3.7884,-3.7827,-3.7273,-3.6596,-3.6596,-3.5984,-3.5209,-3.5259,-3.5248,-3.5209,-3.5259,-3.5278,-3.5305,-3.5362,-3.5343,-3.5469,-3.629,-3.5851,-3.5209,-3.5209,-3.5209,-3.5209,-3.5209,-3.5209,-3.5209,-3.5209,-3.5209,-3.5209,-3.5209,-3.5209,-3.5209,-3.5209,-3.5209,-3.5209,-3.5209,-3.5209,-3.5209,-3.5209,-3.5927,-3.6405,-3.6405,-3.6405,-3.6069,-3.5264,-3.5451,-3.5621,-3.5698,-3.7506,-3.8114,-3.7316,-3.9793,-4.0328,-3.8786,-3.9527,-3.9897,-3.9897,-3.9897,-4.0327,-3.0397,-3.0095,-2.9821,-3.0867,-3.0184,-2.9862,-3.2206,-3.3268,-3.3719,-3.3547,-3.411,-3.434,-3.3324,-3.3873,-3.4434,-3.4262,-3.4461,-3.4526,-3.4272,-3.4237,-3.4196,-3.4055,-3.4049,-3.3985,-3.382,-3.3807,-3.3476,-3.2656,-3.2876,-3.2913,-3.2619,-3.2894,-3.324,-3.3657,-3.3615,-3.3549,-3.3466,-3.3408,-3.3393,-3.3393,-3.3393,-3.3991,-3.5025,-3.4736,-3.5204,-3.6198,-3.5471,-3.5623,-3.6422,-3.7082,-3.788,-3.8707,-3.8926,-3.8801,-3.8381,-3.7349,-3.6748,-3.6424,-3.587,-3.5469,-3.5209,-3.5209,-3.5209,-3.5209,-3.5209,-3.5209,-3.5209,-3.5209,-3.5209,-3.5286,-3.5602,-3.545,-3.5209,-3.5209,-3.5209,-3.5209,-3.5209,-3.5209,-3.5209,-3.5209,-3.5209,-3.5209,-3.5209,-3.5209,-3.5209,-3.5209,-3.5209,-3.5209,-3.5209,-3.566,-3.6003,-3.6003,-3.6757,-3.7254,-3.7254,-3.7254,-3.6891,-3.6061,-3.5753,-3.5614,-3.5631,-3.7472,-3.8116,-3.7285,-3.9268,-3.9722,-3.8591,-3.8903,-3.906,-3.9079,-3.9566,-3.9976,-3.0847,-3.0503,-3.0268,-3.1709,-3.175,-3.1694,-3.286,-3.4006,-3.4732,-3.4445,-3.4557,-3.4577,-3.4102,-3.4391,-3.4687,-3.4515,-3.4733,-3.4821,-3.454,-3.4508,-3.4439,-3.4215,-3.3974,-3.3821,-3.3797,-3.3568,-3.3201,-3.2638,-3.2839,-3.2858,-3.2601,-3.2839,-3.3198,-3.368,-3.3629,-3.3563,-3.3509,-3.3437,-3.3393,-3.3393,-3.3393,-3.3828,-3.4591,-3.4353,-3.4645,-3.5385,-3.4844,-3.4932,-3.5497,-3.6445,-3.7022,-3.7382,-3.7981,-3.8037,-3.7655,-3.65,-3.608,-3.6003,-3.5411,-3.5209,-3.5209,-3.5209,-3.5209,-3.5209,-3.5209,-3.5209,-3.5209,-3.5209,-3.5209,-3.5209,-3.5209,-3.5209,-3.5209,-3.5209,-3.5209,-3.5209,-3.5209,-3.5209,-3.5209,-3.5209,-3.5209,-3.5209,-3.5209,-3.5209,-3.5209,-3.5209,-3.5209,-3.5305,-3.5583,-3.6137,-3.6691,-3.7226,-3.7789,-3.8113,-3.8113,-3.8113,-3.7655,-3.6576,-3.6149,-3.5844,-3.5614,-3.7199,-3.7702,-3.687,-3.8795,-3.927,-3.8198,-3.8726,-3.8845,-3.8611,-3.9429,-3.98,-3.1686,-3.1788,-3.1892,-3.2684,-3.347,-3.4014,-3.4014,-3.4014,-3.4254,-3.5057,-3.4416,-3.396,-3.4737,-3.4263,-3.3895,-3.4419,-3.4733,-3.4803,-3.454,-3.4508,-3.4431,-3.4215,-3.3503,-3.321,-3.3723,-3.3073,-3.2601,-3.2601,-3.333,-3.344,-3.2656,-3.3366,-3.3762,-3.3698,-3.3647,-3.3563,-3.3509,-3.3437,-3.3393,-3.3393,-3.3393,-3.3828,-3.457,-3.3755,-3.3828,-3.4567,-3.4036,-3.4441,-3.5515,-3.5851,-3.6188,-3.6519,-3.65,-3.5965,-3.5209,-3.5209,-3.5209,-3.5209,-3.5209,-3.5209,-3.5209,-3.5209,-3.5209,-3.5209,-3.5209,-3.5209,-3.5209,-3.5209,-3.5209,-3.5209,-3.5209,-3.5209,-3.5209,-3.5209,-3.5209,-3.5209,-3.5209,-3.5209,-3.5209,-3.5209,-3.5209,-3.5209,-3.5209,-3.5209,-3.5209,-3.5209,-3.5209,-3.5526,-3.6405,-3.6519,-3.7149,-3.8839,-3.9011,-3.9011,-3.9011,-3.9011,-3.8304,-3.6634,-3.665,-3.6395,-3.564,-3.6637,-3.6809,-3.5948,-3.8469,-3.8969,-3.731,-3.8975,-3.9351,-3.8591,-3.9409,-3.98,-3.0314,-3.1015,-3.1876,-3.2027,-3.3519,-3.4959,-3.487,-3.5324,-3.5832,-3.6061,-3.5397,-3.4767,-3.4879,-3.4819,-3.4769,-3.4774,-3.4963,-3.5089,-3.4999,-3.499,-3.4689,-3.3873,-3.4117,-3.3802,-3.245,-3.2667,-3.2798,-3.2614,-3.2302,-3.2504,-3.3403,-3.3115,-3.3206,-3.3762,-3.3657,-3.3591,-3.3577,-3.3452,-3.3393,-3.3393,-3.3393,-3.352,-3.3755,-3.352,-3.3538,-3.3755,-3.3604,-3.3922,-3.4672,-3.5754,-3.6662,-3.7292,-3.671,-3.6347,-3.6042,-3.543,-3.5209,-3.5209,-3.5209,-3.5209,-3.5209,-3.5209,-3.5209,-3.5209,-3.5209,-3.5209,-3.5209,-3.5209,-3.5209,-3.5209,-3.5209,-3.5209,-3.5209,-3.5209,-3.5209,-3.5209,-3.5209,-3.5209,-3.5209,-3.5209,-3.5209,-3.5209,-3.5209,-3.5209,-3.5411,-3.6023,-3.6118,-3.6634,-3.8066,-3.8266,-3.8677,-3.9804,-3.99,-3.99,-3.99,-3.99,-3.9441,-3.8343,-3.8464,-3.7963,-3.656,-3.6914,-3.7313,-3.772,-3.85,-3.8354,-3.7306,-3.7796,-3.7606,-3.6813,-3.8277,-3.8962,-3.1486,-3.2448,-3.3378,-3.3277,-3.4583,-3.5873,-3.5758,-3.5851,-3.5984,-3.5984,-3.5564,-3.5157,-3.5046,-3.5115,-3.5149,-3.5046,-3.5115,-3.5209,-3.5209,-3.4923,-3.4437,-3.3694,-3.3505,-3.3138,-3.2414,-3.2512,-3.2829,-3.3308,-3.2822,-3.2939,-3.3904,-3.3414,-3.3311,-3.377,-3.3671,-3.3605,-3.3605,-3.3466,-3.3393,-3.3393,-3.3393,-3.3393,-3.3393,-3.3393,-3.3393,-3.3411,-3.3506,-3.3802,-3.4281,-3.5262,-3.6083,-3.6655,-3.6175,-3.5984,-3.5927,-3.5392,-3.5209,-3.5209,-3.5209,-3.5209,-3.5209,-3.5209,-3.5209,-3.5209,-3.5209,-3.5209,-3.5209,-3.5209,-3.5209,-3.5209,-3.5209,-3.5209,-3.5209,-3.5209,-3.5209,-3.5209,-3.5209,-3.5209,-3.5209,-3.5209,-3.5209,-3.5305,-3.566,-3.5717,-3.6003,-3.6852,-3.7264,-3.7856,-3.8877,-3.9298,-3.9709,-4.0244,-4.0301,-4.0301,-4.0301,-4.0301,-3.9919,-3.9069,-3.9157,-3.8838,-3.7939,-3.7746,-3.791,-3.8492,-3.8839,-3.8617,-3.7788,-3.8124,-3.7681,-3.6558,-3.7947,-3.8591,-3.3865,-3.4851,-3.5491,-3.5479,-3.6093,-3.6653,-3.6542,-3.5832,-3.5209,-3.5209,-3.5209,-3.5209,-3.5209,-3.5209,-3.5209,-3.5209,-3.5209,-3.5209,-3.5209,-3.456,-3.3988,-3.3664,-3.2346,-3.1908,-3.3103,-3.2567,-3.2763,-3.4282,-3.4213,-3.414,-3.4215,-3.4011,-3.3855,-3.3847,-3.3712,-3.3633,-3.3605,-3.3481,-3.3411,-3.3393,-3.3393,-3.3393,-3.3393,-3.3393,-3.3393,-3.3408,-3.3684,-3.3948,-3.4242,-3.4551,-3.4879,-3.5208,-3.5204,-3.5201,-3.5209,-3.5209,-3.5209,-3.5209,-3.5209,-3.5209,-3.5209,-3.5209,-3.5209,-3.5209,-3.5209,-3.5209,-3.5209,-3.5209,-3.5209,-3.5209,-3.5209,-3.5209,-3.5209,-3.5209,-3.5209,-3.5209,-3.5209,-3.5209,-3.5209,-3.5209,-3.5209,-3.5469,-3.6347,-3.65,-3.6806,-3.7693,-3.8553,-3.9126,-3.9126,-3.9804,-4.0301,-4.0301,-4.0301,-4.0301,-4.0301,-4.0301,-3.9957,-3.9164,-3.9125,-3.9257,-3.9501,-3.8835,-3.8546,-3.8733,-3.9352,-3.9287,-3.8502,-3.921,-3.8734,-3.7202,-3.8141,-3.8591,-3.1717,-3.2722,-3.4007,-3.4453,-3.5577,-3.655,-3.6509,-3.5832,-3.5209,-3.5209,-3.5209,-3.5209,-3.5209,-3.5209,-3.5209,-3.5209,-3.5209,-3.5209,-3.5209,-3.5057,-3.4697,-3.3996,-3.3614,-3.3187,-3.2655,-3.2437,-3.2685,-3.3496,-3.3519,-3.3768,-3.4394,-3.4386,-3.4279,-3.4124,-3.4036,-3.3855,-3.3605,-3.352,-3.3452,-3.3393,-3.3393,-3.3393,-3.3393,-3.3393,-3.3393,-3.3408,-3.3684,-3.3948,-3.4211,-3.4489,-3.4851,-3.52,-3.5189,-3.5196,-3.5209,-3.5209,-3.5209,-3.5209,-3.5209,-3.5209,-3.5209,-3.5209,-3.5209,-3.5209,-3.5209,-3.5209,-3.5209,-3.5209,-3.5209,-3.5209,-3.5209,-3.5209,-3.5209,-3.5209,-3.5209,-3.5209,-3.5209,-3.5209,-3.5209,-3.5209,-3.5209,-3.5469,-3.6347,-3.65,-3.7016,-3.8495,-3.947,-4.0014,-4.0014,-4.0186,-4.0301,-4.0301,-4.0301,-4.0301,-4.0301,-4.0301,-4.0225,-4.0034,-4.0128,-4.0246,-4.0404,-3.8986,-3.8932,-4.0503,-3.9379,-3.8686,-3.8505,-3.8,-3.7253,-3.6315,-3.7819,-3.8544,-3.2401,-3.3278,-3.4124,-3.4754,-3.5444,-3.5956,-3.5895,-3.5526,-3.5209,-3.5209,-3.5209,-3.5209,-3.5209,-3.5209,-3.5209,-3.5209,-3.5209,-3.5209,-3.5209,-3.4866,-3.4312,-3.349,-3.3032,-3.2562,-3.1979,-3.2295,-3.2843,-3.3581,-3.3904,-3.4241,-3.4665,-3.4561,-3.4416,-3.4209,-3.4239,-3.4037,-3.3605,-3.3638,-3.3555,-3.3393,-3.3393,-3.3393,-3.3393,-3.3393,-3.3393,-3.3411,-3.3549,-3.3823,-3.4201,-3.4345,-3.4684,-3.5101,-3.5164,-3.5198,-3.5196,-3.5201,-3.5209,-3.5209,-3.5209,-3.5209,-3.5209,-3.5209,-3.5209,-3.5209,-3.5209,-3.5209,-3.5209,-3.5209,-3.5209,-3.5209,-3.5209,-3.5209,-3.5209,-3.5209,-3.5209,-3.5209,-3.5209,-3.5209,-3.5209,-3.5209,-3.5209,-3.5611,-3.6871,-3.7761,-3.862,-3.948,-4.0014,-4.0301,-4.0301,-4.0301,-4.0301,-4.0301,-4.0301,-4.0301,-4.0301,-4.0301,-4.0301,-4.0301,-4.0363,-4.0468,-4.0588,-3.9786,-3.9897,-4.1088,-4.0214,-3.9538,-3.9123,-3.8675,-3.7808,-3.6616,-3.789,-3.852,-3.3181,-3.403,-3.4559,-3.5388,-3.5495,-3.5357,-3.5231,-3.5209,-3.5209,-3.5209,-3.5209,-3.5209,-3.5209,-3.5209,-3.5209,-3.5209,-3.5209,-3.5209,-3.5209,-3.4636,-3.3945,-3.3261,-3.2435,-3.1969,-3.2075,-3.2607,-3.3272,-3.414,-3.4674,-3.4955,-3.4955,-3.4744,-3.4537,-3.4321,-3.4439,-3.4237,-3.3684,-3.3792,-3.3684,-3.3408,-3.3411,-3.3393,-3.3393,-3.3393,-3.3393,-3.3393,-3.3452,-3.3753,-3.4209,-3.4201,-3.4508,-3.5011,-3.5129,-3.5164,-3.5172,-3.5168,-3.5185,-3.5185,-3.5193,-3.5193,-3.5193,-3.5201,-3.5209,-3.5209,-3.5209,-3.5209,-3.5209,-3.5209,-3.5209,-3.5209,-3.5209,-3.5209,-3.5209,-3.5209,-3.5297,-3.5373,-3.5229,-3.5324,-3.5373,-3.5229,-3.5439,-3.6069,-3.7464,-3.9145,-4.0301,-4.0301,-4.0301,-4.0301,-4.0301,-4.0301,-4.0244,-4.0091,-4.0205,-4.0244,-4.0091,-4.0205,-4.0301,-4.0301,-4.0301,-4.0354,-4.0489,-4.0622,-4.0823,-4.1068,-4.0948,-4.051,-3.98,-3.9644,-3.8834,-3.7442,-3.8157,-3.8573,-3.0295,-3.1754,-3.3743,-3.5227,-3.5495,-3.5357,-3.5231,-3.5209,-3.5209,-3.5209,-3.5209,-3.5209,-3.5209,-3.5209,-3.5209,-3.5209,-3.5209,-3.5209,-3.5209,-3.5114,-3.5036,-3.5042,-3.4232,-3.3972,-3.478,-3.4232,-3.4159,-3.498,-3.5108,-3.5149,-3.5149,-3.5132,-3.5009,-3.4812,-3.4831,-3.4588,-3.4036,-3.3979,-3.3815,-3.3495,-3.3422,-3.3393,-3.3393,-3.3393,-3.3393,-3.3408,-3.3661,-3.3921,-3.4197,-3.4191,-3.4513,-3.5001,-3.502,-3.5066,-3.5101,-3.511,-3.511,-3.5119,-3.5172,-3.5208,-3.5198,-3.5193,-3.5209,-3.5209,-3.5209,-3.5209,-3.5209,-3.5209,-3.5209,-3.5209,-3.5209,-3.5209,-3.5209,-3.5209,-3.5774,-3.6118,-3.5354,-3.5793,-3.6099,-3.5362,-3.6375,-3.7445,-3.7655,-3.9145,-4.0301,-4.0301,-4.0301,-4.0301,-4.0301,-4.0301,-4.0014,-3.926,-3.9843,-3.9995,-3.924,-3.9862,-4.0301,-4.0301,-4.0301,-4.0354,-4.0489,-4.0622,-4.0765,-4.0926,-4.0298,-3.9922,-3.9808,-3.9048,-3.8547,-3.8327,-3.8449,-3.889,-3.0804,-3.211,-3.3686,-3.5251,-3.5579,-3.5476,-3.5348,-3.5262,-3.5209,-3.5209,-3.5209,-3.5209,-3.5209,-3.5209,-3.5209,-3.5209,-3.5209,-3.5223,-3.5304,-3.5311,-3.5184,-3.4826,-3.4429,-3.4116,-3.4,-3.403,-3.4182,-3.4491,-3.4942,-3.5209,-3.5209,-3.5209,-3.5107,-3.4917,-3.5011,-3.4792,-3.4213,-3.416,-3.3902,-3.3437,-3.3408,-3.3393,-3.3411,-3.3549,-3.3534,-3.3411,-3.352,-3.3802,-3.4197,-3.4197,-3.4491,-3.4945,-3.4992,-3.502,-3.5057,-3.5084,-3.5092,-3.5092,-3.5138,-3.5147,-3.5147,-3.5198,-3.5206,-3.5196,-3.5201,-3.5209,-3.5209,-3.5209,-3.5209,-3.5297,-3.5793,-3.5927,-3.5965,-3.6126,-3.7043,-3.7742,-3.7215,-3.7139,-3.7063,-3.668,-3.7597,-3.8438,-3.8438,-3.947,-4.0301,-4.0301,-4.0301,-4.0301,-4.0301,-4.0301,-4.0148,-3.9766,-4.0072,-4.0129,-3.9747,-4.0072,-4.0301,-4.0301,-4.0301,-4.0328,-4.0398,-4.0512,-4.0649,-4.0796,-4.0622,-4.0526,-4.0526,-3.9649,-3.899,-3.8508,-3.9006,-3.9173,-3.0959,-3.1917,-3.2836,-3.4629,-3.5199,-3.5322,-3.54,-3.5326,-3.5239,-3.5218,-3.5209,-3.5209,-3.5209,-3.5209,-3.5209,-3.5209,-3.5209,-3.5246,-3.5378,-3.5398,-3.5213,-3.4715,-3.4632,-3.4367,-3.3658,-3.409,-3.4395,-3.4308,-3.4866,-3.5209,-3.5209,-3.5209,-3.5124,-3.4992,-3.511,-3.4945,-3.4423,-3.423,-3.3884,-3.3393,-3.3393,-3.3393,-3.3411,-3.3619,-3.3591,-3.3411,-3.3534,-3.3815,-3.4209,-3.4269,-3.4542,-3.4889,-3.4964,-3.4964,-3.4992,-3.5029,-3.5057,-3.5057,-3.5075,-3.5075,-3.5084,-3.5147,-3.5191,-3.5208,-3.5204,-3.5201,-3.5248,-3.5469,-3.5526,-3.5736,-3.6576,-3.6806,-3.6871,-3.7071,-3.8075,-3.8954,-3.8744,-3.8171,-3.7693,-3.7693,-3.84,-3.9011,-3.9011,-3.9709,-4.0301,-4.0301,-4.0301,-4.0301,-4.0301,-4.0301,-4.0225,-3.9995,-4.0167,-4.0205,-3.9995,-4.0167,-4.0301,-4.0301,-4.0301,-4.0301,-4.0301,-4.0438,-4.0549,-4.0642,-4.0874,-4.1034,-4.1107,-4.0448,-3.9688,-3.885,-3.9505,-3.9455,-2.9165,-2.9671,-3.0299,-3.2718,-3.3942,-3.4709,-3.5265,-3.5391,-3.5343,-3.5223,-3.5209,-3.5209,-3.5209,-3.5209,-3.5209,-3.5209,-3.5209,-3.5246,-3.5378,-3.5398,-3.5456,-3.5614,-3.5573,-3.551,-3.5466,-3.538,-3.5278,-3.5141,-3.519,-3.5209,-3.5209,-3.5209,-3.5201,-3.5174,-3.5198,-3.5066,-3.4773,-3.4196,-3.3753,-3.3393,-3.3393,-3.3393,-3.3393,-3.3408,-3.3408,-3.3422,-3.3934,-3.4173,-3.4221,-3.4473,-3.471,-3.4908,-3.4889,-3.4908,-3.4917,-3.4917,-3.4917,-3.4927,-3.4992,-3.5011,-3.5011,-3.5084,-3.5147,-3.52,-3.52,-3.5196,-3.5373,-3.6194,-3.6424,-3.6615,-3.7426,-3.7636,-3.7636,-3.7655,-3.8343,-3.9011,-3.8973,-3.8304,-3.7693,-3.7693,-3.84,-3.9011,-3.9011,-3.9709,-4.0301,-4.0301,-4.0301,-4.0301,-4.0301,-4.0301,-3.9976,-3.9164,-3.9804,-3.9957,-3.9145,-3.9823,-4.0301,-4.0301,-4.0301,-4.0301,-4.0301,-4.0438,-4.0496,-4.0512,-4.0642,-4.0844,-4.1107,-4.1049,-4.0581,-3.9727,-3.9786,-3.9775,-2.8346,-2.8678,-2.9277,-3.1849,-3.307,-3.3854,-3.4549,-3.549,-3.6224,-3.6169,-3.6166,-3.6158,-3.6154,-3.5634,-3.5223,-3.5319,-3.5333,-3.5398,-3.557,-3.5596,-3.565,-3.5804,-3.5813,-3.5757,-3.5674,-3.5574,-3.547,-3.5348,-3.5254,-3.5209,-3.5209,-3.5204,-3.5206,-3.5206,-3.511,-3.486,-3.4424,-3.4191,-3.3855,-3.3393,-3.3393,-3.3393,-3.3393,-3.3393,-3.3393,-3.3422,-3.3972,-3.4197,-3.4209,-3.4305,-3.4564,-3.4908,-3.4908,-3.4908,-3.4908,-3.4908,-3.4908,-3.4889,-3.4927,-3.4936,-3.4945,-3.5011,-3.5057,-3.5084,-3.5164,-3.5189,-3.5378,-3.6243,-3.65,-3.6806,-3.819,-3.8534,-3.8686,-3.924,-3.9623,-3.9823,-3.9823,-3.9603,-3.9374,-3.9374,-3.9623,-3.9823,-3.9823,-4.0091,-4.0301,-4.0301,-4.0301,-4.0301,-4.0301,-4.0301,-4.0186,-3.9862,-4.011,-4.0167,-3.9862,-4.011,-4.0301,-4.0301,-4.0301,-4.0301,-4.0301,-4.0355,-4.0413,-4.0496,-4.0549,-4.0655,-4.0844,-4.0362,-3.9984,-3.9673,-3.9763,-3.9808,-2.7684,-2.7976,-2.8756,-3.1076,-3.1804,-3.2458,-3.4313,-3.5108,-3.5611,-3.615,-3.6264,-3.6278,-3.6318,-3.5776,-3.5355,-3.5391,-3.5438,-3.5518,-3.5676,-3.5698,-3.5749,-3.5883,-3.5908,-3.5843,-3.5706,-3.566,-3.5563,-3.5412,-3.5319,-3.5246,-3.5212,-3.5198,-3.5183,-3.5138,-3.5057,-3.4791,-3.434,-3.4245,-3.4023,-3.3657,-3.3495,-3.3477,-3.3657,-3.3577,-3.3591,-3.3684,-3.4049,-3.4197,-3.4209,-3.4367,-3.4609,-3.4908,-3.4908,-3.4908,-3.4908,-3.4908,-3.4908,-3.4908,-3.4908,-3.4908,-3.4917,-3.4945,-3.4992,-3.5011,-3.512,-3.5337,-3.5755,-3.6646,-3.7094,-3.7628,-3.9059,-3.9451,-3.9584,-4.0148,-4.0301,-4.0301,-4.0301,-4.0301,-4.0301,-4.0301,-4.0301,-4.0301,-4.0301,-4.0301,-4.0301,-4.0301,-4.0301,-4.0301,-4.0301,-4.0301,-4.0301,-4.0301,-4.0301,-4.0301,-4.0301,-4.0301,-4.0301,-4.0301,-4.0301,-4.0301,-4.0301,-4.0301,-4.0346,-4.0419,-4.0427,-4.0484,-4.0571,-4.0155,-3.984,-3.9601,-3.9996,-4.0192,0.0,0.0,0.0,-3.0334,-3.0119,-3.0514,-3.457,-3.419,-3.3432,-3.5059,-3.5386,-3.5432,-3.561,-3.5632,-3.5599,-3.547,-3.5538,-3.563,-3.5709,-3.5721,-3.5791,-3.5922,-3.5967,-3.5924,-3.5768,-3.5736,-3.566,-3.5425,-3.5398,-3.5333,-3.5189,-3.52,-3.5138,-3.5001,-3.5001,-3.486,-3.4594,-3.4328,-3.4197,-3.4197,-3.3675,-3.3671,-3.4185,-3.3921,-3.3947,-3.4197,-3.4209,-3.4209,-3.4257,-3.4693,-3.4879,-3.4908,-3.4908,-3.4908,-3.4908,-3.4908,-3.4908,-3.4908,-3.4908,-3.4908,-3.4908,-3.4908,-3.4964,-3.5039,-3.5039,-3.5646,-3.6529,-3.746,-3.8298,-3.9099,-4.0043,-4.0301,-4.0301,-4.0301,-4.0301,-4.0301,-4.0301,-4.0301,-4.0301,-4.0301,-4.0301,-4.0301,-4.0301,-4.0301,-4.0301,-4.0301,-4.0301,-4.0301,-4.0301,-4.0301,-4.0301,-4.0301,-4.0301,-4.0301,-4.0301,-4.0301,-4.0301,-4.0301,-4.0301,-4.0301,-4.0301,-4.0301,-4.0301,-4.0301,-4.0301,-4.0301,-4.0301,-4.0564,-4.0328,-3.965,-4.0495,-4.0975,-2.7914,0.0,0.0,0.0,0.0,0.0,-3.2256,-3.2553,-3.2832,-3.5071,-3.5076,-3.5054,-3.632,-3.6666,-3.6705,-3.6581,-3.6057,-3.5713,-3.5833,-3.6388,-3.6803,-3.6841,-3.7409,-3.752,-3.6859,-3.6693,-3.6309,-3.5519,-3.5419,-3.5319,-3.5147,-3.5084,-3.5011,-3.4927,-3.4927,-3.4821,-3.4594,-3.4328,-3.4197,-3.4197,-3.3675,-3.3671,-3.4185,-3.3921,-3.3947,-3.4209,-3.4416,-3.4495,-3.4495,-3.4626,-3.4771,-3.4908,-3.4908,-3.4908,-3.4908,-3.4908,-3.4908,-3.4908,-3.4908,-3.4908,-3.4908,-3.4908,-3.5334,-3.5884,-3.5923,-3.6511,-3.7348,-3.8252,-3.8671,-3.9042,-3.9977,-4.0263,-4.0301,-4.0301,-4.0301,-4.0301,-4.0301,-4.0301,-4.0301,-4.0301,-4.0301,-4.0301,-4.0301,-4.0301,-4.0301,-4.0301,-4.0301,-4.0301,-4.0301,-4.0301,-4.0301,-4.0301,-4.0301,-4.0301,-4.0301,-4.0301,-4.0301,-4.0301,-4.0301,-4.0301,-4.0301,-4.0301,-4.0301,-4.0301,-4.0301,-4.0301,-4.0301,-4.0476,-4.0444,-4.0254,-4.0701,-4.0975,-2.8728,-2.8549,-2.8716,-2.9718,0.0,0.0,-3.123,-3.1497,-3.195,-3.4428,-3.4594,-3.4734,-3.6118,-3.6509,-3.6712,-3.6996,-3.6615,-3.6449,-3.6913,-3.7428,-3.774,-3.774,-3.8188,-3.8168,-3.7272,-3.7374,-3.6944,-3.5593,-3.5707,-3.563,-3.5094,-3.5001,-3.4936,-3.4908,-3.4908,-3.4792,-3.4594,-3.445,-3.4381,-3.4351,-3.3815,-3.3889,-3.448,-3.4117,-3.4154,-3.4502,-3.4649,-3.473,-3.473,-3.473,-3.4782,-3.4908,-3.4908,-3.4908,-3.4908,-3.4908,-3.4908,-3.4908,-3.4908,-3.4908,-3.4908,-3.4908,-3.523,-3.5732,-3.6141,-3.6814,-3.764,-3.8545,-3.9069,-3.947,-4.0053,-4.0234,-4.0263,-4.0301,-4.0301,-4.0301,-4.0301,-4.0301,-4.0301,-4.0301,-4.0301,-4.0301,-4.0301,-4.0301,-4.0301,-4.0301,-4.0301,-4.0301,-4.0301,-4.0301,-4.0301,-4.0301,-4.0301,-4.0301,-4.0301,-4.0301,-4.0301,-4.0301,-4.0301,-4.0301,-4.0301,-4.0301,-4.0301,-4.0301,-4.0301,-4.0301,-4.0301,-4.0381,-4.0444,-4.0504,-4.0784,-4.0939,-2.9595,-2.9919,-3.0521,-3.0571,-2.9272,0.0,-3.0933,-3.0649,-3.0605,-3.3088,-3.3564,-3.3826,-3.4854,-3.5305,-3.5783,-3.6545,-3.6992,-3.7541,-3.8368,-3.8569,-3.8627,-3.863,-3.8705,-3.8429,-3.7553,-3.7987,-3.7582,-3.5769,-3.6053,-3.5946,-3.5049,-3.4936,-3.4851,-3.4775,-3.4851,-3.4764,-3.4494,-3.4567,-3.4604,-3.4626,-3.4099,-3.4227,-3.4898,-3.4435,-3.448,-3.4908,-3.4908,-3.4908,-3.4908,-3.4908,-3.4908,-3.4908,-3.4908,-3.4908,-3.4908,-3.4908,-3.4908,-3.4908,-3.4908,-3.4908,-3.4908,-3.4908,-3.4965,-3.5211,-3.6074,-3.6908,-3.7752,-3.8665,-3.9495,-4.0098,-4.0166,-4.0186,-4.0206,-4.0282,-4.0291,-4.0301,-4.0301,-4.0282,-4.0301,-4.0301,-4.0301,-4.0301,-4.0301,-4.0301,-4.0301,-4.0301,-4.0301,-4.0301,-4.0301,-4.0301,-4.0301,-4.0301,-4.0301,-4.0301,-4.0301,-4.0301,-4.0301,-4.0301,-4.0301,-4.0301,-4.0301,-4.0301,-4.0301,-4.0301,-4.0301,-4.0301,-4.0301,-4.0301,-4.0372,-4.0504,-4.0736,-4.0864,-3.0393,-2.9791,-2.9588,-3.0264,-2.913,0.0,-3.0213,-2.8965,-2.8102,-3.0587,-3.0134,-2.9742,-3.1216,-3.2749,-3.3832,-3.4007,-3.6354,-3.8206,-3.8396,-3.8972,-3.9412,-3.9462,-4.0042,-4.0099,-3.922,-3.916,-3.8386,-3.6543,-3.5649,-3.5144,-3.5001,-3.4936,-3.4605,-3.3941,-3.4567,-3.4567,-3.3885,-3.4358,-3.4678,-3.484,-3.4344,-3.4401,-3.4879,-3.4647,-3.4668,-3.4908,-3.4908,-3.4908,-3.4908,-3.4908,-3.4908,-3.4908,-3.4908,-3.4908,-3.4908,-3.4908,-3.4908,-3.4908,-3.4908,-3.4908,-3.4908,-3.4908,-3.5363,-3.6112,-3.6927,-3.778,-3.8614,-3.9448,-3.9851,-4.0017,-4.0046,-4.0118,-4.0186,-4.0147,-4.0225,-4.0291,-4.0234,-4.0263,-4.0301,-4.0301,-4.0301,-4.0301,-4.0301,-4.0301,-4.0301,-4.0301,-4.0301,-4.0301,-4.0301,-4.0301,-4.0301,-4.0301,-4.0301,-4.0301,-4.0301,-4.0301,-4.0301,-4.0301,-4.0301,-4.0301,-4.0301,-4.0301,-4.0301,-4.0301,-4.0301,-4.0301,-4.0301,-4.0301,-4.0372,-4.0496,-4.0557,-4.0687,-3.1143,-3.0598,-3.0302,-3.0303,-2.9645,0.0,0.0,-2.8324,-2.8214,-2.9903,-2.9336,-2.9067,-3.0785,-3.1893,-3.2687,-3.313,-3.5361,-3.7063,-3.7106,-3.892,-4.0256,-4.0298,-4.0649,-4.0519,-3.9582,-3.974,-3.9083,-3.7145,-3.6112,-3.5372,-3.4964,-3.4927,-3.4718,-3.4301,-3.468,-3.4652,-3.4147,-3.4543,-3.4751,-3.4751,-3.4509,-3.4575,-3.4879,-3.4689,-3.471,-3.4908,-3.4908,-3.4908,-3.4908,-3.4908,-3.4908,-3.4908,-3.4908,-3.4908,-3.4908,-3.4908,-3.4908,-3.4908,-3.4908,-3.4908,-3.4908,-3.4908,-3.5192,-3.578,-3.7011,-3.8281,-3.938,-3.9786,-3.9922,-3.9954,-3.9986,-4.0057,-4.0098,-4.0106,-4.0147,-4.0205,-4.0196,-4.0234,-4.0253,-4.0301,-4.0301,-4.0301,-4.0301,-4.0301,-4.0301,-4.0301,-4.0301,-4.0301,-4.0301,-4.0301,-4.0301,-4.0301,-4.0301,-4.0301,-4.0301,-4.0301,-4.0301,-4.0301,-4.0301,-4.0301,-4.0301,-4.0301,-4.0301,-4.0301,-4.0301,-4.0301,-4.0301,-4.0301,-4.0337,-4.0396,-4.0476,-4.0559,-3.1435,-3.1049,-3.08,-3.0102,-2.9794,-2.9346,0.0,0.0,0.0,-2.9715,-2.9308,-2.924,-3.0725,-3.1037,-3.1323,-3.2019,-3.3727,-3.4996,-3.5036,-3.7855,-3.998,-4.0159,-4.0451,-4.0305,-3.946,-3.9536,-3.908,-3.7753,-3.6453,-3.5552,-3.5173,-3.4984,-3.4832,-3.4661,-3.4813,-3.4755,-3.4432,-3.4726,-3.4821,-3.4658,-3.4658,-3.474,-3.4879,-3.473,-3.4751,-3.4908,-3.4908,-3.4908,-3.4908,-3.4908,-3.4908,-3.4908,-3.4908,-3.4908,-3.4908,-3.4908,-3.4908,-3.4908,-3.4908,-3.4908,-3.4908,-3.4908,-3.5003,-3.542,-3.6936,-3.8452,-3.9692,-3.9862,-3.99,-3.9911,-3.9965,-3.9986,-4.0007,-4.0046,-4.0077,-4.0117,-4.0157,-4.0186,-4.0225,-4.0263,-4.0301,-4.0301,-4.0301,-4.0301,-4.0301,-4.0301,-4.0301,-4.0301,-4.0301,-4.0301,-4.0301,-4.0301,-4.0301,-4.0301,-4.0301,-4.0301,-4.0301,-4.0301,-4.0301,-4.0301,-4.0301,-4.0301,-4.0301,-4.0301,-4.0301,-4.0301,-4.0301,-4.0301,-4.0301,-4.031,-4.0413,-4.0484,-3.0517,-2.955,-2.8988,-2.8905,-2.8324,-2.7945,-2.8453,0.0,-2.7999,-2.8919,0.0,-2.8115,-2.8366,0.0,0.0,-2.8648,-3.0722,-3.2331,-3.2344,-3.4614,-3.6595,-3.7432,-3.8797,-3.9578,-3.9329,-3.7809,-3.7337,-3.8472,-3.5704,-3.4586,-3.5979,-3.5325,-3.4567,-3.3866,-3.4529,-3.4557,-3.3809,-3.4538,-3.4898,-3.487,-3.487,-3.4889,-3.4908,-3.4889,-3.4889,-3.4908,-3.4908,-3.4908,-3.4908,-3.4908,-3.4908,-3.4908,-3.4908,-3.4908,-3.4908,-3.4908,-3.4908,-3.4908,-3.4908,-3.4908,-3.4908,-3.4908,-3.542,-3.6225,-3.7135,-3.8064,-3.8993,-3.9692,-3.99,-3.99,-3.9911,-3.9954,-3.9986,-3.9933,-4.0015,-4.0096,-4.0027,-4.0108,-4.0196,-4.0206,-4.0253,-4.0301,-4.0301,-4.0301,-4.0301,-4.0301,-4.0301,-4.0301,-4.0301,-4.0301,-4.0301,-4.0301,-4.0301,-4.0301,-4.0301,-4.0301,-4.0301,-4.0301,-4.0301,-4.0301,-4.0301,-4.0301,-4.0301,-4.0301,-4.0301,-4.0301,-4.0301,-4.0301,-4.0301,-4.0301,-4.0329,-4.0398,-3.0243,-2.965,-2.929,-2.8817,-2.8798,-2.8749,-2.8142,-2.8135,-2.8372,-2.8834,0.0,0.0,0.0,0.0,0.0,0.0,-3.0513,-3.151,-3.0528,-3.258,-3.4705,-3.613,-3.6875,-3.7584,-3.8354,-3.7551,-3.7451,-3.8605,-3.651,-3.5457,-3.6168,-3.5836,-3.5268,-3.4415,-3.4718,-3.4737,-3.4396,-3.4737,-3.4908,-3.4908,-3.4908,-3.4908,-3.4908,-3.4908,-3.4908,-3.4908,-3.4908,-3.4908,-3.4908,-3.4908,-3.4908,-3.4908,-3.4908,-3.4908,-3.4908,-3.4908,-3.4908,-3.4908,-3.4908,-3.4908,-3.4908,-3.4908,-3.5495,-3.6358,-3.7173,-3.8007,-3.8879,-3.9673,-3.99,-3.99,-3.99,-3.9922,-3.9933,-3.9911,-3.9933,-3.9994,-3.9996,-4.0077,-4.0157,-4.0196,-4.0253,-4.0301,-4.0301,-4.0301,-4.0301,-4.0301,-4.0301,-4.0301,-4.0301,-4.0301,-4.0301,-4.0301,-4.0301,-4.0301,-4.0301,-4.0301,-4.0301,-4.0301,-4.0301,-4.0301,-4.0301,-4.0301,-4.0301,-4.0301,-4.0301,-4.0301,-4.0301,-4.0301,-4.0301,-4.0301,-4.0301,-4.0328,-3.0148,-2.9745,-2.9385,-2.857,-2.8798,-2.8938,-2.7771,-2.8123,-2.8875,-2.9451,-2.9115,0.0,0.0,0.0,-2.9893,-2.9689,0.0,-3.0955,-2.95,-3.11,-3.289,-3.4178,-3.5074,-3.6177,-3.7655,-3.6938,-3.6927,-3.8235,-3.6377,-3.5457,-3.6168,-3.5969,-3.5552,-3.4927,-3.4908,-3.4908,-3.4908,-3.4908,-3.4908,-3.4908,-3.4908,-3.4908,-3.4908,-3.4908,-3.4908,-3.4908,-3.4908,-3.4908,-3.4908,-3.4908,-3.4908,-3.4908,-3.4908,-3.4908,-3.4908,-3.4908,-3.4908,-3.4908,-3.4908,-3.4908,-3.4946,-3.5173,-3.5514,-3.6026,-3.7078,-3.7837,-3.8557,-3.9616,-3.99,-3.99,-3.99,-3.99,-3.99,-3.99,-3.99,-3.9911,-3.9965,-4.0046,-4.0098,-4.0166,-4.0234,-4.0263,-4.0263,-4.0291,-4.0301,-4.0301,-4.0301,-4.0301,-4.0301,-4.0301,-4.0301,-4.0301,-4.0301,-4.0301,-4.0301,-4.0301,-4.0263,-4.0205,-4.0108,-4.0077,-4.0077,-4.0077,-4.0077,-4.0077,-4.0157,-4.0186,-4.0186,-4.0263,-4.0301,-4.0301,-4.0301,-4.0301,-3.0143,-2.9328,-2.8551,-2.7733,-2.757,-2.757,-2.7513,-2.8123,-2.9197,-3.0956,-3.1302,-3.1587,-3.2583,-3.2158,-3.1383,-3.0661,-3.0598,0.0,0.0,-3.0095,-3.0716,-3.0846,-3.3509,-3.5977,-3.7635,-3.5394,-3.4832,-3.7268,-3.4396,-3.36,-3.6074,-3.5401,-3.4927,-3.4908,-3.4908,-3.4908,-3.4908,-3.4908,-3.4908,-3.4908,-3.4908,-3.4908,-3.4908,-3.4908,-3.4908,-3.4908,-3.4908,-3.4908,-3.4908,-3.4908,-3.4908,-3.4908,-3.4908,-3.4908,-3.4908,-3.4908,-3.4908,-3.4908,-3.4908,-3.4908,-3.504,-3.5874,-3.5609,-3.5249,-3.6898,-3.742,-3.7788,-3.9445,-3.99,-3.99,-3.99,-3.99,-3.99,-3.99,-3.99,-3.99,-3.99,-4.0015,-4.0106,-4.0087,-4.0157,-4.0196,-4.0196,-4.0253,-4.0301,-4.0301,-4.0301,-4.0301,-4.0301,-4.0301,-4.0301,-4.0301,-4.0301,-4.0301,-4.0301,-4.0301,-4.0186,-3.9924,-3.967,-3.9539,-3.9539,-3.9539,-3.9539,-3.9539,-3.9773,-3.9914,-3.9914,-4.0176,-4.0301,-4.0301,-4.0301,-4.0301,-2.9196,-2.9309,-2.9309,-2.8502,-2.9128,-2.9658,-2.8559,-2.9366,-3.0538,-3.113,-3.1343,-3.1669,-3.2546,-3.2583,-3.2241,-3.1466,-3.137,-3.0694,0.0,-2.8687,-2.9509,-3.1224,-3.3282,-3.4557,-3.4503,-3.4557,-3.539,-3.7249,-3.5855,-3.578,-3.7742,-3.704,-3.631,-3.578,-3.5192,-3.4908,-3.4908,-3.4908,-3.4908,-3.4908,-3.4908,-3.4908,-3.4908,-3.4908,-3.487,-3.483,-3.4879,-3.487,-3.483,-3.4879,-3.4908,-3.4908,-3.4908,-3.4908,-3.4908,-3.4908,-3.5268,-3.5836,-3.6367,-3.6538,-3.6594,-3.6908,-3.6784,-3.6765,-3.7912,-3.8254,-3.85,-3.9578,-3.99,-3.99,-3.99,-3.99,-3.99,-3.99,-3.99,-3.99,-3.99,-4.0005,-4.0096,-4.0046,-4.0118,-4.0186,-4.0147,-4.0186,-4.0225,-4.0225,-4.0263,-4.0301,-4.0301,-4.0301,-4.0301,-4.0301,-4.0301,-4.0234,-4.0038,-3.987,-3.9728,-3.9647,-3.9544,-3.9514,-3.9514,-3.9514,-3.9514,-3.9514,-3.9599,-3.9728,-3.9903,-3.9996,-4.0108,-4.0225,-4.0225,-4.0253,-2.9139,-2.9518,-2.9707,-2.8911,-2.9726,-3.0446,-2.9366,-3.02,-3.1374,-3.197,-3.2172,-3.2485,-3.3334,-3.3352,-3.3005,-3.2212,-3.1904,-3.1105,0.0,-2.8919,-2.9534,-3.1178,-3.2471,-3.3256,-3.3286,-3.3551,-3.4514,-3.6435,-3.579,-3.6036,-3.7723,-3.7552,-3.704,-3.6225,-3.5647,-3.5211,-3.4908,-3.4908,-3.4908,-3.4908,-3.487,-3.486,-3.485,-3.4821,-3.4761,-3.4718,-3.4771,-3.4761,-3.4747,-3.483,-3.486,-3.486,-3.486,-3.5039,-3.5304,-3.5353,-3.5893,-3.6756,-3.7571,-3.7666,-3.7457,-3.7761,-3.7647,-3.7571,-3.8443,-3.869,-3.8879,-3.9673,-3.99,-3.99,-3.99,-3.99,-3.99,-3.99,-3.99,-3.99,-3.99,-3.9994,-4.0057,-4.0007,-4.0077,-4.0127,-4.0067,-4.0127,-4.0176,-4.0196,-4.0253,-4.0301,-4.0301,-4.0301,-4.0301,-4.0301,-4.0206,-4.0057,-3.9773,-3.9495,-3.9363,-3.9363,-3.9272,-3.9205,-3.9205,-3.9205,-3.9205,-3.9205,-3.9266,-3.9377,-3.9531,-3.9621,-3.9713,-3.9862,-3.9967,-4.0057]},{"header":{"parameterUnit":"m.s-1","parameterCategory":1,"la1":30.6,"la2":29.2853,"lo1":-89.7004,"lo2":-87.6739,"dy":0.0162,"dx":0.0183,"nx":112,"ny":82,"refTime":"2026-05-06T12:00:00:Z","depth":0,"parameterNumber":3,"parameterNumberName":"V-component_of_WINDS"},"data":[0.0,0.0,0.0,0.0,0.0,0.0,0.0,0.0,0.0,0.0,0.0,0.0,0.0,0.0,0.0,0.0,0.0,0.0,0.0,0.0,0.0,0.0,0.0,0.0,0.0,0.0,0.0,0.0,0.0,0.0,0.0,0.0,0.0,0.0,0.0,0.0,0.0,0.0,0.0,0.0,0.0,0.0,0.0,0.0,0.0,0.0,0.0,0.0,0.0,0.0,0.0,0.0,0.0,0.0,0.0,0.0,0.0,0.0,0.0,0.0,0.0,0.0,0.0,0.0,0.0,0.0,0.0,0.0,0.0,0.0,0.0,0.0,0.0,0.0,0.0,0.0,0.0,0.0,0.0,0.0,0.0,0.0,0.0,0.0,0.0,0.0,0.0,0.0,0.0,0.0,0.1161,0.1266,-0.0342,-0.2071,-0.3644,-0.3916,-0.3847,-0.354,0.0,0.0,0.0,0.0,0.0,0.0,0.0,0.0,0.0,0.0,0.0,0.0,0.0,0.0,0.0,0.0,0.0,0.0,0.0,0.0,0.0,0.0,0.0,0.0,0.0,0.0,0.0,0.0,0.0,0.0,0.0,0.0,0.0,0.0,0.0,0.0,0.0,0.0,0.0,0.0,0.0,0.0,0.0,0.0,0.0,0.0,0.0,0.0,0.0,0.0,0.0,0.0,0.0,0.0,0.0,0.0,0.0,0.0,0.0,0.0,0.0,0.0,0.0,0.0,0.0,0.0,0.0,0.0,0.0,0.0,0.0,0.0,0.0,0.0,0.0,0.0,0.0,0.0,0.0,0.0,0.0,0.0,0.0,0.0,0.0,0.0,0.0,0.0,0.0,0.0,0.0,0.0,0.0,0.0,0.0,0.0,0.0,0.0,0.0,0.0,0.0,0.0,0.0,0.0,0.0889,0.0296,-0.0747,-0.1816,-0.2812,-0.3569,-0.3873,-0.3586,0.0,0.0,0.0,0.0,0.0,0.0,0.0,0.0,0.0,0.0,0.0,0.0,0.0,0.0,0.0,0.0,0.0,0.0,0.0,0.0,0.0,0.0,0.0,0.0,0.0,0.0,0.0,0.0,0.0,0.0,0.0,0.0,0.0,0.0,0.0,0.0,0.0,0.0,0.0,0.0,0.0,0.0,0.0,0.0,0.0,0.0,0.0,0.0,0.0,0.0,0.0,0.0,0.0,0.0,0.0,0.0,0.0,0.0,0.0,0.0,0.0,0.0,0.0,0.0,0.0,0.0,0.0,0.0,0.0,0.0,0.0,0.0,0.0,0.0,0.0,0.0,0.0,0.0,0.0,0.0,0.0,0.0,0.0,0.0,0.0,0.0,0.0,0.0,0.0,0.0,0.0,0.0,0.0,0.0,0.0,0.0,0.0,0.0,0.0,0.0,0.0,0.0,0.0,0.123,0.089,0.0042,-0.0391,-0.1178,-0.2519,-0.3007,-0.3323,-0.3538,-0.3315,0.0,0.0,0.0,0.0,0.0,0.0,0.0,0.0,0.0,0.0,0.0,0.0,0.0,0.0,0.0,0.0,0.0,0.0,0.0,0.0,0.0,0.0,0.0,0.0,0.0,0.0,0.0,0.0,0.0,0.0,0.0,0.0,0.0,0.0,0.0,0.0,0.0,0.0,0.0,0.0,0.0,0.0,0.0,0.0,0.0,0.0,0.0,0.0,0.0,0.0,0.0,0.0,0.0,0.0,0.0,0.0,0.0,0.0,0.0,0.0,0.0,0.0,0.0,0.0,0.0,0.0,0.0,0.0,0.0,0.0,0.0,0.0,0.0,0.0,0.0,0.0,0.0,0.0,0.0,0.0,0.0,0.0,0.0,0.0,0.0,0.0,0.0,0.0,0.0,0.0,0.0,0.0,0.0,0.0,0.0,0.0,0.0,0.0,0.0,0.0,0.0,0.0,0.126,0.1006,0.0293,0.0085,-0.064,-0.2127,-0.2446,-0.2857,-0.3479,-0.3307,0.0,0.0,0.0,0.0,0.0,0.0,0.0,0.0,0.0,0.0,0.0,0.0,0.0,0.0,0.0,0.0,0.0,0.0,0.0,0.0,0.0,0.0,0.0,0.0,0.0,0.0,0.0,0.0,0.0,0.0,0.0,0.0,0.0,0.0,0.0,0.0,0.0,0.0,0.0,0.0,0.0,0.0,0.0,0.0,0.0,0.0,0.0,0.0,0.0,0.0,0.0,0.0,0.0,0.0,0.0,0.0,0.0,0.0,0.0,0.0,0.0,0.0,0.0,0.0,0.0,0.0,0.0,0.0,0.0,0.0,0.0,0.0,0.0,0.0,0.0,0.0,0.0,0.0,0.0,0.0,0.0,0.0,0.0,0.0,0.0,0.0,0.0,0.0,0.0,0.0,0.0,0.0,0.0,0.0,0.0,0.0,0.0,0.0,0.0,0.0,0.0,0.0,0.1227,0.127,0.1218,0.0421,-0.0417,-0.1223,-0.2032,-0.2772,-0.3475,-0.3248,0.0,0.0,0.0,0.0,0.0,0.0,0.0,0.0,0.0,0.0,0.0,0.0,0.0,0.0,0.0,0.0,0.0,0.0,0.0,0.0,0.0,0.0,0.0,0.0,0.0,0.0,0.0,0.0,0.0,0.0,0.0,0.0,0.0,0.0,0.0,0.0,0.0,0.0,0.0,0.0,0.0,0.0,0.0,0.0,0.0,0.0,0.0,0.0,0.0,0.0,0.0,0.0,0.0,0.0,0.0,0.0,0.0,0.0,0.0,0.0,0.0,0.0,0.0,0.0,0.0,0.0,0.0,0.0,0.0,0.0,0.0,0.0,0.0,0.0,0.0,0.0,0.0,0.0,0.0,0.0,0.0,0.0,0.0,0.0,0.0,0.0,0.0,0.0,0.0,0.0,0.0,0.0,0.0,0.0,0.0,0.0,0.0,0.0,0.0,0.0,0.0,0.0,0.1183,0.1265,0.1314,0.0989,0.0451,-0.0365,-0.1232,-0.2035,-0.2666,0.0,0.0,0.0,0.0,0.0,0.0,0.0,0.0,0.0,0.0,0.0,0.0,0.0,0.0,0.0,0.0,0.0,0.0,0.0,0.0,0.0,0.0,0.0,0.0,0.0,0.0,0.0,0.0,0.0,0.0,0.0,0.0,0.0,0.0,0.0,0.0,0.0,0.0,0.0,0.0,0.0,0.0,0.0,0.0,0.0,0.0,0.0,0.0,0.0,0.0,0.0,0.0,0.0,0.0,0.0,0.0,0.0,0.0,0.0,0.0,0.0,0.0,0.0,0.0,0.0,0.0,0.0,0.0,0.0,0.0,0.0,0.0,0.0,0.0,0.0,0.0,0.0,0.0,0.0,0.0,0.0,0.0,0.0,0.0,0.0,0.0,0.0,0.0,0.0,0.0,0.0,0.0,0.0,0.0,0.0,0.0,0.0,0.0,0.0,0.0,0.0,0.0,0.1238,0.1236,0.1281,0.1485,0.1369,0.0965,0.0161,-0.0471,-0.1256,-0.2152,0.0,0.0,0.0,0.0,0.0,0.0,0.0,0.0,0.0,0.0,0.0,0.0,0.0,0.0,0.0,0.0,0.0,0.0,0.0,0.0,0.0,0.0,0.0,0.0,0.0,0.0,0.0,0.0,0.0,0.0,0.0,0.0,0.0,0.0,0.0,0.0,0.0,0.0,0.0,0.0,0.0,0.0,0.0,0.0,0.0,0.0,0.0,0.0,0.0,0.0,0.0,0.0,0.0,0.0,0.0,0.0,0.0,0.0,0.0,0.0,0.0,0.0,0.0,0.0,0.0,0.0,0.0,0.0,0.0,0.0,0.0,0.0,0.0,0.0,0.0,0.0,0.0,0.0,0.0,0.0,0.0,0.0,0.0,0.0,0.0,0.0,0.0,0.0,0.0,0.0,0.0,0.0,0.0,0.0,0.0,0.0,0.0,0.0,0.0,0.0,0.0,0.0,0.1547,0.144,0.1454,0.1848,0.1533,0.102,0.0392,0.0192,-0.0561,0.0,0.0,0.0,0.0,0.0,0.0,0.0,0.0,0.0,0.0,0.0,0.0,0.0,0.0,0.0,0.0,0.0,0.0,0.0,0.0,0.0,0.0,0.0,0.0,0.0,0.0,0.0,0.0,0.0,0.0,0.0,0.0,0.0,0.0,0.0,0.0,0.0,0.0,0.0,0.0,0.0,0.0,0.0,0.0,0.0,0.0,0.0,0.0,0.0,0.0,0.0,0.0,0.0,0.0,0.0,0.0,0.0,0.0,0.0,0.0,0.0,0.0,0.0,0.0,0.0,0.0,0.0,0.0,0.0,0.0,0.0,0.0,0.0,0.0,0.0,0.0,0.0,0.0,0.0,0.0,0.0,0.0,0.0,0.0,0.0,0.0,0.0,0.0,0.0,0.0,0.0,0.0,0.0,0.0,0.0,0.0,0.0,0.0,0.0,0.0,0.0,0.0,0.0,0.158,0.1663,0.1768,0.1887,0.1807,0.165,0.1452,0.0701,-0.0152,-0.1093,0.0,0.0,0.0,0.0,0.0,0.0,0.0,0.0,0.0,0.0,0.0,0.0,0.0,0.0,0.0,0.0,0.0,0.0,0.0,0.0,0.0,0.0,0.0,0.0,0.0,0.0,0.0,0.0,0.0,0.0,0.0,0.0,0.0,0.0,0.0,0.0,0.0,0.0,0.0,0.0,0.0,0.0,0.0,0.0,0.0,0.0,0.0,0.0,0.0,0.0,0.0,0.0,0.0,0.0,0.0,0.0,0.0,0.0,0.0,0.0,0.0,0.0,0.0,0.0,0.0,0.0,0.0,0.0,0.0,0.0,0.0,0.0,0.0,0.0,0.0,0.0,0.0,0.0,0.0,0.0,0.0,0.0,0.0,0.0,0.0,0.0,0.0,0.0,0.0,0.0,0.0,0.0,0.0,0.0,0.0,0.0,0.0,0.0,0.0,0.0,0.0,0.0,0.1715,0.181,0.1964,0.212,0.1925,0.1847,0.2003,0.1295,0.0537,-0.0109,0.0,0.0,0.0,0.0,0.0,0.0,0.0,0.0,0.0,0.0,0.0,0.0,0.0,0.0,0.0,0.0,0.0,0.0,0.0,0.0,0.0,0.0,0.0,0.0,0.0,0.0,0.0,0.0,0.0,0.0,0.0,0.0,0.0,0.0,0.0,0.0,0.0,0.0,0.0,0.0,0.0,0.0,0.0,0.0,0.0,0.0,0.0,0.0,0.0,0.0,0.0,0.0,0.0,0.0,0.0,0.0,0.0,0.0,0.0,0.0,0.0,0.0,0.0,0.0,0.0,0.0,0.0,0.0,0.0,0.0,0.0,0.0,0.0,0.0,0.0,0.0,0.0,0.0,0.0,0.0,0.0,0.0,0.0,0.0,0.0,0.0,0.0,0.0,0.0,0.0,0.0,0.0,0.0,0.0,0.0,0.0,0.0,0.0,0.0,0.0,0.0,0.0,0.185,0.1921,0.2082,0.2433,0.2002,0.1806,0.2157,0.1885,0.1386,0.0734,0.0,0.0,0.0,0.0,0.0,0.0,0.0,0.0,0.0,0.0,0.0,0.0,0.0,0.0,0.0,0.0,0.0,0.0,0.0,0.0,0.0,0.0,0.0,0.0,0.0,0.0,0.0,0.0,0.0,0.0,0.0,0.0,0.0,0.0,0.0,0.0,0.0,0.0,0.0,0.0,0.0,0.0,0.0,0.0,0.0,0.0,0.0,0.0,0.0,0.0,0.0,0.0,0.0,0.0,0.0,0.0,0.0,0.0,0.0,0.0,0.2576,0.1955,0.0,0.0,0.0,0.0,0.0,0.0,0.0,0.0,0.0,0.0,0.0,0.0,0.0,0.0,0.0,0.0,0.0,0.0,0.0,0.0,0.0,0.0,0.0,0.0,0.0,0.0,0.0,0.0,0.0,0.0,0.0,0.0,0.0,0.0,0.0,0.0,0.0,0.0,0.0,0.0,0.1681,0.2068,0.2354,0.2275,0.2275,0.2276,0.2196,0.2118,0.1704,0.0826,0.0643,0.0,0.0,0.0,0.0,0.0,0.0,0.0,0.0,0.0,0.0,0.0,0.0,0.0,0.0,0.0,0.0,0.0,0.0,0.0,0.0,0.0,0.0,0.0,0.0,0.0,0.0,0.0,0.0,0.0,0.0,0.0,0.0,0.0,0.0,0.0,0.0,0.0,0.0,0.0,0.0,0.0,0.0,0.0,0.0,0.0,0.0,0.0,0.0,0.0,0.0,0.0,0.0,0.0,0.0,0.0,0.0,0.0,0.0,0.0,0.3019,0.2718,0.0,0.0,0.0,0.0,0.0,0.0,0.0,0.0,0.0,0.0,0.0,0.0,0.0,0.0,0.0,0.0,0.0,0.0,0.0,0.0,0.0,0.0,0.0,0.0,0.0,0.0,0.0,0.0,0.0,0.0,0.0,0.0,0.0,0.0,0.0,0.0,0.0,0.0,0.0,0.0,0.1749,0.2178,0.247,0.2353,0.2353,0.2353,0.2353,0.2275,0.2017,0.1589,0.1189,0.0,0.0,0.0,0.0,0.0,0.0,0.0,0.0,0.0,0.0,0.0,0.0,0.0,0.0,0.0,0.0,0.0,0.0,0.0,0.0,0.0,0.0,0.0,0.0,0.0,0.0,0.0,0.0,0.0,0.0,0.0,0.0,0.0,0.0,0.0,0.0,0.0,0.0,0.0,0.0,0.0,0.0,0.0,0.0,0.0,0.0,0.0,0.0,0.0,0.0,0.0,0.0,0.0,0.5625,0.5311,0.4437,0.4531,0.4076,0.327,0.4066,0.3905,0.307,0.2447,0.0,0.0,0.0,0.0,0.0,0.0,0.0,0.0,0.0,0.0,0.0,0.0,0.0,0.0,0.0,0.0,0.0,0.0,0.0,0.0,0.0,0.0,0.1799,0.1608,0.1658,0.1648,0.1194,0.0,0.0,0.0,0.0,0.0,0.0,0.0,0.0,0.0,0.0,0.0,0.1896,0.2312,0.2594,0.2441,0.2294,0.23,0.2418,0.2309,0.2294,0.2361,0.1714,0.1228,0.0,0.0,0.0,0.0,0.0,0.0,0.0,0.0,0.0,0.0,0.0,0.0,0.0,0.0,0.0,0.0,0.0,0.0,0.0,0.0,0.0,0.0,0.0,0.0,0.0,0.0,0.0,0.0,0.0,0.0,0.0,0.0,1.0009,1.0171,0.0,0.0,0.0,0.0,0.0,0.0,0.0,0.0,0.0,0.0,0.0,0.0,0.0,0.5607,0.5626,0.5701,0.578,0.5814,0.585,0.6106,0.6507,0.6503,0.6363,0.6066,0.5794,0.0,0.3167,0.2709,0.0,0.0,0.0,0.0,0.0,0.0,0.0,0.0,0.0,0.0,0.0,0.0,0.0,0.0,0.0,0.0,0.0,0.0,0.0,0.0,0.0,0.0,0.2356,0.2297,0.2334,0.2375,0.2275,0.1724,0.1216,0.1202,0.1625,0.1902,0.0,0.0,0.0,0.0,0.0,0.0,0.1836,0.2624,0.2976,0.2136,0.2251,0.2318,0.217,0.2327,0.239,0.2225,0.2243,0.1923,0.1189,0.0852,0.0,0.0,0.0,0.0,0.0,0.0,0.0,0.0,0.0,0.0,0.0,0.0,0.0,0.0,0.0,0.0,0.0,0.0,0.0,0.0,0.0,0.0,0.0,0.0,0.0,0.0,0.0,0.0,0.0,1.099,1.1181,1.1081,1.0515,0.9837,0.0,0.0,0.0,0.0,0.0,0.0,0.0,0.0,0.0,0.7241,0.7234,0.7165,0.7099,0.7445,0.7617,0.7651,0.7874,0.7792,0.7407,0.7282,0.6973,0.6465,0.5728,0.5017,0.4363,0.3373,0.275,0.2309,0.0,0.0,0.0,0.0,0.0645,0.0718,0.113,0.1245,0.124,0.1278,0.0,0.0,0.0,0.0,0.0,0.0,0.0,0.1612,0.1612,0.2048,0.2503,0.2477,0.2491,0.2511,0.2511,0.2152,0.183,0.1789,0.197,0.2085,0.1895,0.2187,0.0,0.0,0.0,0.3553,0.3201,0.3648,0.3706,0.2875,0.2903,0.2776,0.2264,0.2351,0.2421,0.2306,0.2357,0.2257,0.1896,0.1344,0.0709,0.0,0.0,0.0,0.0,0.0,0.0,0.0,0.0,0.0,0.0,0.0,0.0,0.0,0.0,0.0,0.0,0.0,0.0,0.0,0.0,0.0,0.0,0.0,0.0,0.0,0.0,0.0,0.0,1.1823,1.22,1.202,1.2025,1.1602,0.0,0.0,0.0,0.0,0.0,0.0,0.7722,0.7961,0.811,0.8189,0.8567,0.87,0.8554,0.8999,0.9226,0.923,0.942,0.9146,0.8432,0.8126,0.7654,0.699,0.6157,0.5894,0.5913,0.4373,0.339,0.2888,0.2473,0.1908,0.1325,0.1333,0.1257,0.122,0.1679,0.1852,0.1846,0.1925,0.1897,0.1754,0.1194,0.0,0.0,0.0,0.0,0.1821,0.1832,0.2168,0.2511,0.2511,0.2511,0.2506,0.2491,0.237,0.2289,0.226,0.2229,0.221,0.2289,0.2643,0.0,0.3304,0.3952,0.4394,0.4325,0.4567,0.4447,0.3703,0.3476,0.3169,0.2597,0.2438,0.2366,0.2381,0.2382,0.2426,0.2441,0.1794,0.1302,0.102,0.0,0.0,0.0,0.0,0.0,0.0,0.0,0.0,0.0,0.0,0.0,0.0,0.0,0.0,0.0,0.0,0.0,0.0,0.0,0.0,0.0,0.0,0.0,0.0,0.0,0.0,0.0,0.0,0.0,1.3368,1.3066,0.0,0.0,0.0,0.0,0.9707,0.9039,0.8462,0.8084,0.856,0.8939,0.92,0.9574,0.9725,0.9716,0.9734,0.9743,0.9743,0.952,0.9664,1.0168,0.9629,0.9161,0.8759,0.8241,0.7885,0.7522,0.5695,0.4565,0.406,0.4467,0.3968,0.2992,0.3058,0.2771,0.2356,0.2511,0.2551,0.2551,0.2548,0.247,0.2264,0.1733,0.1854,0.0,0.0,0.1928,0.2357,0.2452,0.2469,0.2511,0.2511,0.2511,0.2495,0.2436,0.234,0.2314,0.2363,0.2281,0.2391,0.3019,0.0,0.3436,0.4135,0.4802,0.5019,0.4462,0.4941,0.507,0.4336,0.3685,0.3291,0.3254,0.2662,0.2326,0.2378,0.2382,0.2446,0.2503,0.2406,0.195,0.112,0.0926,0.0,0.0,0.0,0.0,0.0,0.0,0.0,0.0,0.0,0.0,0.0,0.0,0.0,0.0,0.0,0.0,0.0,0.0,0.0,0.0,0.0,0.0,0.0,0.0,0.0,0.0,0.0,0.0,1.377,1.4036,0.0,1.3513,1.2132,1.1035,1.0489,0.9546,0.8992,0.8865,0.9252,0.9581,0.9858,0.9809,0.9879,1.0065,0.9879,0.9879,1.0065,1.003,1.004,0.9962,1.0058,0.9935,0.9713,0.9121,0.8843,0.8782,0.7587,0.6175,0.4827,0.4135,0.3478,0.2841,0.2864,0.2776,0.2601,0.2644,0.2659,0.2659,0.2659,0.2631,0.2555,0.2352,0.2421,0.2529,0.2348,0.2407,0.2541,0.2564,0.254,0.2511,0.2511,0.2511,0.2493,0.2433,0.2338,0.2487,0.3055,0.3004,0.2918,0.3155,0.3979,0.4713,0.4981,0.557,0.5942,0.5721,0.5885,0.5782,0.508,0.4788,0.4276,0.3332,0.3072,0.2759,0.2284,0.2322,0.2322,0.2303,0.2319,0.2182,0.1824,0.1757,0.1255,0.0,0.0,0.0,0.0,0.0,0.0,0.0,0.0,0.0,0.0,0.0,0.0,0.0,0.0,0.0,0.0,0.0,0.0,0.0,0.0,0.0,0.0,0.0,0.0,0.0,1.3142,1.3777,1.4144,1.4714,1.4856,1.4355,1.3387,1.2427,1.1601,1.0646,0.9936,0.9629,0.9708,0.9929,1.0309,1.0043,0.9983,1.0263,0.9979,0.9979,1.0121,1.0224,1.0193,1.0023,1.0171,1.0186,1.0158,0.9461,0.9284,0.9443,0.8637,0.7389,0.5976,0.5208,0.4287,0.3435,0.3534,0.3298,0.2904,0.28,0.2723,0.2723,0.2723,0.2709,0.2692,0.2692,0.2692,0.2692,0.2692,0.2649,0.2601,0.2601,0.2556,0.2511,0.2511,0.2511,0.2489,0.2371,0.2544,0.2825,0.3374,0.3333,0.336,0.3931,0.4776,0.5477,0.5712,0.6115,0.6387,0.6387,0.6387,0.6218,0.5778,0.5547,0.4912,0.3682,0.3347,0.2927,0.2252,0.2241,0.224,0.224,0.2223,0.2215,0.221,0.2165,0.1781,0.0985,0.0,0.0,0.0,0.0,0.0,0.0,0.0,0.0,0.0,0.0,0.0,0.0,0.0,0.0,0.0,0.0,0.0,0.0,0.0,0.0,0.0,0.0,0.0,1.258,1.3403,1.4144,1.4482,1.5043,1.5265,1.4944,1.4677,1.4104,1.3129,1.231,1.1405,1.0306,1.0022,1.0084,1.0523,1.017,1.0122,1.0422,1.0126,1.0027,1.0027,1.0023,1.017,1.0475,0.9988,0.9979,1.0176,0.9482,0.9292,0.9483,0.8836,0.8188,0.7584,0.7705,0.6558,0.4872,0.5195,0.4534,0.3377,0.298,0.283,0.2786,0.2786,0.2747,0.2698,0.2698,0.2698,0.2698,0.2698,0.2653,0.2604,0.2604,0.2557,0.2511,0.2511,0.2511,0.2517,0.2362,0.2916,0.3404,0.333,0.3293,0.3789,0.5336,0.5514,0.5653,0.6317,0.6391,0.0,0.6387,0.6387,0.6383,0.6383,0.5778,0.508,0.432,0.3566,0.2839,0.2232,0.2185,0.2242,0.2288,0.2095,0.2066,0.2171,0.2123,0.1936,0.1696,0.0,0.0,0.0,0.0,0.0,0.0,0.0,0.0,0.0,0.0,0.0,0.0,0.0,0.0,0.0,0.0,0.0,0.0,0.0,0.0,0.0,1.4758,1.5331,1.4375,1.408,1.4187,1.475,1.5141,1.5352,1.5265,1.4938,1.4489,1.393,1.3545,1.2789,1.1645,1.1408,1.1143,1.0724,1.0239,1.0186,1.0628,1.0331,1.023,1.0226,1.019,1.0047,0.9849,0.9996,1.0161,1.0351,1.0351,1.0384,1.0477,0.9954,0.9666,0.9422,0.772,0.6425,0.5453,0.5549,0.4946,0.4053,0.3945,0.3423,0.2893,0.2893,0.2882,0.2824,0.2824,0.2824,0.2824,0.2824,0.2748,0.2668,0.2668,0.259,0.2511,0.2511,0.2978,0.3414,0.3353,0.3922,0.4678,0.5267,0.5247,0.5234,0.5437,0.5944,0.6368,0.6407,0.6534,0.657,0.6436,0.6387,0.6218,0.5712,0.551,0.4878,0.3618,0.3295,0.288,0.2179,0.2172,0.2203,0.2236,0.2187,0.2111,0.1975,0.177,0.1569,0.0,0.0,0.0,0.0,0.0,0.0,0.0,0.0,0.0,0.0,0.0,0.0,0.0,0.0,0.0,0.0,0.0,0.0,0.0,0.0,0.0,0.0,1.59,1.6437,1.5992,1.5364,1.4991,1.5087,1.5272,1.544,1.5621,1.5545,1.526,1.4716,1.4689,1.4154,1.2925,1.2796,1.2344,1.1487,1.0944,1.0699,1.0712,1.0302,1.0238,1.0416,1.0285,1.0195,1.0037,1.0111,1.0171,1.0216,1.0265,1.0259,1.0141,1.0068,0.988,0.9513,0.0,0.0,0.0,0.0,0.5542,0.4877,0.4877,0.452,0.3987,0.3631,0.3765,0.3987,0.3587,0.3765,0.4076,0.4076,0.3718,0.3399,0.3743,0.3188,0.262,0.2945,0.3443,0.3769,0.372,0.456,0.5513,0.5975,0.6223,0.0,0.5992,0.6377,0.6631,0.6444,0.6509,0.6542,0.6399,0.6387,0.6148,0.5477,0.5411,0.4812,0.3316,0.3183,0.0,0.0,0.0,0.2116,0.205,0.2097,0.0,0.0,0.0,0.0,0.0,0.0,0.0,0.0,0.0578,0.0324,0.0,0.0,0.0,0.0,0.0,0.0,0.0,0.0,0.0,0.0,0.0,0.0,0.0,0.0,0.0,0.0,1.6614,1.6695,1.7359,1.686,1.6166,1.5535,1.5526,1.5639,1.5884,1.6191,1.6135,1.5521,1.5772,1.5419,1.419,1.4076,0.0,0.0,0.0,1.1584,1.1088,1.0475,1.0361,1.0811,1.0476,1.0378,1.0602,1.0157,0.9969,0.9969,0.9772,0.9522,0.9236,0.9698,0.9382,0.8784,0.9301,0.8947,0.8021,0.7007,0.6296,0.5852,0.5852,0.0,0.0,0.4743,0.501,0.5542,0.4699,0.5053,0.5719,0.5719,0.5063,0.4527,0.522,0.4162,0.3066,0.3775,0.3986,0.4037,0.3984,0.5118,0.612,0.605,0.6559,0.6931,0.6743,0.6704,0.6656,0.6448,0.6436,0.644,0.6387,0.6387,0.6115,0.5345,0.5279,0.0,0.3218,0.3017,0.2781,0.2218,0.2143,0.2016,0.1846,0.1938,0.1821,0.1532,0.1536,0.1475,0.1277,0.1277,0.1246,0.108,0.0492,0.0533,0.0,0.0,0.0,0.0,0.0,0.0,0.0,0.0,0.0,0.0,0.0,0.0,0.0,0.0,0.0,1.7227,1.7755,1.8097,1.7917,1.7738,1.7221,1.6086,1.6255,1.6319,1.5927,1.6191,1.6454,1.6593,1.6865,1.656,1.5466,1.5216,1.4555,1.3323,1.321,1.3172,1.326,1.2189,1.1836,1.2202,1.0867,0.0,1.0032,0.9805,0.9772,1.0019,1.0167,1.0145,0.9972,1.0111,0.9831,0.9345,0.8955,0.8696,0.8476,0.8252,0.7584,0.683,0.683,0.634,0.5675,0.5497,0.5542,0.5675,0.5497,0.5542,0.0,0.5719,0.5501,0.5339,0.5388,0.5102,0.4786,0.4755,0.527,0.5697,0.5595,0.6318,0.6946,0.6809,0.6916,0.6931,0.6721,0.6845,0.6829,0.6469,0.6546,0.6587,0.6403,0.6387,0.5918,0.4652,0.4519,0.3954,0.252,0.2376,0.2309,0.222,0.2188,0.2153,0.2138,0.1887,0.1716,0.1589,0.1438,0.1282,0.1143,0.1244,0.1225,0.1112,0.0979,0.0985,0.0,0.0,0.0,0.0,0.0,0.0,0.0,0.0,0.0,0.0,0.0,1.4922,1.5371,0.0,1.7197,1.7627,1.8047,1.8215,1.8029,1.8156,1.7916,1.6865,1.6533,1.6447,1.6522,1.6439,1.6551,1.6873,1.715,1.7044,1.6433,1.6285,1.5663,1.4472,1.4316,1.418,1.4033,1.3324,1.3081,1.3362,1.2314,1.1546,1.1084,1.0744,1.0462,1.0216,1.0216,1.0049,0.982,0.954,0.9344,0.9213,0.8867,0.8828,0.8915,0.87,0.8296,0.7852,0.7852,0.754,0.7051,0.6564,0.6741,0.7051,0.6564,0.6741,0.7126,0.7048,0.6676,0.6396,0.6572,0.5962,0.5381,0.5551,0.5893,0.6182,0.6104,0.6779,0.7301,0.7123,0.709,0.7005,0.6741,0.6765,0.6733,0.6461,0.6497,0.6522,0.6399,0.6387,0.5851,0.4453,0.4287,0.372,0.2321,0.2188,0.2188,0.2188,0.2211,0.2182,0.219,0.1978,0.1775,0.1615,0.1393,0.1226,0.1109,0.1176,0.1151,0.1098,0.1098,0.1123,0.0,0.0,0.0,0.0,0.0,0.0,0.0,1.4152,1.4171,1.4225,1.4755,1.5435,1.6138,1.6588,1.708,1.7773,1.7959,1.8008,1.8008,1.8266,1.8318,1.782,1.6929,1.6581,1.7159,1.6675,1.6485,1.6873,1.7045,1.7134,1.7066,1.7026,1.6588,1.5724,1.548,1.5183,1.4823,1.4319,1.4242,1.4498,1.3793,1.3023,1.2189,1.1776,1.1096,1.0212,0.9992,0.9766,0.9477,0.8966,0.8828,0.8955,0.8911,0.9043,0.9174,0.8784,0.8656,0.8612,0.8612,0.8612,0.8476,0.7676,0.7944,0.8432,0.7632,0.7944,0.858,0.8385,0.7856,0.7397,0.7768,0.6864,0.5962,0.6344,0.6433,0.6426,0.6398,0.6942,0.733,0.7155,0.7058,0.6941,0.6692,0.6643,0.6591,0.6407,0.6387,0.635,0.6218,0.6218,0.565,0.4253,0.4087,0.3587,0.2321,0.2154,0.2154,0.2188,0.2166,0.217,0.219,0.2029,0.1825,0.1615,0.1379,0.121,0.1109,0.1109,0.1113,0.1085,0.1116,0.1156,1.5303,1.3831,1.3065,1.3937,1.4161,1.4527,0.0,1.6185,1.6289,1.6694,1.6774,1.6792,1.6895,1.7138,1.7344,1.7441,1.7764,1.8008,1.8008,1.8047,1.8329,1.8993,1.8011,1.7223,1.7201,1.6443,1.6213,1.6859,1.6711,1.681,1.7225,1.7113,1.6932,1.6831,1.6784,1.6852,1.7044,1.5797,1.5388,1.5966,1.4436,1.3109,1.1833,1.1663,1.089,0.9657,0.9529,0.9498,0.9556,0.9301,0.9218,0.9218,0.8999,0.8911,0.8955,0.8867,0.874,0.8612,0.8612,0.8612,0.8568,0.8476,0.852,0.8568,0.8476,0.852,0.8608,0.8588,0.8387,0.814,0.7999,0.7765,0.7493,0.7374,0.7365,0.7287,0.7135,0.7053,0.6996,0.679,0.6619,0.6464,0.6423,0.6448,0.644,0.6387,0.6387,0.6181,0.558,0.551,0.4945,0.3482,0.3316,0.3019,0.2255,0.2052,0.2018,0.2188,0.2025,0.2025,0.2188,0.1855,0.1619,0.1614,0.1277,0.1109,0.1109,0.1109,0.1089,0.1117,0.1147,0.1201,1.4543,1.4048,1.412,1.4253,1.4739,1.5407,1.6292,1.6489,1.6533,1.6646,1.6628,1.6567,1.6487,1.6573,1.6819,1.7328,1.7529,1.7734,1.7978,1.8008,1.833,1.9189,1.7929,1.7181,1.763,1.7028,1.6637,1.6625,1.671,1.6904,1.7264,1.6965,1.6871,1.7153,1.6918,1.698,1.7389,1.6642,1.6362,1.6496,1.5676,1.4299,1.2534,1.2483,1.155,0.9898,0.9583,0.9401,0.9345,0.9032,0.8872,0.8872,0.8911,0.8823,0.874,0.874,0.8656,0.8612,0.8612,0.8612,0.8612,0.8612,0.8612,0.8612,0.8612,0.8612,0.8567,0.8304,0.8268,0.8199,0.7805,0.7771,0.7751,0.7567,0.7484,0.7464,0.7391,0.7313,0.7249,0.7037,0.6904,0.6787,0.6615,0.6664,0.6553,0.5911,0.5815,0.5712,0.5444,0.5014,0.4348,0.3316,0.2852,0.252,0.2221,0.212,0.2052,0.2018,0.2052,0.2052,0.2018,0.1985,0.185,0.1614,0.1446,0.1311,0.1109,0.1109,0.1091,0.1087,0.1152,0.1213,1.4104,1.4168,1.4565,1.451,1.5055,1.5763,1.6382,1.6541,1.651,1.6429,1.6271,1.614,1.5997,1.595,1.6202,1.7061,1.7305,1.7529,1.7949,1.8008,1.833,1.9189,1.8128,1.7482,1.788,1.7177,1.6568,1.6257,1.6498,1.6773,1.7047,1.6821,1.6871,1.7192,1.6871,1.689,1.7316,1.7117,1.6924,1.6794,1.6594,1.5538,1.3692,1.2999,1.167,0.9918,0.9587,0.9325,0.9182,0.8794,0.8656,0.8696,0.8784,0.874,0.8612,0.8612,0.8612,0.8612,0.8612,0.8612,0.8612,0.8612,0.8612,0.8612,0.8612,0.8575,0.8477,0.8166,0.8117,0.8057,0.7702,0.7661,0.769,0.7555,0.7484,0.7484,0.7484,0.7445,0.7313,0.7203,0.711,0.7013,0.6802,0.6686,0.6363,0.5575,0.507,0.4779,0.4779,0.4151,0.352,0.2986,0.2487,0.2188,0.2188,0.2087,0.1985,0.1918,0.1985,0.1985,0.1918,0.2052,0.1951,0.1614,0.1547,0.1379,0.1109,0.1109,0.1095,0.1134,0.1192,0.1224,1.4144,1.3915,1.3775,1.4746,1.5013,1.5301,1.6368,1.6608,1.661,1.6678,1.6219,1.5797,1.5706,1.5545,1.5723,1.658,1.7109,1.7529,1.7949,1.8008,1.833,1.9189,1.9078,1.8601,1.7791,1.636,1.5577,1.5906,1.6002,1.6178,1.65,1.6815,1.6979,1.7026,1.6979,1.6986,1.6994,1.6994,1.6994,1.6994,1.6994,1.64,1.5251,1.2769,1.0846,0.9524,0.9285,0.9263,0.927,0.8788,0.8696,0.8867,0.8696,0.8612,0.8612,0.8612,0.8612,0.8612,0.8612,0.8612,0.8612,0.8612,0.8612,0.8612,0.8612,0.8486,0.8296,0.8284,0.8077,0.7812,0.7796,0.7661,0.7488,0.7484,0.7484,0.7484,0.7484,0.7249,0.7057,0.7192,0.6948,0.6761,0.6955,0.6239,0.5645,0.5603,0.4256,0.3282,0.3282,0.2686,0.2255,0.2221,0.2221,0.2188,0.2188,0.185,0.1715,0.1884,0.1715,0.1715,0.1884,0.1918,0.1817,0.1614,0.1412,0.1244,0.1109,0.1109,0.1141,0.1201,0.1203,0.1236,1.3536,1.3768,1.4113,1.4441,1.4941,1.5531,1.6254,1.6185,1.6064,1.6321,1.5617,1.5037,1.5358,1.5097,1.5223,1.6558,1.6766,1.6983,1.7687,1.8089,1.8405,1.8845,1.8704,1.8495,1.8355,1.7489,1.6677,1.6009,1.597,1.6301,1.7004,1.6861,1.6871,1.72,1.7066,1.7066,1.72,1.7073,1.6979,1.6979,1.5967,1.5186,1.4565,1.2839,1.1384,1.0208,0.9979,0.9562,0.8999,0.874,0.8656,0.8696,0.8612,0.8612,0.8612,0.8612,0.8612,0.8612,0.8612,0.8612,0.8612,0.8612,0.8612,0.8612,0.8612,0.8482,0.8264,0.8142,0.7939,0.7771,0.7649,0.7567,0.7484,0.7484,0.7484,0.7484,0.7484,0.7429,0.7359,0.7382,0.7301,0.72,0.7143,0.6508,0.5612,0.4496,0.37,0.305,0.2586,0.2354,0.2188,0.2188,0.2188,0.2188,0.2188,0.1951,0.1783,0.1715,0.1648,0.158,0.1513,0.1614,0.1614,0.1412,0.1344,0.1244,0.1109,0.1109,0.1142,0.1203,0.1203,0.1236,1.3515,1.391,1.4353,1.4536,1.4978,1.5438,1.5788,1.5567,1.5328,1.5506,1.4746,1.4179,1.464,1.4455,1.4743,1.6395,1.6633,1.6964,1.7998,1.8397,1.8653,1.889,1.8692,1.8416,1.8115,1.7683,1.707,1.6123,1.5835,1.5988,1.6685,1.6543,1.661,1.7044,1.7019,1.7019,1.7052,1.7106,1.7019,1.6831,1.5806,1.4892,1.4059,1.3233,1.205,1.0578,1.0362,0.976,0.8999,0.874,0.8656,0.8696,0.8612,0.8612,0.8612,0.8612,0.8612,0.8612,0.8612,0.8612,0.8612,0.8612,0.8612,0.8612,0.8612,0.8482,0.8251,0.8065,0.789,0.7755,0.7571,0.7484,0.7484,0.7484,0.7484,0.7484,0.7484,0.7435,0.7411,0.7472,0.7435,0.7374,0.7326,0.6439,0.5147,0.3438,0.2995,0.2693,0.2254,0.2201,0.2188,0.2188,0.2188,0.2188,0.2188,0.2018,0.1817,0.1614,0.1614,0.1513,0.1311,0.148,0.1513,0.1311,0.1311,0.1244,0.1109,0.1109,0.1136,0.1151,0.1197,0.1231,1.4023,1.4252,1.4355,1.4902,1.5051,1.5051,1.5051,1.4755,1.4468,1.4396,1.3732,1.328,1.3626,1.3697,1.4293,1.6108,1.6744,1.7454,1.8695,1.8883,1.9004,1.9231,1.9135,1.8539,1.7252,1.7058,1.6788,1.6173,1.5532,1.5343,1.5716,1.5966,1.626,1.6622,1.6878,1.6878,1.6629,1.7052,1.7052,1.6581,1.6512,1.5602,1.3986,1.3938,1.2735,1.0636,1.0463,0.9999,0.9275,0.8788,0.8704,0.888,0.8656,0.8612,0.8612,0.8612,0.8612,0.8612,0.8612,0.8612,0.8612,0.8612,0.8612,0.8612,0.8612,0.8482,0.8256,0.8077,0.7898,0.7759,0.758,0.7488,0.7484,0.7484,0.7484,0.7484,0.7484,0.7354,0.7289,0.7452,0.735,0.7256,0.7417,0.6046,0.4311,0.2553,0.2251,0.2212,0.2205,0.2189,0.2188,0.2188,0.2188,0.2188,0.2188,0.2018,0.1817,0.1614,0.158,0.1513,0.1311,0.148,0.148,0.1277,0.1277,0.1244,0.1109,0.1109,0.1092,0.1124,0.1153,0.122,1.39,1.367,1.3387,1.3917,1.4161,1.4282,1.4282,1.4282,1.4281,1.4246,1.3411,1.2876,1.3522,1.3787,1.445,1.6069,1.6761,1.7401,1.8408,1.8796,1.892,1.8879,1.9214,1.924,1.8758,1.8118,1.7391,1.6617,1.5581,1.5367,1.6259,1.6053,1.6274,1.7084,1.7019,1.6979,1.6885,1.7019,1.6925,1.6581,1.632,1.5777,1.4923,1.4511,1.3262,1.1413,1.1623,1.0765,0.9191,0.8794,0.8686,0.8833,0.8661,0.8612,0.8612,0.8612,0.8612,0.8612,0.8612,0.8612,0.8612,0.8612,0.8612,0.8612,0.8612,0.8482,0.828,0.8231,0.8037,0.7788,0.7743,0.7624,0.7484,0.7484,0.7484,0.7484,0.7484,0.7447,0.7431,0.7476,0.7447,0.7236,0.6623,0.5668,0.4602,0.3501,0.2741,0.2244,0.2224,0.2197,0.2188,0.2188,0.2188,0.2188,0.2188,0.2018,0.1884,0.1817,0.1547,0.1344,0.1311,0.1244,0.121,0.1143,0.1143,0.1143,0.1109,0.1109,0.1137,0.1191,0.1199,0.1232,1.4066,1.3767,1.332,1.345,1.3572,1.3652,1.3652,1.3588,1.3586,1.3718,1.2979,1.2497,1.3102,1.3607,1.4363,1.5645,1.6578,1.7467,1.8477,1.8816,1.8948,1.8964,1.9252,1.9271,1.8767,1.8287,1.7634,1.678,1.5738,1.5366,1.5934,1.5659,1.5904,1.6943,1.6736,1.6672,1.6772,1.6994,1.6965,1.6581,1.6134,1.5691,1.528,1.4285,1.2973,1.1505,1.1516,1.0578,0.8993,0.8763,0.8735,0.8804,0.8633,0.8612,0.8612,0.8612,0.8612,0.8612,0.8612,0.8612,0.8612,0.8612,0.8612,0.8612,0.8612,0.8539,0.8394,0.8312,0.8146,0.8016,0.7894,0.7793,0.7695,0.7661,0.7645,0.762,0.75,0.7484,0.7484,0.7484,0.7484,0.7096,0.5893,0.5312,0.4578,0.3336,0.2923,0.2657,0.224,0.2204,0.2188,0.2188,0.2188,0.2188,0.2188,0.2087,0.1985,0.1918,0.1614,0.1379,0.1311,0.1176,0.1109,0.1109,0.1109,0.1109,0.1109,0.1089,0.1113,0.1147,0.1174,0.1204,1.4202,1.3948,1.3478,1.3189,1.3063,1.3033,1.3094,1.2845,1.2681,1.2974,1.2536,1.219,1.2468,1.3306,1.4201,1.5108,1.6287,1.7483,1.8707,1.8878,1.8967,1.9176,1.9219,1.8933,1.8169,1.8009,1.7584,1.6772,1.5884,1.5403,1.5427,1.512,1.5377,1.6395,1.6204,1.6222,1.6454,1.695,1.6962,1.6534,1.6008,1.5566,1.5191,1.3721,1.2392,1.1338,1.0789,0.9912,0.8865,0.8796,0.88,0.8804,0.8633,0.8612,0.8612,0.8612,0.8612,0.8612,0.8612,0.8612,0.8612,0.8612,0.8612,0.8612,0.8612,0.8612,0.8575,0.8373,0.8308,0.8256,0.8093,0.8016,0.7943,0.7837,0.778,0.7718,0.7555,0.7484,0.7484,0.7484,0.7484,0.7053,0.5583,0.5234,0.4614,0.2994,0.3141,0.3171,0.2426,0.2327,0.2287,0.2221,0.2188,0.2188,0.2188,0.2188,0.212,0.1951,0.1715,0.1513,0.1344,0.1176,0.1109,0.1109,0.1109,0.1109,0.1109,0.1102,0.1119,0.1128,0.1181,0.121,1.3385,1.2801,1.221,1.2536,1.2358,1.221,1.2536,1.2348,1.2133,1.2194,1.2109,1.1954,1.1747,1.2899,1.4179,1.4995,1.6141,1.7361,1.8544,1.8719,1.8736,1.8797,1.8815,1.8738,1.8574,1.7943,1.7267,1.6756,1.5884,1.5604,1.6036,1.5113,1.4882,1.5528,1.5859,1.61,1.6271,1.6504,1.6529,1.6265,1.6132,1.569,1.4988,1.3661,1.2557,1.1591,1.0796,0.9955,0.9124,0.8759,0.8694,0.8804,0.8633,0.8612,0.8612,0.8612,0.8612,0.8612,0.8612,0.8612,0.8612,0.8612,0.8612,0.8612,0.8612,0.8612,0.8604,0.8571,0.841,0.8284,0.8251,0.8024,0.7837,0.7808,0.7682,0.7559,0.7488,0.7484,0.7484,0.7484,0.7484,0.7403,0.7134,0.6472,0.5653,0.4613,0.3951,0.3456,0.3155,0.3071,0.2818,0.2255,0.2188,0.2188,0.2188,0.2188,0.2188,0.2154,0.1817,0.158,0.1547,0.1244,0.1109,0.1109,0.1109,0.1109,0.1109,0.1115,0.1144,0.1195,0.1206,0.1239,1.3278,1.2787,1.2272,1.2287,1.1995,1.1794,1.2191,1.1999,1.1807,1.2016,1.2053,1.199,1.184,1.2799,1.3772,1.4368,1.5487,1.6697,1.7908,1.8265,1.8485,1.8687,1.8715,1.8632,1.8421,1.8204,1.78,1.7101,1.6432,1.5868,1.5361,1.5051,1.495,1.5082,1.5676,1.5887,1.5695,1.638,1.6525,1.6164,1.615,1.5784,1.5116,1.3395,1.2161,1.1419,1.027,0.9491,0.8993,0.8775,0.8747,0.8804,0.8633,0.8612,0.8612,0.8612,0.8612,0.8612,0.8612,0.8612,0.8612,0.8612,0.8612,0.8612,0.8612,0.8612,0.8612,0.8612,0.8547,0.841,0.8316,0.8162,0.8029,0.7845,0.7657,0.7484,0.7484,0.7484,0.7484,0.7484,0.7484,0.7365,0.6899,0.6475,0.5883,0.4951,0.4719,0.4495,0.3958,0.3818,0.3485,0.2787,0.272,0.2586,0.2221,0.2188,0.2154,0.2052,0.1749,0.1547,0.1446,0.121,0.1109,0.1109,0.1109,0.1109,0.1109,0.1142,0.1173,0.1203,0.1236,0.1267,1.3205,1.2932,1.2516,1.2147,1.1657,1.1321,1.1672,1.1354,1.1155,1.1685,1.1791,1.1849,1.1948,1.2707,1.3424,1.3818,1.4827,1.5982,1.7193,1.7651,1.7972,1.8403,1.8449,1.833,1.7981,1.8078,1.7932,1.7441,1.679,1.5831,1.4502,1.4848,1.5,1.4745,1.5444,1.5603,1.5159,1.613,1.6366,1.5923,1.5976,1.5687,1.5059,1.296,1.1767,1.1203,0.9717,0.8943,0.8767,0.8767,0.8767,0.8751,0.8621,0.8612,0.8612,0.8612,0.8612,0.8612,0.8612,0.8612,0.8612,0.8612,0.8612,0.8612,0.8612,0.8612,0.8612,0.8612,0.8612,0.8575,0.839,0.8292,0.8142,0.7824,0.7629,0.7484,0.7484,0.7484,0.7484,0.7484,0.7484,0.7288,0.6591,0.6475,0.6161,0.5173,0.546,0.5542,0.4766,0.4603,0.428,0.352,0.3151,0.2787,0.2255,0.2188,0.212,0.1985,0.1748,0.1513,0.1379,0.121,0.1109,0.1109,0.1109,0.1109,0.1109,0.1165,0.1196,0.1204,0.126,0.129,1.2728,1.2547,1.2274,1.1991,1.1172,1.045,1.0542,0.9963,0.9689,1.0636,1.0833,1.0985,1.1464,1.2507,1.3424,1.3818,1.4598,1.5579,1.6789,1.6991,1.7165,1.7559,1.7605,1.7587,1.7559,1.688,1.6704,1.7359,1.6224,1.5124,1.4206,1.4347,1.4389,1.4171,1.4825,1.5078,1.4936,1.5439,1.5609,1.538,1.538,1.5096,1.4512,1.2668,1.1641,1.1198,0.9406,0.8633,0.8637,0.8637,0.8637,0.8633,0.8616,0.8612,0.8612,0.8612,0.8612,0.8612,0.8612,0.8612,0.8612,0.8612,0.8612,0.8612,0.8612,0.8612,0.8612,0.8612,0.8612,0.8608,0.8592,0.8292,0.7951,0.7594,0.7496,0.7484,0.7484,0.7484,0.7484,0.7484,0.7484,0.748,0.7407,0.7365,0.7088,0.6182,0.6129,0.6019,0.5617,0.5507,0.5157,0.4298,0.3054,0.2255,0.2221,0.2188,0.2188,0.2188,0.1817,0.158,0.158,0.1277,0.1109,0.1109,0.1109,0.1109,0.1109,0.1109,0.114,0.1203,0.12,0.123,1.1602,1.1647,1.1671,1.1561,1.0771,1.0124,1.0583,0.9975,0.9557,1.0344,1.0516,1.0764,1.1589,1.1928,1.2476,1.3707,1.4157,1.4882,1.6349,1.6762,1.7055,1.7449,1.7495,1.7403,1.7165,1.7027,1.6896,1.6647,1.5635,1.4751,1.4117,1.4166,1.4243,1.4279,1.4531,1.4713,1.4788,1.5155,1.5309,1.5246,1.5294,1.51,1.4703,1.3229,1.2118,1.1241,0.9946,0.9087,0.8612,0.8612,0.8612,0.8612,0.8612,0.8612,0.8612,0.8612,0.8612,0.8612,0.8612,0.8612,0.8612,0.8612,0.8612,0.8612,0.8612,0.8612,0.8612,0.8612,0.8612,0.8588,0.8473,0.813,0.7797,0.7541,0.7484,0.7484,0.7484,0.7484,0.7484,0.7484,0.7484,0.7484,0.7484,0.7484,0.7329,0.6885,0.6813,0.671,0.6506,0.5983,0.548,0.5114,0.4128,0.3121,0.2288,0.2188,0.2154,0.2018,0.1884,0.1681,0.1446,0.1277,0.1186,0.1102,0.1103,0.1112,0.1165,0.1161,0.1182,0.1194,0.1225,0.1284,1.0993,1.1145,1.1245,1.1245,1.0496,0.9892,1.0294,0.9786,0.9407,1.004,1.0167,1.0425,1.1307,1.1567,1.207,1.3301,1.3824,1.4552,1.5936,1.6367,1.6734,1.7257,1.7321,1.7211,1.6936,1.7266,1.7021,1.5879,1.5354,1.4724,1.3983,1.3955,1.4032,1.4143,1.4308,1.4434,1.4476,1.4866,1.502,1.4977,1.5062,1.4975,1.4618,1.3634,1.2478,1.1235,1.0371,0.9471,0.8612,0.8612,0.8612,0.8612,0.8612,0.8612,0.8612,0.8612,0.8612,0.8612,0.8612,0.8612,0.8612,0.8612,0.8612,0.8612,0.8612,0.8612,0.8612,0.8612,0.8571,0.8486,0.8256,0.8024,0.7751,0.7567,0.7484,0.7484,0.7484,0.7484,0.7484,0.7484,0.7484,0.7484,0.7484,0.7484,0.7443,0.7322,0.7301,0.7236,0.7094,0.6489,0.5955,0.5617,0.5036,0.409,0.2622,0.2321,0.2154,0.1985,0.1884,0.1688,0.1429,0.1293,0.1207,0.1134,0.1134,0.1145,0.1203,0.1197,0.1212,0.1213,0.1281,0.1307,1.1216,1.1308,1.11,1.11,1.0388,0.9621,0.9305,0.9011,0.8949,0.9484,0.9614,0.9769,1.032,1.1557,1.2501,1.251,1.364,1.4781,1.5579,1.5698,1.6001,1.6817,1.6908,1.6908,1.6908,1.7266,1.6828,1.5216,1.5475,1.5092,1.3668,1.3606,1.3606,1.3606,1.4123,1.4255,1.4001,1.4462,1.4615,1.4398,1.4615,1.4503,1.4088,1.3591,1.2644,1.1278,1.0577,0.9632,0.8612,0.8612,0.8612,0.8612,0.8612,0.8612,0.8612,0.8612,0.8612,0.8612,0.8612,0.8612,0.8612,0.8612,0.8612,0.8612,0.8612,0.8612,0.8612,0.8612,0.8477,0.8251,0.8065,0.789,0.7751,0.7567,0.7484,0.7484,0.7484,0.7484,0.7484,0.7484,0.7484,0.7484,0.7484,0.7484,0.7484,0.748,0.748,0.7419,0.7207,0.7183,0.6787,0.571,0.5607,0.4925,0.3324,0.2586,0.2188,0.2188,0.1817,0.1634,0.1679,0.1331,0.1135,0.1202,0.1203,0.1203,0.1203,0.1197,0.1212,0.1213,0.1281,0.1289,0.8359,0.8874,0.9281,0.9366,0.9241,0.9112,0.9184,0.8864,0.8615,0.8967,0.9192,0.9589,1.0464,1.0882,1.143,1.2335,1.3228,1.4092,1.4895,1.5204,1.5554,1.6097,1.6158,1.6333,1.6839,1.6554,1.6001,1.5147,1.4712,1.4217,1.3614,1.3757,1.3967,1.413,1.4196,1.428,1.4469,1.4476,1.4608,1.4873,1.4741,1.4741,1.4755,1.444,1.362,1.2419,1.1606,1.0577,0.9428,0.8823,0.8612,0.8612,0.8612,0.8612,0.8612,0.8612,0.8612,0.8612,0.8612,0.8612,0.8612,0.8612,0.8612,0.8612,0.8612,0.8612,0.8588,0.8414,0.8337,0.8219,0.7959,0.7841,0.7751,0.7567,0.7484,0.7484,0.7484,0.7484,0.7484,0.7484,0.7484,0.7484,0.7484,0.7484,0.7484,0.7484,0.7484,0.7464,0.7407,0.7297,0.7069,0.6735,0.6151,0.5101,0.3364,0.3017,0.2675,0.2213,0.2077,0.1926,0.1726,0.1585,0.1422,0.1197,0.1198,0.1208,0.1267,0.1277,0.1254,0.1274,0.1284,0.132,0.6907,0.7537,0.8017,0.8212,0.8288,0.8354,0.8521,0.8385,0.83,0.8577,0.8948,0.9437,1.0172,1.0451,1.0856,1.1704,1.2481,1.325,1.4003,1.4388,1.4772,1.5298,1.5365,1.5542,1.6009,1.5613,1.51,1.4553,1.4015,1.3668,1.3447,1.3595,1.3804,1.4103,1.4266,1.4344,1.435,1.458,1.4768,1.4911,1.4942,1.4957,1.4957,1.4957,1.4265,1.2972,1.2157,1.1095,0.0,0.8955,0.8612,0.8612,0.8612,0.8612,0.8612,0.8612,0.8612,0.8612,0.8612,0.8612,0.8612,0.8612,0.8563,0.8506,0.8506,0.8555,0.8571,0.8345,0.8239,0.8122,0.7873,0.7747,0.7665,0.7551,0.7484,0.7484,0.7484,0.7484,0.7484,0.7484,0.7484,0.7484,0.7484,0.7484,0.7484,0.7484,0.7484,0.7484,0.7484,0.7387,0.7297,0.7195,0.672,0.5786,0.4333,0.3698,0.3172,0.277,0.2383,0.2017,0.1737,0.1665,0.1498,0.1228,0.1229,0.1277,0.1296,0.1308,0.129,0.132,0.1331,0.1355,0.0,0.7095,0.7273,0.7533,0.7554,0.7513,0.7513,0.7699,0.0,0.8277,0.8798,0.9301,0.9601,1.0206,1.0674,1.0696,1.1474,1.2343,1.2965,1.3385,1.3852,1.453,1.4565,1.4565,1.4673,1.4601,1.4243,1.3535,1.3462,1.3346,1.3219,1.3193,1.332,1.3593,1.4289,1.4398,1.3824,1.4623,1.4911,1.4617,1.5146,1.5173,1.4776,1.5215,1.4566,1.3099,1.2328,1.1262,0.9941,0.8999,0.8612,0.8612,0.8612,0.8612,0.8612,0.8612,0.8612,0.8612,0.8612,0.8612,0.8608,0.8596,0.8482,0.8308,0.8296,0.841,0.8555,0.8321,0.8146,0.7971,0.7829,0.7653,0.7484,0.7484,0.7484,0.7484,0.7484,0.7484,0.7484,0.7484,0.7484,0.7484,0.7484,0.7484,0.7484,0.7484,0.7484,0.7484,0.7484,0.7484,0.7419,0.7223,0.7207,0.6881,0.61,0.4584,0.3638,0.3608,0.2666,0.2035,0.1822,0.1633,0.1458,0.1335,0.1298,0.13,0.13,0.1291,0.1322,0.1309,0.1378,0.1391,0.5576,0.0,0.6366,0.6563,0.7116,0.7581,0.0,0.7626,0.7692,0.7775,0.8504,0.9143,0.9235,0.9797,1.0328,1.0592,1.1464,1.2247,1.266,1.3189,1.3787,1.4514,1.4106,1.4214,1.5401,1.4466,1.368,1.3491,1.2915,1.2753,1.318,1.3142,1.3257,1.3586,1.4051,1.4129,1.3817,1.4403,1.477,1.4819,1.5228,1.5347,1.5257,1.534,1.5131,1.4524,1.276,1.1729,1.1139,0.934,0.8612,0.8612,0.8612,0.8612,0.8612,0.8612,0.8612,0.8612,0.8612,0.8612,0.8588,0.8402,0.8422,0.8518,0.8333,0.8321,0.8316,0.813,0.8048,0.7939,0.763,0.7555,0.7484,0.7484,0.7484,0.7484,0.7484,0.7484,0.7484,0.7484,0.7484,0.7484,0.7484,0.7484,0.7484,0.7484,0.7484,0.7484,0.7484,0.7484,0.7468,0.7427,0.7423,0.7331,0.7131,0.5445,0.4172,0.3703,0.2848,0.2275,0.2098,0.1908,0.172,0.1533,0.136,0.1292,0.1292,0.1281,0.131,0.138,0.1386,0.1402,0.5529,0.5689,0.5872,0.5997,0.6413,0.6807,0.6807,0.7012,0.7245,0.7375,0.8318,0.9131,0.9251,0.9531,0.9931,1.0503,1.086,1.1455,1.2616,1.3183,1.3637,1.4034,1.3745,1.3673,1.4142,1.3426,1.2952,1.2952,1.2556,1.2505,1.2973,1.2993,1.3086,1.3339,1.362,1.3723,1.3561,1.4341,1.4634,1.4509,1.509,1.5309,1.517,1.5316,1.5226,1.4744,1.2739,1.1725,1.1308,0.9289,0.8535,0.8612,0.8612,0.8612,0.8612,0.8612,0.8612,0.86,0.8514,0.8385,0.8296,0.8195,0.8178,0.8237,0.817,0.8162,0.8158,0.8146,0.8081,0.7951,0.7718,0.7584,0.7484,0.7484,0.7484,0.7484,0.7484,0.7484,0.7484,0.7484,0.7484,0.7484,0.7484,0.7484,0.7484,0.7484,0.7484,0.7484,0.7484,0.7484,0.7484,0.7484,0.7484,0.7484,0.7484,0.6163,0.5208,0.4863,0.3721,0.2897,0.2623,0.2159,0.1778,0.1478,0.1349,0.133,0.1343,0.1359,0.1382,0.1411,0.1411,0.142,0.5723,0.583,0.584,0.5755,0.5843,0.5939,0.5939,0.6323,0.6725,0.7024,0.8095,0.9046,0.921,0.9388,0.9721,1.0418,1.031,1.0759,1.2614,1.3143,1.3353,1.3499,1.339,1.3098,1.2556,1.2372,1.2305,1.2305,1.2305,1.2432,1.277,1.2737,1.2813,1.3006,1.3154,1.324,1.3285,1.4252,1.4523,1.3996,1.4867,1.5119,1.4907,1.5192,1.5102,1.46,1.2618,1.1585,1.1166,0.9179,0.8441,0.8612,0.8612,0.8612,0.8612,0.8612,0.8612,0.8588,0.8353,0.817,0.8008,0.7983,0.7894,0.7861,0.7939,0.7992,0.8044,0.8203,0.8134,0.7971,0.7845,0.7661,0.7484,0.7484,0.7484,0.7484,0.7484,0.7484,0.7484,0.7484,0.7484,0.7484,0.7484,0.7484,0.7484,0.7484,0.7484,0.7484,0.7484,0.7484,0.7484,0.7484,0.7484,0.7484,0.7484,0.6822,0.6395,0.6395,0.4763,0.3558,0.2976,0.2283,0.1715,0.1343,0.1337,0.1323,0.139,0.1395,0.141,0.1391,0.1391,0.1391,0.5153,0.5877,0.6451,0.5978,0.6009,0.6168,0.6168,0.6298,0.6473,0.6498,0.7631,0.8474,0.8052,0.9317,1.0361,1.0263,1.0982,1.1779,1.233,1.2455,1.2739,1.3426,1.2915,1.2703,1.3244,1.2703,1.2305,1.2305,1.2305,1.2432,1.277,1.2543,1.256,1.2999,1.2984,1.3043,1.3191,1.3825,1.4077,1.4027,1.4414,1.4728,1.49,1.4951,1.5097,1.517,1.2924,1.1902,1.1699,0.9484,0.8566,0.8612,0.8612,0.8612,0.8612,0.8612,0.8612,0.8588,0.8353,0.817,0.7992,0.7886,0.7878,0.7951,0.7873,0.7898,0.802,0.8048,0.8032,0.7971,0.7845,0.7661,0.7484,0.7484,0.7484,0.7484,0.7484,0.7484,0.7484,0.7484,0.7484,0.7484,0.7484,0.7484,0.7484,0.7484,0.7484,0.7484,0.7484,0.7484,0.7484,0.7484,0.7484,0.7484,0.7484,0.7365,0.7288,0.7288,0.5112,0.3365,0.2391,0.2038,0.1782,0.1547,0.144,0.1386,0.139,0.1416,0.1386,0.1391,0.1391,0.1391,0.5031,0.5578,0.61,0.6078,0.6363,0.6611,0.6485,0.6605,0.668,0.6587,0.7364,0.7989,0.7754,0.8524,0.9365,0.9935,1.084,1.1816,1.2821,1.2952,1.3098,1.3462,1.3171,1.2915,1.2849,1.2519,1.2238,1.2078,1.2211,1.2291,1.2308,1.2291,1.2513,1.2916,1.2933,1.3046,1.3346,1.3608,1.3718,1.3726,1.4269,1.4545,1.4692,1.482,1.498,1.5022,1.2845,1.177,1.141,0.9294,0.8421,0.8469,0.8571,0.8612,0.86,0.8498,0.8353,0.8256,0.817,0.7959,0.7732,0.7792,0.7784,0.7732,0.7792,0.7853,0.7894,0.7988,0.7947,0.7858,0.782,0.7661,0.7484,0.7484,0.7484,0.7484,0.7484,0.7484,0.7484,0.7484,0.7484,0.7484,0.7484,0.7484,0.7484,0.7484,0.7484,0.7484,0.7484,0.7484,0.7484,0.7484,0.7484,0.7484,0.7484,0.7484,0.7288,0.6822,0.5229,0.3793,0.2741,0.211,0.1698,0.1451,0.1428,0.1414,0.1414,0.1383,0.1391,0.1391,0.1391,0.1391,0.4818,0.5246,0.5696,0.6123,0.6458,0.6678,0.668,0.6826,0.6898,0.6773,0.7337,0.7836,0.7784,0.8079,0.88,1.0235,1.0807,1.1589,1.3025,1.3208,1.3208,1.3208,1.3208,1.2989,1.2378,1.2305,1.2184,1.1926,1.2138,1.2178,1.1919,1.2144,1.2489,1.29,1.29,1.3083,1.3492,1.3492,1.3492,1.3499,1.4004,1.4364,1.4511,1.464,1.4761,1.4797,1.2664,1.1587,1.1127,0.9178,0.8363,0.8365,0.8506,0.8518,0.8422,0.8276,0.8109,0.7955,0.7955,0.7744,0.7504,0.769,0.7637,0.7547,0.769,0.7735,0.7759,0.7854,0.7797,0.7743,0.7788,0.7661,0.7484,0.7484,0.7484,0.7484,0.7484,0.7484,0.7484,0.7484,0.7484,0.7484,0.7484,0.7484,0.7484,0.7484,0.7484,0.7484,0.7484,0.7484,0.7484,0.7484,0.7559,0.7584,0.7584,0.7584,0.7254,0.6553,0.5425,0.43,0.3287,0.2295,0.1677,0.1462,0.1401,0.1384,0.137,0.1377,0.138,0.138,0.138,0.1383,0.4122,0.4935,0.5654,0.6226,0.6034,0.5876,0.6545,0.6709,0.6775,0.6939,0.7645,0.8215,0.8018,0.8755,1.0,1.184,1.1558,1.1409,1.2268,1.2372,1.2372,1.2372,1.2372,1.2372,1.2305,1.2305,1.2184,1.1926,1.2138,1.2178,1.1919,1.2144,1.2489,1.29,1.29,1.3083,1.3492,1.3492,1.3492,1.3492,1.3543,1.3879,1.4496,1.4218,1.4377,1.4783,1.2589,1.1567,1.1316,0.9398,0.8565,0.8575,0.8369,0.8207,0.8052,0.804,0.7923,0.782,0.782,0.769,0.7484,0.7535,0.7492,0.7484,0.7535,0.7539,0.7504,0.7516,0.7512,0.758,0.7755,0.7661,0.7484,0.7484,0.7484,0.7484,0.7484,0.7484,0.7484,0.7484,0.7484,0.7484,0.7484,0.7484,0.7484,0.7484,0.7484,0.7484,0.7484,0.7484,0.7484,0.7484,0.7677,0.778,0.778,0.778,0.7667,0.7415,0.5893,0.4611,0.3791,0.2623,0.1956,0.1874,0.1563,0.1364,0.1312,0.138,0.1393,0.1393,0.1393,0.1408,0.3396,0.4364,0.5325,0.5686,0.5935,0.6245,0.6772,0.7034,0.7167,0.7131,0.7484,0.7889,0.8193,0.825,0.8825,1.0516,1.0126,0.99,1.0683,1.0795,1.0987,1.1477,1.1558,1.1744,1.2268,1.2305,1.2184,1.1926,1.2007,1.202,1.1913,1.2013,1.2263,1.2709,1.282,1.3046,1.3309,1.3455,1.3492,1.3492,1.3492,1.3733,1.4196,1.4078,1.4223,1.4579,1.3042,1.1963,1.1266,0.9893,0.8963,0.8404,0.8318,0.8247,0.8158,0.7939,0.7853,0.7784,0.7665,0.758,0.7484,0.7484,0.7484,0.7484,0.7484,0.7484,0.7484,0.7484,0.7484,0.75,0.7608,0.7575,0.7484,0.7484,0.7484,0.7484,0.7484,0.7484,0.7484,0.7484,0.7484,0.7484,0.7484,0.7484,0.7484,0.7484,0.7484,0.7484,0.7484,0.762,0.7694,0.7694,0.7813,0.7918,0.7918,0.7918,0.7841,0.7706,0.5983,0.4807,0.4375,0.2826,0.1914,0.1709,0.15,0.1387,0.1305,0.1316,0.1321,0.1322,0.1382,0.1396,0.3038,0.3982,0.5031,0.5413,0.6064,0.6737,0.6985,0.7228,0.7382,0.7322,0.7543,0.7903,0.8384,0.8098,0.8208,0.9653,0.9226,0.8965,0.9782,0.9895,1.0201,1.0993,1.1039,1.1316,1.2218,1.2218,1.2084,1.1919,1.1993,1.2,1.1906,1.1993,1.2206,1.2592,1.2783,1.301,1.32,1.3382,1.3492,1.3492,1.3492,1.3667,1.402,1.3879,1.4042,1.4296,1.3158,1.2113,1.115,1.015,0.9102,0.8159,0.816,0.8085,0.8004,0.78,0.771,0.7694,0.7567,0.7484,0.7484,0.7484,0.7484,0.7484,0.7484,0.7484,0.7484,0.7484,0.7484,0.7484,0.7484,0.7484,0.7484,0.7484,0.7484,0.7484,0.7484,0.7484,0.7484,0.7484,0.7484,0.7484,0.7484,0.7484,0.7484,0.7484,0.7484,0.7504,0.7604,0.7722,0.7841,0.7955,0.8032,0.8101,0.8101,0.8101,0.8004,0.7816,0.6333,0.5277,0.4807,0.305,0.1976,0.1811,0.1609,0.1457,0.1376,0.1352,0.1314,0.1306,0.1377,0.139,0.3086,0.3938,0.4766,0.5506,0.643,0.7191,0.7191,0.7191,0.7281,0.7452,0.7906,0.8388,0.8661,0.8463,0.8648,0.9707,0.9226,0.896,0.9782,0.9895,1.0158,1.0993,1.0845,1.1112,1.2191,1.2037,1.1906,1.1906,1.2131,1.2171,1.1926,1.2144,1.2372,1.2599,1.279,1.301,1.32,1.3382,1.3492,1.3492,1.3492,1.3667,1.3967,1.3638,1.3667,1.3922,1.281,1.1859,1.1028,1.0027,0.8897,0.7804,0.78,0.7686,0.7484,0.7484,0.7484,0.7484,0.7484,0.7484,0.7484,0.7484,0.7484,0.7484,0.7484,0.7484,0.7484,0.7484,0.7484,0.7484,0.7484,0.7484,0.7484,0.7484,0.7484,0.7484,0.7484,0.7484,0.7484,0.7484,0.7484,0.7484,0.7484,0.7484,0.7484,0.7484,0.7484,0.7592,0.778,0.7804,0.7939,0.8256,0.8292,0.8292,0.8292,0.8292,0.8142,0.7829,0.6958,0.605,0.5049,0.3205,0.2211,0.2199,0.189,0.1659,0.1588,0.1489,0.1374,0.1305,0.1376,0.139,0.2419,0.3123,0.402,0.4786,0.5835,0.6756,0.7293,0.7508,0.7657,0.7706,0.7726,0.7947,0.8575,0.8159,0.8027,0.8912,0.8394,0.794,0.8161,0.8199,0.8448,0.9116,0.9261,0.9733,1.0858,1.101,1.1293,1.187,1.1757,1.183,1.2158,1.2094,1.2127,1.2372,1.2709,1.2936,1.2973,1.3346,1.3492,1.3492,1.3492,1.3543,1.3638,1.3543,1.355,1.3638,1.3279,1.2388,1.0974,0.9413,0.8422,0.7927,0.7845,0.7767,0.7702,0.7571,0.7484,0.7484,0.7484,0.7484,0.7484,0.7484,0.7484,0.7484,0.7484,0.7484,0.7484,0.7484,0.7484,0.7484,0.7484,0.7484,0.7484,0.7484,0.7484,0.7484,0.7484,0.7484,0.7484,0.7484,0.7484,0.7484,0.7484,0.7484,0.7567,0.7698,0.7718,0.7829,0.8135,0.8134,0.8265,0.8506,0.8526,0.8526,0.8526,0.8526,0.8429,0.815,0.6696,0.5631,0.5098,0.3798,0.2855,0.2348,0.206,0.1842,0.167,0.165,0.1519,0.1286,0.1337,0.1318,0.2202,0.291,0.3803,0.4603,0.5632,0.6649,0.7438,0.7661,0.769,0.769,0.76,0.7633,0.8131,0.7825,0.7672,0.8131,0.7825,0.7484,0.7484,0.7423,0.7635,0.8323,0.8354,0.8763,0.9949,1.0095,1.039,1.1064,1.1222,1.1422,1.1798,1.1956,1.2124,1.2291,1.2673,1.29,1.29,1.3309,1.3492,1.3492,1.3492,1.3492,1.3492,1.3492,1.3492,1.3499,1.3156,1.2261,1.085,0.9366,0.8413,0.7917,0.7731,0.769,0.7677,0.7563,0.7484,0.7484,0.7484,0.7484,0.7484,0.7484,0.7484,0.7484,0.7484,0.7484,0.7484,0.7484,0.7484,0.7484,0.7484,0.7484,0.7484,0.7484,0.7484,0.7484,0.7484,0.7484,0.7484,0.7484,0.7484,0.7504,0.762,0.7633,0.7694,0.7833,0.7963,0.809,0.8264,0.8353,0.8486,0.86,0.8612,0.8612,0.8612,0.8612,0.8531,0.8304,0.7257,0.6238,0.5248,0.3926,0.2984,0.2523,0.229,0.2066,0.1815,0.1748,0.1604,0.1317,0.1284,0.1305,0.2331,0.3011,0.3887,0.4789,0.5838,0.6835,0.7601,0.7657,0.7484,0.7484,0.7484,0.7484,0.7484,0.7484,0.7484,0.7484,0.7484,0.7484,0.7484,0.7346,0.7496,0.8199,0.7915,0.8141,0.9336,0.9223,0.9317,0.983,1.0542,1.0969,1.0993,1.1669,1.2114,1.2194,1.2562,1.2826,1.29,1.3273,1.3499,1.3492,1.3492,1.3492,1.3492,1.3492,1.3492,1.3455,1.2636,1.1731,1.0714,0.9744,0.8737,0.7765,0.7603,0.7522,0.7484,0.7484,0.7484,0.7484,0.7484,0.7484,0.7484,0.7484,0.7484,0.7484,0.7484,0.7484,0.7484,0.7484,0.7484,0.7484,0.7484,0.7484,0.7484,0.7484,0.7484,0.7484,0.7484,0.7484,0.7484,0.7484,0.7484,0.758,0.7767,0.78,0.7865,0.8012,0.8195,0.8316,0.8316,0.8506,0.8612,0.8612,0.8612,0.8612,0.8612,0.8612,0.8539,0.8325,0.8227,0.7364,0.5508,0.3825,0.2864,0.2709,0.2536,0.2317,0.2018,0.1926,0.1649,0.134,0.1332,0.1305,0.2253,0.2432,0.3013,0.4651,0.6313,0.7561,0.776,0.7657,0.7484,0.7484,0.7484,0.7484,0.7484,0.7484,0.7484,0.7484,0.7484,0.7484,0.7484,0.7452,0.7454,0.7459,0.7375,0.7586,0.8293,0.8276,0.8643,0.9526,0.973,0.9922,1.0147,1.0308,1.0726,1.1335,1.1595,1.2114,1.29,1.3119,1.3346,1.3492,1.3492,1.3492,1.3492,1.3492,1.3492,1.3455,1.2636,1.1731,1.0746,0.989,0.8851,0.7804,0.7761,0.7642,0.7484,0.7484,0.7484,0.7484,0.7484,0.7484,0.7484,0.7484,0.7484,0.7484,0.7484,0.7484,0.7484,0.7484,0.7484,0.7484,0.7484,0.7484,0.7484,0.7484,0.7484,0.7484,0.7484,0.7484,0.7484,0.7484,0.7484,0.758,0.7767,0.78,0.791,0.8182,0.839,0.8551,0.8551,0.8588,0.8612,0.8612,0.8612,0.8612,0.8612,0.8612,0.8596,0.8555,0.78,0.6825,0.5678,0.5089,0.4221,0.2877,0.2711,0.2536,0.2313,0.2241,0.1952,0.1546,0.1569,0.1514,0.2266,0.2327,0.2798,0.4614,0.6051,0.7152,0.7548,0.7592,0.7484,0.7484,0.7484,0.7484,0.7484,0.7484,0.7484,0.7484,0.7484,0.7484,0.7484,0.7411,0.7293,0.7119,0.7021,0.707,0.7346,0.7456,0.7771,0.8373,0.8847,0.9175,0.9329,0.9707,1.0276,1.1074,1.0919,1.1471,1.29,1.2703,1.2922,1.3492,1.3492,1.3492,1.3492,1.3492,1.3492,1.3499,1.3046,1.2144,1.0907,1.0378,0.9334,0.8063,0.7876,0.7723,0.7642,0.7522,0.7484,0.7484,0.7484,0.7484,0.7484,0.7484,0.7484,0.7484,0.7484,0.7484,0.7484,0.7484,0.7484,0.7484,0.7484,0.7484,0.7484,0.7484,0.7484,0.7484,0.7484,0.7484,0.7484,0.7484,0.7484,0.7569,0.7837,0.8069,0.8253,0.8437,0.8551,0.8612,0.8612,0.8612,0.8612,0.8612,0.8612,0.8612,0.8612,0.8612,0.8612,0.8612,0.812,0.7363,0.6428,0.5857,0.4722,0.2918,0.2812,0.2678,0.2436,0.2408,0.2188,0.1799,0.1737,0.164,0.232,0.2492,0.2986,0.458,0.5622,0.6433,0.7288,0.7484,0.7484,0.7484,0.7484,0.7484,0.7484,0.7484,0.7484,0.7484,0.7484,0.7484,0.7484,0.7362,0.7138,0.688,0.682,0.6759,0.6635,0.6857,0.711,0.7257,0.8005,0.8513,0.8513,0.9107,0.9863,1.0657,1.0201,1.0795,1.2636,1.2174,1.2469,1.3455,1.3499,1.3492,1.3492,1.3492,1.3492,1.3492,1.3346,1.2452,1.1074,1.0907,0.9895,0.8365,0.803,0.7876,0.7838,0.7676,0.7599,0.7599,0.7561,0.7561,0.7561,0.7522,0.7484,0.7484,0.7484,0.7484,0.7484,0.7484,0.7484,0.7484,0.7484,0.7484,0.7484,0.7484,0.7543,0.7559,0.7488,0.7508,0.7559,0.7488,0.7533,0.7667,0.7963,0.8321,0.8612,0.8612,0.8612,0.8612,0.8612,0.8612,0.86,0.8567,0.8592,0.86,0.8567,0.8592,0.8612,0.8612,0.8612,0.8164,0.7139,0.6207,0.4877,0.3187,0.2953,0.2788,0.2565,0.2555,0.2375,0.2085,0.1875,0.1768,0.2152,0.2778,0.3696,0.4755,0.5622,0.6433,0.7288,0.7484,0.7484,0.7484,0.7484,0.7484,0.7484,0.7484,0.7484,0.7484,0.7484,0.7484,0.7484,0.7464,0.7168,0.6416,0.6809,0.6912,0.6329,0.6809,0.7261,0.7435,0.7583,0.7672,0.7672,0.7748,0.8203,0.9003,0.8927,0.9755,1.1595,1.17,1.2224,1.3236,1.3419,1.3492,1.3492,1.3492,1.3492,1.3455,1.2753,1.1929,1.1111,1.1068,1.0019,0.8403,0.8327,0.8217,0.8063,0.8025,0.8025,0.7987,0.7838,0.7765,0.7723,0.7561,0.7484,0.7484,0.7484,0.7484,0.7484,0.7484,0.7484,0.7484,0.7484,0.7484,0.7484,0.7484,0.7645,0.7718,0.7555,0.7649,0.7714,0.7516,0.7732,0.7959,0.8004,0.8321,0.8612,0.8612,0.8612,0.8612,0.8612,0.8612,0.8551,0.8345,0.8514,0.8547,0.8341,0.8518,0.8612,0.8612,0.8612,0.8164,0.7139,0.6207,0.5186,0.4121,0.326,0.2792,0.274,0.2688,0.2569,0.2344,0.2267,0.2081,0.2154,0.2492,0.3095,0.4094,0.4921,0.5738,0.6591,0.7134,0.7484,0.7484,0.7484,0.7484,0.7484,0.7484,0.7484,0.7484,0.7484,0.7326,0.6822,0.6784,0.6402,0.5477,0.5607,0.5824,0.5919,0.6307,0.676,0.7292,0.7427,0.7484,0.7484,0.7484,0.7863,0.8665,0.8365,0.9079,1.087,1.1099,1.1922,1.3382,1.3455,1.3492,1.3499,1.3046,1.3083,1.3499,1.3119,1.2261,1.1111,1.1111,1.0094,0.8551,0.8441,0.8327,0.8255,0.814,0.8102,0.8102,0.7991,0.7953,0.7953,0.7723,0.7684,0.7642,0.7522,0.7484,0.7484,0.7484,0.7484,0.7543,0.7649,0.7677,0.7686,0.7679,0.7874,0.8065,0.791,0.7894,0.7878,0.7797,0.7992,0.817,0.817,0.839,0.8612,0.8612,0.8612,0.8612,0.8612,0.8612,0.858,0.8498,0.8563,0.8575,0.8494,0.8563,0.8612,0.8612,0.8612,0.8388,0.7944,0.7007,0.603,0.5099,0.3599,0.2834,0.2834,0.2773,0.2684,0.2566,0.2428,0.2267,0.2165,0.2197,0.2476,0.3487,0.4205,0.4925,0.5964,0.6707,0.7249,0.7446,0.7484,0.7484,0.7484,0.7484,0.7484,0.7484,0.7484,0.7211,0.6318,0.6202,0.5774,0.4609,0.4636,0.4983,0.5482,0.5858,0.6375,0.7214,0.7411,0.7484,0.7484,0.7484,0.7787,0.836,0.8025,0.8551,1.0115,1.0752,1.1916,1.3492,1.3492,1.3492,1.3499,1.2863,1.2936,1.3499,1.3083,1.2224,1.1074,1.0887,0.9986,0.8699,0.8556,0.8475,0.8441,0.8289,0.8255,0.8255,0.8178,0.8178,0.814,0.7953,0.7842,0.7765,0.7603,0.7522,0.7492,0.758,0.7592,0.7637,0.7816,0.7865,0.7837,0.7837,0.8093,0.828,0.8235,0.8113,0.8012,0.8012,0.8162,0.8292,0.8292,0.8486,0.8612,0.8612,0.8612,0.8612,0.8612,0.8612,0.8596,0.8547,0.8584,0.8592,0.8547,0.8584,0.8612,0.8612,0.8612,0.8612,0.8612,0.7632,0.6786,0.6074,0.4431,0.3365,0.292,0.2828,0.2775,0.2717,0.2589,0.2456,0.2071,0.2107,0.2351,0.3367,0.368,0.4185,0.5822,0.624,0.6511,0.7326,0.7484,0.7484,0.7484,0.7484,0.7484,0.7484,0.7484,0.7211,0.6318,0.6202,0.5616,0.4018,0.4525,0.4991,0.5024,0.5722,0.6538,0.7429,0.748,0.7484,0.7484,0.7484,0.7522,0.7557,0.7723,0.8217,0.9074,1.0987,1.2452,1.3492,1.3492,1.3492,1.3492,1.3455,1.3455,1.3419,1.1892,1.1186,1.1037,1.0293,0.9463,0.8703,0.8699,0.8703,0.8665,0.8665,0.8665,0.8627,0.8441,0.8365,0.8365,0.814,0.7953,0.7804,0.7804,0.7642,0.7559,0.7735,0.7784,0.7824,0.7955,0.8,0.8,0.8004,0.815,0.8292,0.8284,0.8142,0.8012,0.8012,0.8162,0.8292,0.8292,0.8486,0.8612,0.8612,0.8612,0.8612,0.8612,0.8612,0.8543,0.8325,0.8506,0.8539,0.8321,0.851,0.8612,0.8612,0.8612,0.8612,0.8612,0.7632,0.7095,0.7007,0.6074,0.4699,0.292,0.2915,0.2882,0.2778,0.2782,0.2651,0.2013,0.2037,0.2144,0.2576,0.3184,0.3932,0.5086,0.5899,0.6469,0.6663,0.6785,0.6824,0.6742,0.7169,0.7326,0.6745,0.6668,0.6202,0.4841,0.4647,0.4219,0.3093,0.3212,0.36,0.4183,0.496,0.5777,0.6591,0.7173,0.7484,0.7484,0.7603,0.7684,0.7684,0.8025,0.8894,1.0319,1.1068,1.2114,1.3492,1.3492,1.3492,1.3492,1.3492,1.3492,1.3419,1.1781,1.1111,1.1074,1.0775,0.9911,0.8703,0.8703,0.8703,0.8703,0.8703,0.8703,0.8699,0.8627,0.8589,0.8551,0.8365,0.8255,0.814,0.7876,0.7761,0.7722,0.7786,0.78,0.7865,0.8117,0.8191,0.8223,0.8341,0.8422,0.851,0.851,0.8418,0.8369,0.8369,0.8422,0.851,0.851,0.8567,0.8612,0.8612,0.8612,0.8612,0.8612,0.8612,0.8588,0.8518,0.8571,0.8584,0.8518,0.8571,0.8612,0.8612,0.8612,0.8612,0.8612,0.8256,0.7764,0.7095,0.6786,0.5985,0.4699,0.4064,0.3718,0.3689,0.3086,0.274,0.1966,0.1987,0.2042,0.2173,0.2643,0.3411,0.467,0.5443,0.5999,0.6212,0.6354,0.6274,0.5915,0.6308,0.6553,0.624,0.597,0.5348,0.3986,0.3791,0.3482,0.2588,0.2511,0.286,0.3713,0.43,0.5038,0.6125,0.6745,0.7211,0.7565,0.7723,0.788,0.7991,0.8255,0.916,1.0663,1.0962,1.1632,1.2709,1.3236,1.3229,1.2709,1.2973,1.2936,1.2636,1.1558,1.1111,1.1074,1.0507,0.9679,0.8703,0.8703,0.8703,0.8703,0.8703,0.8703,0.8703,0.8703,0.8703,0.8665,0.8551,0.8441,0.8365,0.8068,0.7996,0.8008,0.7957,0.8011,0.8127,0.8347,0.8385,0.8414,0.858,0.8612,0.8612,0.8612,0.8612,0.8612,0.8612,0.8612,0.8612,0.8612,0.8612,0.8612,0.8612,0.8612,0.8612,0.8612,0.8612,0.8612,0.8612,0.8612,0.8612,0.8612,0.8612,0.8612,0.8612,0.8612,0.8612,0.8612,0.8612,0.83,0.7628,0.7584,0.7275,0.6653,0.5331,0.4539,0.4206,0.3587,0.3119,0.0,0.0,0.0,0.2154,0.2139,0.2603,0.4513,0.4843,0.5034,0.5985,0.616,0.589,0.5124,0.4968,0.5201,0.6015,0.547,0.4691,0.3871,0.3754,0.3446,0.2591,0.2515,0.2827,0.368,0.3795,0.4457,0.6047,0.6202,0.6668,0.7761,0.7804,0.7991,0.8403,0.8403,0.8894,0.9879,1.07,1.1111,1.1111,1.2716,1.2673,1.1149,1.1929,1.1855,1.1111,1.1074,1.1074,1.0925,0.9377,0.8737,0.8703,0.8703,0.8703,0.8703,0.8703,0.8703,0.8703,0.8703,0.8703,0.8703,0.8703,0.8556,0.8412,0.8412,0.8394,0.8391,0.8348,0.8447,0.8623,0.8603,0.8612,0.8612,0.8612,0.8612,0.8612,0.8612,0.8612,0.8612,0.8612,0.8612,0.8612,0.8612,0.8612,0.8612,0.8612,0.8612,0.8612,0.8612,0.8612,0.8612,0.8612,0.8612,0.8612,0.8612,0.8612,0.8612,0.8612,0.8612,0.8612,0.8612,0.8612,0.8612,0.8612,0.8612,0.8612,0.8612,0.6697,0.522,0.4299,0.4301,0.381,0.2044,0.0,0.0,0.0,0.0,0.0,0.3639,0.3961,0.425,0.5163,0.4852,0.4576,0.4983,0.4097,0.3534,0.433,0.4268,0.3832,0.2978,0.2904,0.2856,0.2617,0.2616,0.2706,0.2901,0.3452,0.4297,0.5467,0.5967,0.6745,0.7953,0.814,0.8365,0.8627,0.8627,0.9046,0.9879,1.07,1.1111,1.1111,1.2716,1.2673,1.1149,1.1929,1.1855,1.1074,1.0481,1.0218,1.0218,0.9765,0.9236,0.8703,0.8703,0.8703,0.8703,0.8703,0.8703,0.8703,0.8703,0.8703,0.8703,0.8703,0.8769,0.8822,0.8666,0.8723,0.8837,0.8831,0.8839,0.8879,0.8817,0.8696,0.8612,0.8612,0.8612,0.8612,0.8612,0.8612,0.8612,0.8612,0.8612,0.8612,0.8612,0.8612,0.8612,0.8612,0.8612,0.8612,0.8612,0.8612,0.8612,0.8612,0.8612,0.8612,0.8612,0.8612,0.8612,0.8612,0.8612,0.8612,0.8612,0.8612,0.8612,0.8612,0.8612,0.8612,0.8612,0.7319,0.6587,0.6286,0.4907,0.381,0.2829,0.2655,0.2544,0.2731,0.0,0.0,0.4146,0.4497,0.4775,0.5491,0.5054,0.4611,0.4875,0.3918,0.3252,0.3766,0.3848,0.355,0.2703,0.2617,0.2639,0.2639,0.267,0.2669,0.2606,0.3516,0.4414,0.524,0.6136,0.7087,0.8183,0.8403,0.8589,0.8703,0.8703,0.9079,0.9879,1.0368,1.0594,1.0625,1.2224,1.1959,1.0132,1.1292,1.118,1.0056,0.9609,0.9387,0.9387,0.9387,0.9117,0.8703,0.8703,0.8703,0.8703,0.8703,0.8703,0.8703,0.8703,0.8703,0.8703,0.8703,0.8784,0.8868,0.8844,0.8966,0.9124,0.9121,0.911,0.9112,0.8925,0.8828,0.8696,0.8612,0.8612,0.8612,0.8612,0.8612,0.8612,0.8612,0.8612,0.8612,0.8612,0.8612,0.8612,0.8612,0.8612,0.8612,0.8612,0.8612,0.8612,0.8612,0.8612,0.8612,0.8612,0.8612,0.8612,0.8612,0.8612,0.8612,0.8612,0.8612,0.8612,0.8612,0.8612,0.8612,0.8612,0.8032,0.7496,0.7051,0.5188,0.3987,0.3995,0.3773,0.3511,0.3754,0.3756,0.0,0.5315,0.5577,0.5707,0.6245,0.5805,0.5169,0.4743,0.414,0.3722,0.376,0.3806,0.3615,0.2893,0.2824,0.2828,0.2786,0.2834,0.2856,0.2791,0.3867,0.4823,0.5386,0.6641,0.7682,0.8374,0.8589,0.8689,0.867,0.8689,0.9031,0.9728,0.983,0.9841,0.9765,1.1409,1.0956,0.8742,1.0282,1.0132,0.8703,0.8703,0.8703,0.8703,0.8703,0.8703,0.8703,0.8703,0.8703,0.8703,0.8703,0.8703,0.8703,0.8703,0.8703,0.8703,0.8703,0.8718,0.8779,0.8952,0.9159,0.9325,0.9372,0.9345,0.9257,0.9043,0.8955,0.8867,0.87,0.8656,0.8612,0.8612,0.8608,0.8612,0.8612,0.8612,0.8612,0.8612,0.8612,0.8612,0.8612,0.8612,0.8612,0.8612,0.8612,0.8612,0.8612,0.8612,0.8612,0.8612,0.8612,0.8612,0.8612,0.8612,0.8612,0.8612,0.8612,0.8612,0.8612,0.8612,0.8612,0.8612,0.8612,0.8076,0.7051,0.5408,0.452,0.4746,0.4552,0.4455,0.4557,0.4483,0.0,0.4887,0.4523,0.4357,0.5256,0.4369,0.3619,0.4248,0.3623,0.2997,0.3013,0.3301,0.3427,0.3275,0.3624,0.3752,0.3409,0.3723,0.3949,0.3906,0.4635,0.5438,0.6115,0.7577,0.8397,0.8403,0.8589,0.8628,0.8463,0.8618,0.8699,0.8684,0.9488,0.9576,0.897,1.0582,1.0395,0.8737,0.969,0.9614,0.8703,0.8703,0.8703,0.8703,0.8703,0.8703,0.8703,0.8703,0.8703,0.8703,0.8703,0.8703,0.8703,0.8703,0.8703,0.8703,0.8703,0.8817,0.8962,0.9164,0.9376,0.9583,0.979,0.9705,0.9515,0.9476,0.917,0.8955,0.913,0.8872,0.8656,0.8828,0.8696,0.8612,0.8612,0.8612,0.8612,0.8612,0.8612,0.8612,0.8612,0.8612,0.8612,0.8612,0.8612,0.8612,0.8612,0.8612,0.8612,0.8612,0.8612,0.8612,0.8612,0.8612,0.8612,0.8612,0.8612,0.8612,0.8612,0.8612,0.8612,0.8612,0.8612,0.8076,0.7095,0.6741,0.5764,0.5807,0.5637,0.5411,0.5514,0.5528,0.0,0.0,0.5473,0.542,0.5846,0.5041,0.4376,0.4773,0.4199,0.3652,0.3738,0.399,0.4059,0.3655,0.3962,0.4142,0.3925,0.4138,0.4438,0.4729,0.5629,0.6672,0.7769,0.8462,0.8778,0.8556,0.8627,0.8656,0.8552,0.8647,0.8841,0.915,0.9256,0.9311,0.9311,1.0099,0.9873,0.8737,0.9539,0.9463,0.8703,0.8703,0.8703,0.8703,0.8703,0.8703,0.8703,0.8703,0.8703,0.8703,0.8703,0.8703,0.8703,0.8703,0.8703,0.8703,0.8703,0.8774,0.8921,0.9228,0.9545,0.9819,0.9966,0.9907,0.9777,0.9646,0.9432,0.9257,0.9305,0.913,0.8959,0.8911,0.8828,0.874,0.8612,0.8612,0.8612,0.8612,0.8612,0.8612,0.8612,0.8612,0.8612,0.8612,0.8612,0.8612,0.8612,0.8612,0.8612,0.8612,0.8612,0.8612,0.8612,0.8612,0.8612,0.8612,0.8612,0.8612,0.8612,0.8612,0.8612,0.8612,0.8612,0.8344,0.7852,0.7319,0.6605,0.6825,0.6671,0.6336,0.6433,0.6469,0.6506,0.0,0.0,0.0,0.6554,0.593,0.5353,0.5142,0.4673,0.4332,0.4429,0.4628,0.4568,0.3914,0.4188,0.4334,0.4132,0.4341,0.477,0.537,0.6572,0.7862,0.9238,0.9046,0.8864,0.877,0.8722,0.8685,0.8642,0.868,0.8988,0.9589,0.9021,0.9046,0.9652,0.9652,0.9349,0.8737,0.9387,0.9311,0.8703,0.8703,0.8703,0.8703,0.8703,0.8703,0.8703,0.8703,0.8703,0.8703,0.8703,0.8703,0.8703,0.8703,0.8703,0.8703,0.8703,0.8727,0.8831,0.9209,0.9587,0.9942,0.9985,0.9994,0.9951,0.9733,0.9646,0.9559,0.9476,0.9345,0.9262,0.9087,0.8955,0.8872,0.8696,0.8612,0.8612,0.8612,0.8612,0.8612,0.8612,0.8612,0.8612,0.8612,0.8612,0.8612,0.8612,0.8612,0.8612,0.8612,0.8612,0.8612,0.8612,0.8612,0.8612,0.8612,0.8612,0.8612,0.8612,0.8612,0.8612,0.8612,0.8612,0.8612,0.8568,0.7764,0.7275,0.7503,0.7265,0.7093,0.7106,0.6931,0.6838,0.7061,0.0,0.6175,0.5884,0.0,0.4642,0.4176,0.0,0.0,0.3549,0.3806,0.4006,0.39,0.448,0.4534,0.3522,0.4549,0.5518,0.5878,0.7136,0.8363,0.9503,0.8902,0.8623,0.8929,0.8807,0.8618,0.8444,0.8609,0.8656,0.8586,0.8651,0.8742,0.8856,0.8856,0.878,0.8703,0.878,0.878,0.8703,0.8703,0.8703,0.8703,0.8703,0.8703,0.8703,0.8703,0.8703,0.8703,0.8703,0.8703,0.8703,0.8703,0.8703,0.8703,0.8703,0.8831,0.899,0.9216,0.9446,0.9677,0.9942,0.9994,0.9994,0.9951,0.9777,0.9646,0.9864,0.9607,0.9349,0.9471,0.9213,0.8911,0.8867,0.874,0.8612,0.8612,0.8612,0.8612,0.8612,0.8612,0.8612,0.8612,0.8612,0.8612,0.8612,0.8612,0.8612,0.8612,0.8612,0.8612,0.8612,0.8612,0.8612,0.8612,0.8612,0.8612,0.8612,0.8612,0.8612,0.8612,0.8612,0.8612,0.8612,0.848,0.7944,0.747,0.7427,0.7337,0.7218,0.7213,0.7168,0.7017,0.6885,0.6648,0.6195,0.0,0.0,0.0,0.0,0.0,0.0,0.4051,0.4113,0.3782,0.4362,0.4685,0.4316,0.4814,0.5659,0.6763,0.8024,0.8991,0.9536,0.9061,0.8841,0.8976,0.8935,0.8793,0.8581,0.8656,0.8661,0.8576,0.8661,0.8703,0.8703,0.8703,0.8703,0.8703,0.8703,0.8703,0.8703,0.8703,0.8703,0.8703,0.8703,0.8703,0.8703,0.8703,0.8703,0.8703,0.8703,0.8703,0.8703,0.8703,0.8703,0.8703,0.8703,0.885,0.9023,0.9225,0.9432,0.9649,0.9937,0.9994,0.9994,0.9994,0.9907,0.9864,0.9951,0.9864,0.9694,0.9602,0.9345,0.9087,0.8911,0.874,0.8612,0.8612,0.8612,0.8612,0.8612,0.8612,0.8612,0.8612,0.8612,0.8612,0.8612,0.8612,0.8612,0.8612,0.8612,0.8612,0.8612,0.8612,0.8612,0.8612,0.8612,0.8612,0.8612,0.8612,0.8612,0.8612,0.8612,0.8612,0.8612,0.8612,0.8388,0.7447,0.7451,0.7361,0.7157,0.7213,0.7215,0.6892,0.7012,0.7066,0.6664,0.6189,0.0,0.0,0.0,0.4401,0.4172,0.0,0.4282,0.3818,0.4233,0.4549,0.45,0.5007,0.5932,0.7319,0.8443,0.9164,0.9489,0.9028,0.8841,0.8976,0.8968,0.8864,0.8708,0.8703,0.8703,0.8703,0.8703,0.8703,0.8703,0.8703,0.8703,0.8703,0.8703,0.8703,0.8703,0.8703,0.8703,0.8703,0.8703,0.8703,0.8703,0.8703,0.8703,0.8703,0.8703,0.8703,0.8703,0.8703,0.8703,0.8713,0.877,0.8855,0.8982,0.9202,0.939,0.9569,0.9923,0.9994,0.9994,0.9994,0.9994,0.9994,0.9994,0.9994,0.9951,0.9733,0.9476,0.9257,0.9043,0.8828,0.8696,0.8696,0.8656,0.8612,0.8612,0.8612,0.8612,0.8612,0.8612,0.8612,0.8612,0.8612,0.8612,0.8612,0.8612,0.8696,0.8959,0.9213,0.9345,0.9345,0.9345,0.9345,0.9345,0.9087,0.8955,0.8955,0.8696,0.8612,0.8612,0.8612,0.8612,0.755,0.7346,0.7152,0.6882,0.681,0.681,0.6796,0.7012,0.7144,0.7005,0.6975,0.6678,0.5745,0.5454,0.5111,0.4411,0.43,0.0,0.0,0.423,0.401,0.3242,0.5045,0.6627,0.7316,0.8009,0.8685,0.9249,0.8576,0.8377,0.8952,0.8826,0.8708,0.8703,0.8703,0.8703,0.8703,0.8703,0.8703,0.8703,0.8703,0.8703,0.8703,0.8703,0.8703,0.8703,0.8703,0.8703,0.8703,0.8703,0.8703,0.8703,0.8703,0.8703,0.8703,0.8703,0.8703,0.8703,0.8703,0.8703,0.8737,0.8944,0.8878,0.8789,0.92,0.9286,0.9422,0.9881,0.9994,0.9994,0.9994,0.9994,0.9994,0.9994,0.9994,0.9994,0.9994,0.9607,0.9305,0.9301,0.9087,0.8911,0.8911,0.874,0.8612,0.8612,0.8612,0.8612,0.8612,0.8612,0.8612,0.8612,0.8612,0.8612,0.8612,0.8612,0.8955,0.9816,1.0722,1.1198,1.1198,1.1198,1.1198,1.1198,1.0332,0.9859,0.9859,0.8999,0.8612,0.8612,0.8612,0.8612,0.7313,0.7342,0.7342,0.7106,0.7262,0.7395,0.7121,0.7356,0.7579,0.7545,0.7236,0.6948,0.6769,0.6076,0.5431,0.5089,0.4688,0.4314,0.0,0.4,0.4049,0.4041,0.5234,0.6249,0.6746,0.7543,0.8374,0.9244,0.894,0.8921,0.9366,0.9192,0.9053,0.8921,0.8774,0.8703,0.8703,0.8703,0.8703,0.8703,0.8703,0.8703,0.8703,0.8703,0.8856,0.9089,0.8818,0.8856,0.9089,0.8818,0.8703,0.8703,0.8703,0.8703,0.8703,0.8703,0.8793,0.8935,0.9067,0.911,0.9124,0.9159,0.9171,0.9167,0.9409,0.9493,0.9555,0.9914,0.9994,0.9994,0.9994,0.9994,0.9994,0.9994,0.9994,0.9994,0.9994,0.965,0.9349,0.9476,0.917,0.8955,0.913,0.8955,0.878,0.878,0.8696,0.8612,0.8612,0.8612,0.8612,0.8612,0.8612,0.8828,0.9428,1.0033,1.0506,1.0809,1.1106,1.1284,1.1284,1.1284,1.1284,1.1284,1.0982,1.0506,0.9903,0.9602,0.9213,0.878,0.878,0.874,0.7299,0.7394,0.7441,0.7242,0.7446,0.7626,0.7356,0.7565,0.7859,0.7971,0.7724,0.75,0.7466,0.6823,0.6154,0.5825,0.5196,0.4614,0.0,0.4032,0.4151,0.4382,0.5361,0.6089,0.6244,0.7208,0.8087,0.8705,0.8799,0.8943,0.9362,0.9319,0.9192,0.899,0.8888,0.8779,0.8703,0.8703,0.8703,0.8703,0.8856,0.8894,0.8932,0.9046,0.9273,0.9506,0.9236,0.9273,0.9473,0.9089,0.8894,0.8894,0.8894,0.898,0.9048,0.8855,0.8949,0.9122,0.9324,0.9348,0.9296,0.9371,0.9343,0.9324,0.954,0.9602,0.9649,0.9937,0.9994,0.9994,0.9994,0.9994,0.9994,0.9994,0.9994,0.9994,0.9994,0.9694,0.9432,0.9559,0.9345,0.9218,0.9388,0.9218,0.8999,0.8911,0.874,0.8612,0.8612,0.8612,0.8612,0.8612,0.8867,0.9432,1.0332,1.1278,1.18,1.18,1.21,1.2314,1.2314,1.2314,1.2314,1.2314,1.2052,1.1617,1.1009,1.0755,1.0409,0.9985,0.9641,0.9432]}]]